<?xml version="1.0" encoding="UTF-8" standalone="no" ?>
<gpx xmlns="http://www.topografix.com/GPX/1/1" xmlns:xsi="http://www.w3.org/2001/XMLSchema-instance" xsi:schemaLocation="http://www.topografix.com/GPX/1/1 http://www.topografix.com/GPX/1/1/gpx.xsd" version="1.1" creator="VisuGPX - https://www.visugpx.com">
  <metadata>
    <name>bsm 28juin12</name>
    <desc><![CDATA[Sortie vers Flirey]]></desc>
  </metadata>
  <trk>
    <name><![CDATA[2012-06-28T05:56:14Z]]></name>
    <trkseg>
      <trkpt lat="49.1223" lon="6.15196">
        <ele>173.6552734</ele>
        <time>2012-06-28T05:56:14Z</time>
      </trkpt>
      <trkpt lat="49.1223" lon="6.15196">
        <ele>176.5393066</ele>
        <time>2012-06-28T05:56:15Z</time>
      </trkpt>
      <trkpt lat="49.1223" lon="6.15196">
        <ele>176.5393066</ele>
        <time>2012-06-28T05:56:16Z</time>
      </trkpt>
      <trkpt lat="49.12225" lon="6.15198">
        <ele>172.2132568</ele>
        <time>2012-06-28T06:02:22Z</time>
      </trkpt>
      <trkpt lat="49.12224" lon="6.15198">
        <ele>172.2132568</ele>
        <time>2012-06-28T06:02:23Z</time>
      </trkpt>
      <trkpt lat="49.12223" lon="6.15199">
        <ele>172.2132568</ele>
        <time>2012-06-28T06:02:25Z</time>
      </trkpt>
      <trkpt lat="49.12215" lon="6.15199">
        <ele>172.2132568</ele>
        <time>2012-06-28T06:02:30Z</time>
      </trkpt>
      <trkpt lat="49.12198" lon="6.15193">
        <ele>172.2132568</ele>
        <time>2012-06-28T06:02:39Z</time>
      </trkpt>
      <trkpt lat="49.1219" lon="6.15178">
        <ele>172.6939697</ele>
        <time>2012-06-28T06:02:43Z</time>
      </trkpt>
      <trkpt lat="49.12178" lon="6.15133">
        <ele>172.2132568</ele>
        <time>2012-06-28T06:02:51Z</time>
      </trkpt>
      <trkpt lat="49.12168" lon="6.1509">
        <ele>172.2132568</ele>
        <time>2012-06-28T06:02:58Z</time>
      </trkpt>
      <trkpt lat="49.12163" lon="6.15073">
        <ele>172.2132568</ele>
        <time>2012-06-28T06:03:04Z</time>
      </trkpt>
      <trkpt lat="49.12158" lon="6.15052">
        <ele>171.732666</ele>
        <time>2012-06-28T06:03:13Z</time>
      </trkpt>
      <trkpt lat="49.12156" lon="6.15044">
        <ele>171.732666</ele>
        <time>2012-06-28T06:03:18Z</time>
      </trkpt>
      <trkpt lat="49.12154" lon="6.15042">
        <ele>171.732666</ele>
        <time>2012-06-28T06:03:25Z</time>
      </trkpt>
      <trkpt lat="49.12148" lon="6.15022">
        <ele>172.2132568</ele>
        <time>2012-06-28T06:03:30Z</time>
      </trkpt>
      <trkpt lat="49.12132" lon="6.1497">
        <ele>172.6939697</ele>
        <time>2012-06-28T06:03:40Z</time>
      </trkpt>
      <trkpt lat="49.12112" lon="6.14911">
        <ele>172.2132568</ele>
        <time>2012-06-28T06:03:49Z</time>
      </trkpt>
      <trkpt lat="49.12091" lon="6.14845">
        <ele>172.6939697</ele>
        <time>2012-06-28T06:03:58Z</time>
      </trkpt>
      <trkpt lat="49.12077" lon="6.14797">
        <ele>172.6939697</ele>
        <time>2012-06-28T06:04:05Z</time>
      </trkpt>
      <trkpt lat="49.12069" lon="6.14771">
        <ele>172.2132568</ele>
        <time>2012-06-28T06:04:11Z</time>
      </trkpt>
      <trkpt lat="49.12061" lon="6.14741">
        <ele>172.2132568</ele>
        <time>2012-06-28T06:04:18Z</time>
      </trkpt>
      <trkpt lat="49.12056" lon="6.14724">
        <ele>172.2132568</ele>
        <time>2012-06-28T06:04:23Z</time>
      </trkpt>
      <trkpt lat="49.12053" lon="6.14714">
        <ele>172.6939697</ele>
        <time>2012-06-28T06:04:29Z</time>
      </trkpt>
      <trkpt lat="49.12053" lon="6.14714">
        <ele>172.2132568</ele>
        <time>2012-06-28T06:04:30Z</time>
      </trkpt>
      <trkpt lat="49.12053" lon="6.14713">
        <ele>172.6939697</ele>
        <time>2012-06-28T06:04:33Z</time>
      </trkpt>
      <trkpt lat="49.1205" lon="6.14707">
        <ele>172.2132568</ele>
        <time>2012-06-28T06:04:34Z</time>
      </trkpt>
      <trkpt lat="49.12042" lon="6.14687">
        <ele>172.2132568</ele>
        <time>2012-06-28T06:04:39Z</time>
      </trkpt>
      <trkpt lat="49.12029" lon="6.14643">
        <ele>172.2132568</ele>
        <time>2012-06-28T06:04:46Z</time>
      </trkpt>
      <trkpt lat="49.12013" lon="6.14588">
        <ele>172.2132568</ele>
        <time>2012-06-28T06:04:53Z</time>
      </trkpt>
      <trkpt lat="49.11994" lon="6.14532">
        <ele>172.2132568</ele>
        <time>2012-06-28T06:05:00Z</time>
      </trkpt>
      <trkpt lat="49.11967" lon="6.14475">
        <ele>172.2132568</ele>
        <time>2012-06-28T06:05:08Z</time>
      </trkpt>
      <trkpt lat="49.1196" lon="6.14461">
        <ele>172.2132568</ele>
        <time>2012-06-28T06:05:10Z</time>
      </trkpt>
      <trkpt lat="49.11927" lon="6.14407">
        <ele>172.6939697</ele>
        <time>2012-06-28T06:05:18Z</time>
      </trkpt>
      <trkpt lat="49.11884" lon="6.14352">
        <ele>173.6552734</ele>
        <time>2012-06-28T06:05:27Z</time>
      </trkpt>
      <trkpt lat="49.11849" lon="6.14324">
        <ele>173.1746826</ele>
        <time>2012-06-28T06:05:33Z</time>
      </trkpt>
      <trkpt lat="49.1181" lon="6.14283">
        <ele>172.6939697</ele>
        <time>2012-06-28T06:05:41Z</time>
      </trkpt>
      <trkpt lat="49.11805" lon="6.14279">
        <ele>172.6939697</ele>
        <time>2012-06-28T06:05:42Z</time>
      </trkpt>
      <trkpt lat="49.11793" lon="6.14272">
        <ele>172.6939697</ele>
        <time>2012-06-28T06:05:44Z</time>
      </trkpt>
      <trkpt lat="49.11742" lon="6.14215">
        <ele>172.6939697</ele>
        <time>2012-06-28T06:05:54Z</time>
      </trkpt>
      <trkpt lat="49.11737" lon="6.14208">
        <ele>173.1746826</ele>
        <time>2012-06-28T06:05:55Z</time>
      </trkpt>
      <trkpt lat="49.11712" lon="6.14157">
        <ele>172.6939697</ele>
        <time>2012-06-28T06:06:02Z</time>
      </trkpt>
      <trkpt lat="49.1168" lon="6.1411">
        <ele>172.6939697</ele>
        <time>2012-06-28T06:06:09Z</time>
      </trkpt>
      <trkpt lat="49.1165" lon="6.14059">
        <ele>172.6939697</ele>
        <time>2012-06-28T06:06:16Z</time>
      </trkpt>
      <trkpt lat="49.11624" lon="6.1401">
        <ele>172.6939697</ele>
        <time>2012-06-28T06:06:23Z</time>
      </trkpt>
      <trkpt lat="49.11602" lon="6.13962">
        <ele>172.6939697</ele>
        <time>2012-06-28T06:06:30Z</time>
      </trkpt>
      <trkpt lat="49.11575" lon="6.13893">
        <ele>173.1746826</ele>
        <time>2012-06-28T06:06:39Z</time>
      </trkpt>
      <trkpt lat="49.1155" lon="6.13827">
        <ele>172.6939697</ele>
        <time>2012-06-28T06:06:48Z</time>
      </trkpt>
      <trkpt lat="49.11528" lon="6.13766">
        <ele>172.6939697</ele>
        <time>2012-06-28T06:06:56Z</time>
      </trkpt>
      <trkpt lat="49.11505" lon="6.13709">
        <ele>173.1746826</ele>
        <time>2012-06-28T06:07:04Z</time>
      </trkpt>
      <trkpt lat="49.11475" lon="6.1365">
        <ele>172.6939697</ele>
        <time>2012-06-28T06:07:13Z</time>
      </trkpt>
      <trkpt lat="49.11454" lon="6.13601">
        <ele>172.6939697</ele>
        <time>2012-06-28T06:07:20Z</time>
      </trkpt>
      <trkpt lat="49.11425" lon="6.13545">
        <ele>172.6939697</ele>
        <time>2012-06-28T06:07:28Z</time>
      </trkpt>
      <trkpt lat="49.11397" lon="6.13489">
        <ele>173.6552734</ele>
        <time>2012-06-28T06:07:36Z</time>
      </trkpt>
      <trkpt lat="49.11368" lon="6.13431">
        <ele>174.1358643</ele>
        <time>2012-06-28T06:07:45Z</time>
      </trkpt>
      <trkpt lat="49.11365" lon="6.13417">
        <ele>174.6165771</ele>
        <time>2012-06-28T06:07:47Z</time>
      </trkpt>
      <trkpt lat="49.11359" lon="6.13354">
        <ele>175.5778809</ele>
        <time>2012-06-28T06:07:55Z</time>
      </trkpt>
      <trkpt lat="49.11354" lon="6.13288">
        <ele>176.0585938</ele>
        <time>2012-06-28T06:08:03Z</time>
      </trkpt>
      <trkpt lat="49.11343" lon="6.13235">
        <ele>175.09729</ele>
        <time>2012-06-28T06:08:10Z</time>
      </trkpt>
      <trkpt lat="49.11331" lon="6.13177">
        <ele>174.6165771</ele>
        <time>2012-06-28T06:08:17Z</time>
      </trkpt>
      <trkpt lat="49.11308" lon="6.13111">
        <ele>173.1746826</ele>
        <time>2012-06-28T06:08:25Z</time>
      </trkpt>
      <trkpt lat="49.1128" lon="6.13056">
        <ele>174.1358643</ele>
        <time>2012-06-28T06:08:33Z</time>
      </trkpt>
      <trkpt lat="49.11253" lon="6.13006">
        <ele>174.6165771</ele>
        <time>2012-06-28T06:08:41Z</time>
      </trkpt>
      <trkpt lat="49.11232" lon="6.12954">
        <ele>173.6552734</ele>
        <time>2012-06-28T06:08:48Z</time>
      </trkpt>
      <trkpt lat="49.11219" lon="6.12909">
        <ele>172.6939697</ele>
        <time>2012-06-28T06:08:54Z</time>
      </trkpt>
      <trkpt lat="49.11208" lon="6.12856">
        <ele>173.1746826</ele>
        <time>2012-06-28T06:09:01Z</time>
      </trkpt>
      <trkpt lat="49.11198" lon="6.12798">
        <ele>173.6552734</ele>
        <time>2012-06-28T06:09:09Z</time>
      </trkpt>
      <trkpt lat="49.11196" lon="6.12774">
        <ele>173.1746826</ele>
        <time>2012-06-28T06:09:12Z</time>
      </trkpt>
      <trkpt lat="49.11191" lon="6.12718">
        <ele>174.1358643</ele>
        <time>2012-06-28T06:09:19Z</time>
      </trkpt>
      <trkpt lat="49.11196" lon="6.12666">
        <ele>173.6552734</ele>
        <time>2012-06-28T06:09:25Z</time>
      </trkpt>
      <trkpt lat="49.11201" lon="6.12631">
        <ele>173.1746826</ele>
        <time>2012-06-28T06:09:29Z</time>
      </trkpt>
      <trkpt lat="49.11201" lon="6.12568">
        <ele>173.1746826</ele>
        <time>2012-06-28T06:09:36Z</time>
      </trkpt>
      <trkpt lat="49.11191" lon="6.12518">
        <ele>173.1746826</ele>
        <time>2012-06-28T06:09:42Z</time>
      </trkpt>
      <trkpt lat="49.11184" lon="6.12494">
        <ele>172.6939697</ele>
        <time>2012-06-28T06:09:45Z</time>
      </trkpt>
      <trkpt lat="49.11171" lon="6.12462">
        <ele>172.6939697</ele>
        <time>2012-06-28T06:09:49Z</time>
      </trkpt>
      <trkpt lat="49.11142" lon="6.12387">
        <ele>172.6939697</ele>
        <time>2012-06-28T06:09:58Z</time>
      </trkpt>
      <trkpt lat="49.11127" lon="6.12349">
        <ele>173.1746826</ele>
        <time>2012-06-28T06:10:03Z</time>
      </trkpt>
      <trkpt lat="49.111" lon="6.12278">
        <ele>172.6939697</ele>
        <time>2012-06-28T06:10:12Z</time>
      </trkpt>
      <trkpt lat="49.11097" lon="6.1227">
        <ele>172.2132568</ele>
        <time>2012-06-28T06:10:13Z</time>
      </trkpt>
      <trkpt lat="49.11095" lon="6.12218">
        <ele>173.1746826</ele>
        <time>2012-06-28T06:10:19Z</time>
      </trkpt>
      <trkpt lat="49.11097" lon="6.12153">
        <ele>174.6165771</ele>
        <time>2012-06-28T06:10:27Z</time>
      </trkpt>
      <trkpt lat="49.11098" lon="6.12139">
        <ele>175.09729</ele>
        <time>2012-06-28T06:10:29Z</time>
      </trkpt>
      <trkpt lat="49.11097" lon="6.12117">
        <ele>176.5393066</ele>
        <time>2012-06-28T06:10:32Z</time>
      </trkpt>
      <trkpt lat="49.11093" lon="6.12066">
        <ele>178.4619141</ele>
        <time>2012-06-28T06:10:39Z</time>
      </trkpt>
      <trkpt lat="49.11084" lon="6.12001">
        <ele>178.4619141</ele>
        <time>2012-06-28T06:10:47Z</time>
      </trkpt>
      <trkpt lat="49.1107" lon="6.11941">
        <ele>180.3845215</ele>
        <time>2012-06-28T06:10:55Z</time>
      </trkpt>
      <trkpt lat="49.11061" lon="6.11905">
        <ele>182.3071289</ele>
        <time>2012-06-28T06:11:01Z</time>
      </trkpt>
      <trkpt lat="49.11046" lon="6.1185">
        <ele>183.2684326</ele>
        <time>2012-06-28T06:11:10Z</time>
      </trkpt>
      <trkpt lat="49.11031" lon="6.11804">
        <ele>184.2298584</ele>
        <time>2012-06-28T06:11:18Z</time>
      </trkpt>
      <trkpt lat="49.11015" lon="6.11751">
        <ele>183.2684326</ele>
        <time>2012-06-28T06:11:26Z</time>
      </trkpt>
      <trkpt lat="49.11001" lon="6.11708">
        <ele>182.7878418</ele>
        <time>2012-06-28T06:11:32Z</time>
      </trkpt>
      <trkpt lat="49.10992" lon="6.11697">
        <ele>181.3458252</ele>
        <time>2012-06-28T06:11:35Z</time>
      </trkpt>
      <trkpt lat="49.10982" lon="6.11705">
        <ele>180.3845215</ele>
        <time>2012-06-28T06:11:38Z</time>
      </trkpt>
      <trkpt lat="49.10975" lon="6.11724">
        <ele>179.9038086</ele>
        <time>2012-06-28T06:11:41Z</time>
      </trkpt>
      <trkpt lat="49.10967" lon="6.11764">
        <ele>178.4619141</ele>
        <time>2012-06-28T06:11:45Z</time>
      </trkpt>
      <trkpt lat="49.10961" lon="6.11797">
        <ele>176.5393066</ele>
        <time>2012-06-28T06:11:48Z</time>
      </trkpt>
      <trkpt lat="49.10959" lon="6.11808">
        <ele>176.0585938</ele>
        <time>2012-06-28T06:11:49Z</time>
      </trkpt>
      <trkpt lat="49.10945" lon="6.11888">
        <ele>174.6165771</ele>
        <time>2012-06-28T06:11:56Z</time>
      </trkpt>
      <trkpt lat="49.10937" lon="6.11933">
        <ele>174.1358643</ele>
        <time>2012-06-28T06:12:00Z</time>
      </trkpt>
      <trkpt lat="49.10926" lon="6.12004">
        <ele>173.6552734</ele>
        <time>2012-06-28T06:12:07Z</time>
      </trkpt>
      <trkpt lat="49.1092" lon="6.1203">
        <ele>172.6939697</ele>
        <time>2012-06-28T06:12:10Z</time>
      </trkpt>
      <trkpt lat="49.10899" lon="6.12069">
        <ele>173.1746826</ele>
        <time>2012-06-28T06:12:16Z</time>
      </trkpt>
      <trkpt lat="49.10879" lon="6.121">
        <ele>173.1746826</ele>
        <time>2012-06-28T06:12:22Z</time>
      </trkpt>
      <trkpt lat="49.10862" lon="6.12122">
        <ele>173.1746826</ele>
        <time>2012-06-28T06:12:27Z</time>
      </trkpt>
      <trkpt lat="49.10855" lon="6.12123">
        <ele>172.6939697</ele>
        <time>2012-06-28T06:12:29Z</time>
      </trkpt>
      <trkpt lat="49.10847" lon="6.12099">
        <ele>173.6552734</ele>
        <time>2012-06-28T06:12:33Z</time>
      </trkpt>
      <trkpt lat="49.10836" lon="6.12043">
        <ele>173.6552734</ele>
        <time>2012-06-28T06:12:40Z</time>
      </trkpt>
      <trkpt lat="49.10818" lon="6.11958">
        <ele>173.6552734</ele>
        <time>2012-06-28T06:12:50Z</time>
      </trkpt>
      <trkpt lat="49.10802" lon="6.1188">
        <ele>173.6552734</ele>
        <time>2012-06-28T06:12:59Z</time>
      </trkpt>
      <trkpt lat="49.10788" lon="6.11812">
        <ele>173.1746826</ele>
        <time>2012-06-28T06:13:07Z</time>
      </trkpt>
      <trkpt lat="49.10773" lon="6.11743">
        <ele>174.6165771</ele>
        <time>2012-06-28T06:13:15Z</time>
      </trkpt>
      <trkpt lat="49.10761" lon="6.11684">
        <ele>174.6165771</ele>
        <time>2012-06-28T06:13:22Z</time>
      </trkpt>
      <trkpt lat="49.10744" lon="6.11599">
        <ele>174.1358643</ele>
        <time>2012-06-28T06:13:31Z</time>
      </trkpt>
      <trkpt lat="49.10725" lon="6.11506">
        <ele>175.09729</ele>
        <time>2012-06-28T06:13:41Z</time>
      </trkpt>
      <trkpt lat="49.10706" lon="6.11413">
        <ele>175.09729</ele>
        <time>2012-06-28T06:13:51Z</time>
      </trkpt>
      <trkpt lat="49.10687" lon="6.11321">
        <ele>175.09729</ele>
        <time>2012-06-28T06:14:01Z</time>
      </trkpt>
      <trkpt lat="49.10673" lon="6.11249">
        <ele>174.6165771</ele>
        <time>2012-06-28T06:14:09Z</time>
      </trkpt>
      <trkpt lat="49.10656" lon="6.1117">
        <ele>174.6165771</ele>
        <time>2012-06-28T06:14:18Z</time>
      </trkpt>
      <trkpt lat="49.10649" lon="6.11129">
        <ele>174.1358643</ele>
        <time>2012-06-28T06:14:24Z</time>
      </trkpt>
      <trkpt lat="49.10646" lon="6.11115">
        <ele>174.6165771</ele>
        <time>2012-06-28T06:14:29Z</time>
      </trkpt>
      <trkpt lat="49.10645" lon="6.11112">
        <ele>174.1358643</ele>
        <time>2012-06-28T06:14:31Z</time>
      </trkpt>
      <trkpt lat="49.10645" lon="6.11111">
        <ele>174.1358643</ele>
        <time>2012-06-28T06:14:34Z</time>
      </trkpt>
      <trkpt lat="49.10643" lon="6.11093">
        <ele>174.1358643</ele>
        <time>2012-06-28T06:14:37Z</time>
      </trkpt>
      <trkpt lat="49.10641" lon="6.11075">
        <ele>174.1358643</ele>
        <time>2012-06-28T06:14:40Z</time>
      </trkpt>
      <trkpt lat="49.10628" lon="6.11051">
        <ele>174.6165771</ele>
        <time>2012-06-28T06:14:44Z</time>
      </trkpt>
      <trkpt lat="49.1061" lon="6.11047">
        <ele>173.6552734</ele>
        <time>2012-06-28T06:14:47Z</time>
      </trkpt>
      <trkpt lat="49.10596" lon="6.11048">
        <ele>173.1746826</ele>
        <time>2012-06-28T06:14:49Z</time>
      </trkpt>
      <trkpt lat="49.10548" lon="6.11055">
        <ele>172.2132568</ele>
        <time>2012-06-28T06:14:56Z</time>
      </trkpt>
      <trkpt lat="49.10511" lon="6.11062">
        <ele>171.732666</ele>
        <time>2012-06-28T06:15:02Z</time>
      </trkpt>
      <trkpt lat="49.1048" lon="6.11071">
        <ele>171.732666</ele>
        <time>2012-06-28T06:15:08Z</time>
      </trkpt>
      <trkpt lat="49.10466" lon="6.11073">
        <ele>171.732666</ele>
        <time>2012-06-28T06:15:13Z</time>
      </trkpt>
      <trkpt lat="49.10462" lon="6.11074">
        <ele>171.2520752</ele>
        <time>2012-06-28T06:15:18Z</time>
      </trkpt>
      <trkpt lat="49.10462" lon="6.11075">
        <ele>171.2520752</ele>
        <time>2012-06-28T06:15:22Z</time>
      </trkpt>
      <trkpt lat="49.10457" lon="6.11075">
        <ele>171.732666</ele>
        <time>2012-06-28T06:15:26Z</time>
      </trkpt>
      <trkpt lat="49.10456" lon="6.11075">
        <ele>171.732666</ele>
        <time>2012-06-28T06:15:29Z</time>
      </trkpt>
      <trkpt lat="49.10455" lon="6.11076">
        <ele>171.732666</ele>
        <time>2012-06-28T06:15:32Z</time>
      </trkpt>
      <trkpt lat="49.10447" lon="6.11078">
        <ele>171.732666</ele>
        <time>2012-06-28T06:15:37Z</time>
      </trkpt>
      <trkpt lat="49.1043" lon="6.11081">
        <ele>172.2132568</ele>
        <time>2012-06-28T06:15:43Z</time>
      </trkpt>
      <trkpt lat="49.10405" lon="6.1108">
        <ele>172.6939697</ele>
        <time>2012-06-28T06:15:49Z</time>
      </trkpt>
      <trkpt lat="49.10383" lon="6.11078">
        <ele>173.1746826</ele>
        <time>2012-06-28T06:15:53Z</time>
      </trkpt>
      <trkpt lat="49.10372" lon="6.11076">
        <ele>173.1746826</ele>
        <time>2012-06-28T06:15:55Z</time>
      </trkpt>
      <trkpt lat="49.10347" lon="6.11055">
        <ele>173.6552734</ele>
        <time>2012-06-28T06:16:00Z</time>
      </trkpt>
      <trkpt lat="49.10338" lon="6.11024">
        <ele>173.1746826</ele>
        <time>2012-06-28T06:16:04Z</time>
      </trkpt>
      <trkpt lat="49.10323" lon="6.10992">
        <ele>174.1358643</ele>
        <time>2012-06-28T06:16:09Z</time>
      </trkpt>
      <trkpt lat="49.10305" lon="6.10988">
        <ele>174.1358643</ele>
        <time>2012-06-28T06:16:13Z</time>
      </trkpt>
      <trkpt lat="49.10294" lon="6.10996">
        <ele>173.6552734</ele>
        <time>2012-06-28T06:16:17Z</time>
      </trkpt>
      <trkpt lat="49.10292" lon="6.10999">
        <ele>173.6552734</ele>
        <time>2012-06-28T06:16:21Z</time>
      </trkpt>
      <trkpt lat="49.10296" lon="6.10997">
        <ele>175.09729</ele>
        <time>2012-06-28T06:17:22Z</time>
      </trkpt>
      <trkpt lat="49.10296" lon="6.10998">
        <ele>175.09729</ele>
        <time>2012-06-28T06:17:23Z</time>
      </trkpt>
      <trkpt lat="49.10287" lon="6.11006">
        <ele>176.0585938</ele>
        <time>2012-06-28T06:17:27Z</time>
      </trkpt>
      <trkpt lat="49.10277" lon="6.11014">
        <ele>176.5393066</ele>
        <time>2012-06-28T06:17:30Z</time>
      </trkpt>
      <trkpt lat="49.10252" lon="6.11009">
        <ele>176.5393066</ele>
        <time>2012-06-28T06:17:35Z</time>
      </trkpt>
      <trkpt lat="49.10247" lon="6.11005">
        <ele>176.5393066</ele>
        <time>2012-06-28T06:17:36Z</time>
      </trkpt>
      <trkpt lat="49.10203" lon="6.10966">
        <ele>176.5393066</ele>
        <time>2012-06-28T06:17:45Z</time>
      </trkpt>
      <trkpt lat="49.10163" lon="6.10915">
        <ele>176.0585938</ele>
        <time>2012-06-28T06:17:53Z</time>
      </trkpt>
      <trkpt lat="49.10135" lon="6.10856">
        <ele>175.09729</ele>
        <time>2012-06-28T06:18:00Z</time>
      </trkpt>
      <trkpt lat="49.10107" lon="6.10798">
        <ele>175.5778809</ele>
        <time>2012-06-28T06:18:07Z</time>
      </trkpt>
      <trkpt lat="49.10099" lon="6.10784">
        <ele>176.5393066</ele>
        <time>2012-06-28T06:18:09Z</time>
      </trkpt>
      <trkpt lat="49.10063" lon="6.10744">
        <ele>175.09729</ele>
        <time>2012-06-28T06:18:16Z</time>
      </trkpt>
      <trkpt lat="49.10016" lon="6.10699">
        <ele>174.6165771</ele>
        <time>2012-06-28T06:18:25Z</time>
      </trkpt>
      <trkpt lat="49.0996" lon="6.10643">
        <ele>174.6165771</ele>
        <time>2012-06-28T06:18:35Z</time>
      </trkpt>
      <trkpt lat="49.0991" lon="6.10587">
        <ele>174.6165771</ele>
        <time>2012-06-28T06:18:44Z</time>
      </trkpt>
      <trkpt lat="49.09867" lon="6.10522">
        <ele>174.1358643</ele>
        <time>2012-06-28T06:18:53Z</time>
      </trkpt>
      <trkpt lat="49.09829" lon="6.10448">
        <ele>174.6165771</ele>
        <time>2012-06-28T06:19:02Z</time>
      </trkpt>
      <trkpt lat="49.098" lon="6.10374">
        <ele>175.09729</ele>
        <time>2012-06-28T06:19:10Z</time>
      </trkpt>
      <trkpt lat="49.09771" lon="6.10276">
        <ele>174.1358643</ele>
        <time>2012-06-28T06:19:20Z</time>
      </trkpt>
      <trkpt lat="49.09745" lon="6.10186">
        <ele>174.1358643</ele>
        <time>2012-06-28T06:19:29Z</time>
      </trkpt>
      <trkpt lat="49.09718" lon="6.10098">
        <ele>175.09729</ele>
        <time>2012-06-28T06:19:38Z</time>
      </trkpt>
      <trkpt lat="49.09687" lon="6.10022">
        <ele>174.6165771</ele>
        <time>2012-06-28T06:19:46Z</time>
      </trkpt>
      <trkpt lat="49.09644" lon="6.09943">
        <ele>174.6165771</ele>
        <time>2012-06-28T06:19:55Z</time>
      </trkpt>
      <trkpt lat="49.09591" lon="6.09855">
        <ele>174.6165771</ele>
        <time>2012-06-28T06:20:05Z</time>
      </trkpt>
      <trkpt lat="49.09553" lon="6.09792">
        <ele>174.6165771</ele>
        <time>2012-06-28T06:20:12Z</time>
      </trkpt>
      <trkpt lat="49.09526" lon="6.09748">
        <ele>174.6165771</ele>
        <time>2012-06-28T06:20:17Z</time>
      </trkpt>
      <trkpt lat="49.09477" lon="6.09667">
        <ele>174.6165771</ele>
        <time>2012-06-28T06:20:26Z</time>
      </trkpt>
      <trkpt lat="49.09428" lon="6.09592">
        <ele>175.09729</ele>
        <time>2012-06-28T06:20:35Z</time>
      </trkpt>
      <trkpt lat="49.09378" lon="6.09536">
        <ele>174.1358643</ele>
        <time>2012-06-28T06:20:43Z</time>
      </trkpt>
      <trkpt lat="49.09335" lon="6.09504">
        <ele>175.5778809</ele>
        <time>2012-06-28T06:20:49Z</time>
      </trkpt>
      <trkpt lat="49.09292" lon="6.09477">
        <ele>174.1358643</ele>
        <time>2012-06-28T06:20:55Z</time>
      </trkpt>
      <trkpt lat="49.09242" lon="6.09446">
        <ele>174.1358643</ele>
        <time>2012-06-28T06:21:02Z</time>
      </trkpt>
      <trkpt lat="49.09184" lon="6.0941">
        <ele>174.6165771</ele>
        <time>2012-06-28T06:21:10Z</time>
      </trkpt>
      <trkpt lat="49.0912" lon="6.0936">
        <ele>174.6165771</ele>
        <time>2012-06-28T06:21:19Z</time>
      </trkpt>
      <trkpt lat="49.09079" lon="6.09328">
        <ele>173.6552734</ele>
        <time>2012-06-28T06:21:25Z</time>
      </trkpt>
      <trkpt lat="49.09023" lon="6.0928">
        <ele>174.1358643</ele>
        <time>2012-06-28T06:21:33Z</time>
      </trkpt>
      <trkpt lat="49.08967" lon="6.09236">
        <ele>175.09729</ele>
        <time>2012-06-28T06:21:41Z</time>
      </trkpt>
      <trkpt lat="49.08902" lon="6.09183">
        <ele>174.6165771</ele>
        <time>2012-06-28T06:21:50Z</time>
      </trkpt>
      <trkpt lat="49.08846" lon="6.09142">
        <ele>175.5778809</ele>
        <time>2012-06-28T06:21:58Z</time>
      </trkpt>
      <trkpt lat="49.08792" lon="6.09103">
        <ele>175.09729</ele>
        <time>2012-06-28T06:22:06Z</time>
      </trkpt>
      <trkpt lat="49.08712" lon="6.09041">
        <ele>175.09729</ele>
        <time>2012-06-28T06:22:18Z</time>
      </trkpt>
      <trkpt lat="49.08653" lon="6.08987">
        <ele>175.5778809</ele>
        <time>2012-06-28T06:22:27Z</time>
      </trkpt>
      <trkpt lat="49.08595" lon="6.08932">
        <ele>175.5778809</ele>
        <time>2012-06-28T06:22:36Z</time>
      </trkpt>
      <trkpt lat="49.0852" lon="6.08861">
        <ele>176.0585938</ele>
        <time>2012-06-28T06:22:48Z</time>
      </trkpt>
      <trkpt lat="49.08461" lon="6.08807">
        <ele>176.5393066</ele>
        <time>2012-06-28T06:22:58Z</time>
      </trkpt>
      <trkpt lat="49.08407" lon="6.08756">
        <ele>176.0585938</ele>
        <time>2012-06-28T06:23:07Z</time>
      </trkpt>
      <trkpt lat="49.08345" lon="6.087">
        <ele>176.0585938</ele>
        <time>2012-06-28T06:23:17Z</time>
      </trkpt>
      <trkpt lat="49.08301" lon="6.08659">
        <ele>176.5393066</ele>
        <time>2012-06-28T06:23:24Z</time>
      </trkpt>
      <trkpt lat="49.08258" lon="6.08616">
        <ele>177.0200195</ele>
        <time>2012-06-28T06:23:31Z</time>
      </trkpt>
      <trkpt lat="49.08207" lon="6.08569">
        <ele>176.5393066</ele>
        <time>2012-06-28T06:23:39Z</time>
      </trkpt>
      <trkpt lat="49.08169" lon="6.08531">
        <ele>176.0585938</ele>
        <time>2012-06-28T06:23:45Z</time>
      </trkpt>
      <trkpt lat="49.08119" lon="6.08482">
        <ele>177.0200195</ele>
        <time>2012-06-28T06:23:53Z</time>
      </trkpt>
      <trkpt lat="49.08053" lon="6.08418">
        <ele>177.5006104</ele>
        <time>2012-06-28T06:24:04Z</time>
      </trkpt>
      <trkpt lat="49.0801" lon="6.08377">
        <ele>177.9812012</ele>
        <time>2012-06-28T06:24:11Z</time>
      </trkpt>
      <trkpt lat="49.07946" lon="6.08319">
        <ele>177.5006104</ele>
        <time>2012-06-28T06:24:21Z</time>
      </trkpt>
      <trkpt lat="49.07907" lon="6.08279">
        <ele>176.5393066</ele>
        <time>2012-06-28T06:24:27Z</time>
      </trkpt>
      <trkpt lat="49.07864" lon="6.08226">
        <ele>176.0585938</ele>
        <time>2012-06-28T06:24:34Z</time>
      </trkpt>
      <trkpt lat="49.07819" lon="6.08163">
        <ele>176.5393066</ele>
        <time>2012-06-28T06:24:42Z</time>
      </trkpt>
      <trkpt lat="49.07773" lon="6.08094">
        <ele>176.5393066</ele>
        <time>2012-06-28T06:24:50Z</time>
      </trkpt>
      <trkpt lat="49.0774" lon="6.0804">
        <ele>177.5006104</ele>
        <time>2012-06-28T06:24:56Z</time>
      </trkpt>
      <trkpt lat="49.07716" lon="6.0799">
        <ele>176.5393066</ele>
        <time>2012-06-28T06:25:01Z</time>
      </trkpt>
      <trkpt lat="49.07693" lon="6.07913">
        <ele>176.0585938</ele>
        <time>2012-06-28T06:25:08Z</time>
      </trkpt>
      <trkpt lat="49.07661" lon="6.07823">
        <ele>177.0200195</ele>
        <time>2012-06-28T06:25:17Z</time>
      </trkpt>
      <trkpt lat="49.07631" lon="6.07758">
        <ele>177.0200195</ele>
        <time>2012-06-28T06:25:24Z</time>
      </trkpt>
      <trkpt lat="49.07605" lon="6.07704">
        <ele>177.5006104</ele>
        <time>2012-06-28T06:25:30Z</time>
      </trkpt>
      <trkpt lat="49.07559" lon="6.07611">
        <ele>178.942627</ele>
        <time>2012-06-28T06:25:41Z</time>
      </trkpt>
      <trkpt lat="49.0754" lon="6.07571">
        <ele>178.942627</ele>
        <time>2012-06-28T06:25:47Z</time>
      </trkpt>
      <trkpt lat="49.07532" lon="6.07541">
        <ele>179.4232178</ele>
        <time>2012-06-28T06:25:52Z</time>
      </trkpt>
      <trkpt lat="49.07516" lon="6.07522">
        <ele>179.9038086</ele>
        <time>2012-06-28T06:25:55Z</time>
      </trkpt>
      <trkpt lat="49.07483" lon="6.07474">
        <ele>179.4232178</ele>
        <time>2012-06-28T06:26:01Z</time>
      </trkpt>
      <trkpt lat="49.07464" lon="6.07451">
        <ele>179.4232178</ele>
        <time>2012-06-28T06:26:04Z</time>
      </trkpt>
      <trkpt lat="49.07412" lon="6.07413">
        <ele>177.9812012</ele>
        <time>2012-06-28T06:26:11Z</time>
      </trkpt>
      <trkpt lat="49.07372" lon="6.074">
        <ele>177.5006104</ele>
        <time>2012-06-28T06:26:16Z</time>
      </trkpt>
      <trkpt lat="49.07314" lon="6.07395">
        <ele>178.4619141</ele>
        <time>2012-06-28T06:26:23Z</time>
      </trkpt>
      <trkpt lat="49.07263" lon="6.0739">
        <ele>177.9812012</ele>
        <time>2012-06-28T06:26:30Z</time>
      </trkpt>
      <trkpt lat="49.07204" lon="6.07384">
        <ele>177.5006104</ele>
        <time>2012-06-28T06:26:38Z</time>
      </trkpt>
      <trkpt lat="49.07159" lon="6.07361">
        <ele>177.9812012</ele>
        <time>2012-06-28T06:26:45Z</time>
      </trkpt>
      <trkpt lat="49.07153" lon="6.07357">
        <ele>177.0200195</ele>
        <time>2012-06-28T06:26:46Z</time>
      </trkpt>
      <trkpt lat="49.07091" lon="6.07323">
        <ele>177.0200195</ele>
        <time>2012-06-28T06:26:56Z</time>
      </trkpt>
      <trkpt lat="49.07047" lon="6.07299">
        <ele>177.9812012</ele>
        <time>2012-06-28T06:27:03Z</time>
      </trkpt>
      <trkpt lat="49.06991" lon="6.07261">
        <ele>176.5393066</ele>
        <time>2012-06-28T06:27:12Z</time>
      </trkpt>
      <trkpt lat="49.0694" lon="6.07223">
        <ele>177.9812012</ele>
        <time>2012-06-28T06:27:20Z</time>
      </trkpt>
      <trkpt lat="49.06886" lon="6.07184">
        <ele>177.5006104</ele>
        <time>2012-06-28T06:27:28Z</time>
      </trkpt>
      <trkpt lat="49.06824" lon="6.07137">
        <ele>177.9812012</ele>
        <time>2012-06-28T06:27:37Z</time>
      </trkpt>
      <trkpt lat="49.06747" lon="6.07079">
        <ele>177.9812012</ele>
        <time>2012-06-28T06:27:48Z</time>
      </trkpt>
      <trkpt lat="49.06673" lon="6.0702">
        <ele>177.9812012</ele>
        <time>2012-06-28T06:27:58Z</time>
      </trkpt>
      <trkpt lat="49.06594" lon="6.06953">
        <ele>177.5006104</ele>
        <time>2012-06-28T06:28:09Z</time>
      </trkpt>
      <trkpt lat="49.06552" lon="6.06919">
        <ele>177.9812012</ele>
        <time>2012-06-28T06:28:15Z</time>
      </trkpt>
      <trkpt lat="49.06489" lon="6.06867">
        <ele>177.9812012</ele>
        <time>2012-06-28T06:28:24Z</time>
      </trkpt>
      <trkpt lat="49.06418" lon="6.06808">
        <ele>178.4619141</ele>
        <time>2012-06-28T06:28:34Z</time>
      </trkpt>
      <trkpt lat="49.06339" lon="6.06742">
        <ele>178.942627</ele>
        <time>2012-06-28T06:28:45Z</time>
      </trkpt>
      <trkpt lat="49.0627" lon="6.06685">
        <ele>178.4619141</ele>
        <time>2012-06-28T06:28:55Z</time>
      </trkpt>
      <trkpt lat="49.06201" lon="6.06626">
        <ele>178.942627</ele>
        <time>2012-06-28T06:29:05Z</time>
      </trkpt>
      <trkpt lat="49.06147" lon="6.06576">
        <ele>178.4619141</ele>
        <time>2012-06-28T06:29:13Z</time>
      </trkpt>
      <trkpt lat="49.06102" lon="6.0653">
        <ele>177.9812012</ele>
        <time>2012-06-28T06:29:20Z</time>
      </trkpt>
      <trkpt lat="49.06058" lon="6.06486">
        <ele>178.942627</ele>
        <time>2012-06-28T06:29:27Z</time>
      </trkpt>
      <trkpt lat="49.06007" lon="6.06438">
        <ele>177.9812012</ele>
        <time>2012-06-28T06:29:35Z</time>
      </trkpt>
      <trkpt lat="49.05952" lon="6.06389">
        <ele>178.4619141</ele>
        <time>2012-06-28T06:29:43Z</time>
      </trkpt>
      <trkpt lat="49.05912" lon="6.06354">
        <ele>178.4619141</ele>
        <time>2012-06-28T06:29:49Z</time>
      </trkpt>
      <trkpt lat="49.05871" lon="6.06317">
        <ele>178.942627</ele>
        <time>2012-06-28T06:29:55Z</time>
      </trkpt>
      <trkpt lat="49.05834" lon="6.06275">
        <ele>180.3845215</ele>
        <time>2012-06-28T06:30:01Z</time>
      </trkpt>
      <trkpt lat="49.05792" lon="6.06242">
        <ele>178.942627</ele>
        <time>2012-06-28T06:30:07Z</time>
      </trkpt>
      <trkpt lat="49.05744" lon="6.06205">
        <ele>178.942627</ele>
        <time>2012-06-28T06:30:14Z</time>
      </trkpt>
      <trkpt lat="49.05723" lon="6.06177">
        <ele>178.942627</ele>
        <time>2012-06-28T06:30:18Z</time>
      </trkpt>
      <trkpt lat="49.05711" lon="6.06181">
        <ele>179.4232178</ele>
        <time>2012-06-28T06:30:20Z</time>
      </trkpt>
      <trkpt lat="49.05675" lon="6.06189">
        <ele>179.4232178</ele>
        <time>2012-06-28T06:30:25Z</time>
      </trkpt>
      <trkpt lat="49.05618" lon="6.06171">
        <ele>179.9038086</ele>
        <time>2012-06-28T06:30:32Z</time>
      </trkpt>
      <trkpt lat="49.05601" lon="6.06168">
        <ele>179.4232178</ele>
        <time>2012-06-28T06:30:34Z</time>
      </trkpt>
      <trkpt lat="49.05545" lon="6.06151">
        <ele>178.942627</ele>
        <time>2012-06-28T06:30:41Z</time>
      </trkpt>
      <trkpt lat="49.055" lon="6.06132">
        <ele>178.942627</ele>
        <time>2012-06-28T06:30:47Z</time>
      </trkpt>
      <trkpt lat="49.05439" lon="6.061">
        <ele>178.942627</ele>
        <time>2012-06-28T06:30:55Z</time>
      </trkpt>
      <trkpt lat="49.05378" lon="6.06071">
        <ele>177.9812012</ele>
        <time>2012-06-28T06:31:03Z</time>
      </trkpt>
      <trkpt lat="49.05324" lon="6.0605">
        <ele>178.942627</ele>
        <time>2012-06-28T06:31:10Z</time>
      </trkpt>
      <trkpt lat="49.0525" lon="6.06029">
        <ele>177.5006104</ele>
        <time>2012-06-28T06:31:19Z</time>
      </trkpt>
      <trkpt lat="49.05188" lon="6.06012">
        <ele>179.4232178</ele>
        <time>2012-06-28T06:31:27Z</time>
      </trkpt>
      <trkpt lat="49.0518" lon="6.06009">
        <ele>179.9038086</ele>
        <time>2012-06-28T06:31:28Z</time>
      </trkpt>
      <trkpt lat="49.05165" lon="6.06003">
        <ele>177.9812012</ele>
        <time>2012-06-28T06:31:30Z</time>
      </trkpt>
      <trkpt lat="49.05098" lon="6.05982">
        <ele>177.0200195</ele>
        <time>2012-06-28T06:31:39Z</time>
      </trkpt>
      <trkpt lat="49.05017" lon="6.05958">
        <ele>177.9812012</ele>
        <time>2012-06-28T06:31:50Z</time>
      </trkpt>
      <trkpt lat="49.04957" lon="6.05942">
        <ele>177.5006104</ele>
        <time>2012-06-28T06:31:58Z</time>
      </trkpt>
      <trkpt lat="49.04881" lon="6.05921">
        <ele>177.5006104</ele>
        <time>2012-06-28T06:32:08Z</time>
      </trkpt>
      <trkpt lat="49.04796" lon="6.05896">
        <ele>177.5006104</ele>
        <time>2012-06-28T06:32:19Z</time>
      </trkpt>
      <trkpt lat="49.04726" lon="6.05875">
        <ele>177.0200195</ele>
        <time>2012-06-28T06:32:28Z</time>
      </trkpt>
      <trkpt lat="49.04648" lon="6.05851">
        <ele>177.0200195</ele>
        <time>2012-06-28T06:32:38Z</time>
      </trkpt>
      <trkpt lat="49.04579" lon="6.05829">
        <ele>176.5393066</ele>
        <time>2012-06-28T06:32:47Z</time>
      </trkpt>
      <trkpt lat="49.04504" lon="6.05804">
        <ele>177.0200195</ele>
        <time>2012-06-28T06:32:57Z</time>
      </trkpt>
      <trkpt lat="49.04431" lon="6.05771">
        <ele>177.0200195</ele>
        <time>2012-06-28T06:33:07Z</time>
      </trkpt>
      <trkpt lat="49.04351" lon="6.05727">
        <ele>177.5006104</ele>
        <time>2012-06-28T06:33:18Z</time>
      </trkpt>
      <trkpt lat="49.04288" lon="6.05688">
        <ele>178.4619141</ele>
        <time>2012-06-28T06:33:27Z</time>
      </trkpt>
      <trkpt lat="49.04211" lon="6.0564">
        <ele>177.9812012</ele>
        <time>2012-06-28T06:33:38Z</time>
      </trkpt>
      <trkpt lat="49.04129" lon="6.05588">
        <ele>178.942627</ele>
        <time>2012-06-28T06:33:50Z</time>
      </trkpt>
      <trkpt lat="49.04083" lon="6.05558">
        <ele>178.942627</ele>
        <time>2012-06-28T06:33:57Z</time>
      </trkpt>
      <trkpt lat="49.04028" lon="6.05527">
        <ele>179.4232178</ele>
        <time>2012-06-28T06:34:05Z</time>
      </trkpt>
      <trkpt lat="49.03966" lon="6.0549">
        <ele>179.9038086</ele>
        <time>2012-06-28T06:34:14Z</time>
      </trkpt>
      <trkpt lat="49.03888" lon="6.05441">
        <ele>180.8652344</ele>
        <time>2012-06-28T06:34:25Z</time>
      </trkpt>
      <trkpt lat="49.03829" lon="6.05405">
        <ele>181.3458252</ele>
        <time>2012-06-28T06:34:33Z</time>
      </trkpt>
      <trkpt lat="49.0377" lon="6.05362">
        <ele>181.3458252</ele>
        <time>2012-06-28T06:34:41Z</time>
      </trkpt>
      <trkpt lat="49.03727" lon="6.05329">
        <ele>180.3845215</ele>
        <time>2012-06-28T06:34:47Z</time>
      </trkpt>
      <trkpt lat="49.03645" lon="6.05278">
        <ele>180.3845215</ele>
        <time>2012-06-28T06:34:58Z</time>
      </trkpt>
      <trkpt lat="49.0356" lon="6.05239">
        <ele>180.8652344</ele>
        <time>2012-06-28T06:35:09Z</time>
      </trkpt>
      <trkpt lat="49.03476" lon="6.05207">
        <ele>180.8652344</ele>
        <time>2012-06-28T06:35:20Z</time>
      </trkpt>
      <trkpt lat="49.03437" lon="6.05192">
        <ele>178.942627</ele>
        <time>2012-06-28T06:35:25Z</time>
      </trkpt>
      <trkpt lat="49.03367" lon="6.05165">
        <ele>178.4619141</ele>
        <time>2012-06-28T06:35:34Z</time>
      </trkpt>
      <trkpt lat="49.03292" lon="6.05136">
        <ele>177.9812012</ele>
        <time>2012-06-28T06:35:44Z</time>
      </trkpt>
      <trkpt lat="49.03214" lon="6.05112">
        <ele>177.5006104</ele>
        <time>2012-06-28T06:35:54Z</time>
      </trkpt>
      <trkpt lat="49.03148" lon="6.05106">
        <ele>178.4619141</ele>
        <time>2012-06-28T06:36:02Z</time>
      </trkpt>
      <trkpt lat="49.03066" lon="6.05105">
        <ele>178.4619141</ele>
        <time>2012-06-28T06:36:12Z</time>
      </trkpt>
      <trkpt lat="49.03026" lon="6.05111">
        <ele>178.942627</ele>
        <time>2012-06-28T06:36:17Z</time>
      </trkpt>
      <trkpt lat="49.02987" lon="6.05118">
        <ele>179.4232178</ele>
        <time>2012-06-28T06:36:22Z</time>
      </trkpt>
      <trkpt lat="49.02931" lon="6.05129">
        <ele>179.4232178</ele>
        <time>2012-06-28T06:36:29Z</time>
      </trkpt>
      <trkpt lat="49.02878" lon="6.05134">
        <ele>180.3845215</ele>
        <time>2012-06-28T06:36:36Z</time>
      </trkpt>
      <trkpt lat="49.0284" lon="6.05129">
        <ele>179.9038086</ele>
        <time>2012-06-28T06:36:41Z</time>
      </trkpt>
      <trkpt lat="49.02786" lon="6.05116">
        <ele>179.4232178</ele>
        <time>2012-06-28T06:36:48Z</time>
      </trkpt>
      <trkpt lat="49.02754" lon="6.05111">
        <ele>180.3845215</ele>
        <time>2012-06-28T06:36:52Z</time>
      </trkpt>
      <trkpt lat="49.02691" lon="6.05098">
        <ele>180.3845215</ele>
        <time>2012-06-28T06:37:00Z</time>
      </trkpt>
      <trkpt lat="49.0262" lon="6.05086">
        <ele>180.3845215</ele>
        <time>2012-06-28T06:37:09Z</time>
      </trkpt>
      <trkpt lat="49.02566" lon="6.05078">
        <ele>180.3845215</ele>
        <time>2012-06-28T06:37:16Z</time>
      </trkpt>
      <trkpt lat="49.02505" lon="6.05067">
        <ele>181.3458252</ele>
        <time>2012-06-28T06:37:24Z</time>
      </trkpt>
      <trkpt lat="49.02453" lon="6.0505">
        <ele>181.3458252</ele>
        <time>2012-06-28T06:37:31Z</time>
      </trkpt>
      <trkpt lat="49.02421" lon="6.05041">
        <ele>181.3458252</ele>
        <time>2012-06-28T06:37:36Z</time>
      </trkpt>
      <trkpt lat="49.02391" lon="6.05036">
        <ele>181.826416</ele>
        <time>2012-06-28T06:37:41Z</time>
      </trkpt>
      <trkpt lat="49.02365" lon="6.05031">
        <ele>181.3458252</ele>
        <time>2012-06-28T06:37:46Z</time>
      </trkpt>
      <trkpt lat="49.02348" lon="6.05026">
        <ele>181.826416</ele>
        <time>2012-06-28T06:37:49Z</time>
      </trkpt>
      <trkpt lat="49.0229" lon="6.05007">
        <ele>181.826416</ele>
        <time>2012-06-28T06:37:58Z</time>
      </trkpt>
      <trkpt lat="49.02237" lon="6.04986">
        <ele>182.3071289</ele>
        <time>2012-06-28T06:38:06Z</time>
      </trkpt>
      <trkpt lat="49.02192" lon="6.04966">
        <ele>182.7878418</ele>
        <time>2012-06-28T06:38:13Z</time>
      </trkpt>
      <trkpt lat="49.02135" lon="6.04926">
        <ele>182.3071289</ele>
        <time>2012-06-28T06:38:22Z</time>
      </trkpt>
      <trkpt lat="49.02081" lon="6.04888">
        <ele>182.7878418</ele>
        <time>2012-06-28T06:38:30Z</time>
      </trkpt>
      <trkpt lat="49.02001" lon="6.0483">
        <ele>182.3071289</ele>
        <time>2012-06-28T06:38:41Z</time>
      </trkpt>
      <trkpt lat="49.01929" lon="6.04773">
        <ele>181.826416</ele>
        <time>2012-06-28T06:38:51Z</time>
      </trkpt>
      <trkpt lat="49.01883" lon="6.04735">
        <ele>181.3458252</ele>
        <time>2012-06-28T06:38:58Z</time>
      </trkpt>
      <trkpt lat="49.01835" lon="6.04696">
        <ele>181.826416</ele>
        <time>2012-06-28T06:39:05Z</time>
      </trkpt>
      <trkpt lat="49.01779" lon="6.0465">
        <ele>181.826416</ele>
        <time>2012-06-28T06:39:13Z</time>
      </trkpt>
      <trkpt lat="49.01764" lon="6.04639">
        <ele>183.2684326</ele>
        <time>2012-06-28T06:39:15Z</time>
      </trkpt>
      <trkpt lat="49.01679" lon="6.04582">
        <ele>185.6717529</ele>
        <time>2012-06-28T06:39:27Z</time>
      </trkpt>
      <trkpt lat="49.01672" lon="6.04578">
        <ele>185.1911621</ele>
        <time>2012-06-28T06:39:28Z</time>
      </trkpt>
      <trkpt lat="49.01645" lon="6.04561">
        <ele>189.9976807</ele>
        <time>2012-06-28T06:39:32Z</time>
      </trkpt>
      <trkpt lat="49.01638" lon="6.04557">
        <ele>187.5943604</ele>
        <time>2012-06-28T06:39:33Z</time>
      </trkpt>
      <trkpt lat="49.01625" lon="6.0455">
        <ele>186.6331787</ele>
        <time>2012-06-28T06:39:35Z</time>
      </trkpt>
      <trkpt lat="49.01576" lon="6.04514">
        <ele>190.4783936</ele>
        <time>2012-06-28T06:39:43Z</time>
      </trkpt>
      <trkpt lat="49.01536" lon="6.04473">
        <ele>191.4395752</ele>
        <time>2012-06-28T06:39:50Z</time>
      </trkpt>
      <trkpt lat="49.01499" lon="6.04425">
        <ele>192.8817139</ele>
        <time>2012-06-28T06:39:57Z</time>
      </trkpt>
      <trkpt lat="49.01465" lon="6.04371">
        <ele>194.3237305</ele>
        <time>2012-06-28T06:40:04Z</time>
      </trkpt>
      <trkpt lat="49.0143" lon="6.04309">
        <ele>194.3237305</ele>
        <time>2012-06-28T06:40:11Z</time>
      </trkpt>
      <trkpt lat="49.01393" lon="6.04244">
        <ele>192.8817139</ele>
        <time>2012-06-28T06:40:18Z</time>
      </trkpt>
      <trkpt lat="49.01346" lon="6.0416">
        <ele>189.5169678</ele>
        <time>2012-06-28T06:40:26Z</time>
      </trkpt>
      <trkpt lat="49.01339" lon="6.04149">
        <ele>189.036377</ele>
        <time>2012-06-28T06:40:27Z</time>
      </trkpt>
      <trkpt lat="49.013" lon="6.04097">
        <ele>187.1137695</ele>
        <time>2012-06-28T06:40:32Z</time>
      </trkpt>
      <trkpt lat="49.01292" lon="6.04087">
        <ele>187.1137695</ele>
        <time>2012-06-28T06:40:33Z</time>
      </trkpt>
      <trkpt lat="49.01209" lon="6.0399">
        <ele>185.1911621</ele>
        <time>2012-06-28T06:40:43Z</time>
      </trkpt>
      <trkpt lat="49.01143" lon="6.03905">
        <ele>183.2684326</ele>
        <time>2012-06-28T06:40:52Z</time>
      </trkpt>
      <trkpt lat="49.01097" lon="6.0384">
        <ele>183.7490234</ele>
        <time>2012-06-28T06:40:59Z</time>
      </trkpt>
      <trkpt lat="49.01069" lon="6.0378">
        <ele>183.7490234</ele>
        <time>2012-06-28T06:41:05Z</time>
      </trkpt>
      <trkpt lat="49.01048" lon="6.03705">
        <ele>183.7490234</ele>
        <time>2012-06-28T06:41:12Z</time>
      </trkpt>
      <trkpt lat="49.01035" lon="6.03652">
        <ele>183.7490234</ele>
        <time>2012-06-28T06:41:17Z</time>
      </trkpt>
      <trkpt lat="49.01034" lon="6.03641">
        <ele>182.7878418</ele>
        <time>2012-06-28T06:41:18Z</time>
      </trkpt>
      <trkpt lat="49.01034" lon="6.03569">
        <ele>182.7878418</ele>
        <time>2012-06-28T06:41:25Z</time>
      </trkpt>
      <trkpt lat="49.01034" lon="6.0356">
        <ele>182.7878418</ele>
        <time>2012-06-28T06:41:26Z</time>
      </trkpt>
      <trkpt lat="49.01024" lon="6.03532">
        <ele>183.2684326</ele>
        <time>2012-06-28T06:41:30Z</time>
      </trkpt>
      <trkpt lat="49.01012" lon="6.03528">
        <ele>183.7490234</ele>
        <time>2012-06-28T06:41:32Z</time>
      </trkpt>
      <trkpt lat="49.00986" lon="6.03527">
        <ele>183.7490234</ele>
        <time>2012-06-28T06:41:36Z</time>
      </trkpt>
      <trkpt lat="49.00947" lon="6.0354">
        <ele>183.2684326</ele>
        <time>2012-06-28T06:41:42Z</time>
      </trkpt>
      <trkpt lat="49.00935" lon="6.03548">
        <ele>183.7490234</ele>
        <time>2012-06-28T06:41:44Z</time>
      </trkpt>
      <trkpt lat="49.00904" lon="6.03583">
        <ele>184.7105713</ele>
        <time>2012-06-28T06:41:50Z</time>
      </trkpt>
      <trkpt lat="49.00873" lon="6.03635">
        <ele>184.7105713</ele>
        <time>2012-06-28T06:41:57Z</time>
      </trkpt>
      <trkpt lat="49.00855" lon="6.03691">
        <ele>185.1911621</ele>
        <time>2012-06-28T06:42:03Z</time>
      </trkpt>
      <trkpt lat="49.00834" lon="6.03758">
        <ele>184.7105713</ele>
        <time>2012-06-28T06:42:10Z</time>
      </trkpt>
      <trkpt lat="49.00806" lon="6.03798">
        <ele>184.2298584</ele>
        <time>2012-06-28T06:42:15Z</time>
      </trkpt>
      <trkpt lat="49.00777" lon="6.03809">
        <ele>183.7490234</ele>
        <time>2012-06-28T06:42:19Z</time>
      </trkpt>
      <trkpt lat="49.00736" lon="6.03811">
        <ele>183.7490234</ele>
        <time>2012-06-28T06:42:25Z</time>
      </trkpt>
      <trkpt lat="49.00706" lon="6.03813">
        <ele>184.2298584</ele>
        <time>2012-06-28T06:42:29Z</time>
      </trkpt>
      <trkpt lat="49.0066" lon="6.03838">
        <ele>185.1911621</ele>
        <time>2012-06-28T06:42:36Z</time>
      </trkpt>
      <trkpt lat="49.00615" lon="6.0387">
        <ele>185.6717529</ele>
        <time>2012-06-28T06:42:43Z</time>
      </trkpt>
      <trkpt lat="49.00577" lon="6.03889">
        <ele>185.6717529</ele>
        <time>2012-06-28T06:42:49Z</time>
      </trkpt>
      <trkpt lat="49.00541" lon="6.03896">
        <ele>185.6717529</ele>
        <time>2012-06-28T06:42:54Z</time>
      </trkpt>
      <trkpt lat="49.00488" lon="6.03894">
        <ele>186.1524658</ele>
        <time>2012-06-28T06:43:01Z</time>
      </trkpt>
      <trkpt lat="49.00442" lon="6.03885">
        <ele>185.6717529</ele>
        <time>2012-06-28T06:43:07Z</time>
      </trkpt>
      <trkpt lat="49.00398" lon="6.03873">
        <ele>187.1137695</ele>
        <time>2012-06-28T06:43:13Z</time>
      </trkpt>
      <trkpt lat="49.00353" lon="6.03856">
        <ele>187.5943604</ele>
        <time>2012-06-28T06:43:20Z</time>
      </trkpt>
      <trkpt lat="49.00295" lon="6.03834">
        <ele>188.0750732</ele>
        <time>2012-06-28T06:43:29Z</time>
      </trkpt>
      <trkpt lat="49.00239" lon="6.03813">
        <ele>187.5943604</ele>
        <time>2012-06-28T06:43:37Z</time>
      </trkpt>
      <trkpt lat="49.00196" lon="6.03795">
        <ele>186.6331787</ele>
        <time>2012-06-28T06:43:43Z</time>
      </trkpt>
      <trkpt lat="49.00137" lon="6.03761">
        <ele>185.1911621</ele>
        <time>2012-06-28T06:43:51Z</time>
      </trkpt>
      <trkpt lat="49.00078" lon="6.03716">
        <ele>185.6717529</ele>
        <time>2012-06-28T06:44:00Z</time>
      </trkpt>
      <trkpt lat="49.0002" lon="6.03668">
        <ele>186.6331787</ele>
        <time>2012-06-28T06:44:09Z</time>
      </trkpt>
      <trkpt lat="48.99974" lon="6.03625">
        <ele>185.6717529</ele>
        <time>2012-06-28T06:44:16Z</time>
      </trkpt>
      <trkpt lat="48.99908" lon="6.03559">
        <ele>185.6717529</ele>
        <time>2012-06-28T06:44:26Z</time>
      </trkpt>
      <trkpt lat="48.99864" lon="6.03514">
        <ele>185.6717529</ele>
        <time>2012-06-28T06:44:33Z</time>
      </trkpt>
      <trkpt lat="48.99818" lon="6.03468">
        <ele>186.1524658</ele>
        <time>2012-06-28T06:44:40Z</time>
      </trkpt>
      <trkpt lat="48.99766" lon="6.03419">
        <ele>185.1911621</ele>
        <time>2012-06-28T06:44:48Z</time>
      </trkpt>
      <trkpt lat="48.99709" lon="6.0336">
        <ele>184.2298584</ele>
        <time>2012-06-28T06:44:57Z</time>
      </trkpt>
      <trkpt lat="48.99666" lon="6.03313">
        <ele>183.7490234</ele>
        <time>2012-06-28T06:45:04Z</time>
      </trkpt>
      <trkpt lat="48.99615" lon="6.03257">
        <ele>183.7490234</ele>
        <time>2012-06-28T06:45:12Z</time>
      </trkpt>
      <trkpt lat="48.99569" lon="6.0321">
        <ele>183.2684326</ele>
        <time>2012-06-28T06:45:19Z</time>
      </trkpt>
      <trkpt lat="48.99514" lon="6.03153">
        <ele>183.2684326</ele>
        <time>2012-06-28T06:45:28Z</time>
      </trkpt>
      <trkpt lat="48.99469" lon="6.03105">
        <ele>185.1911621</ele>
        <time>2012-06-28T06:45:36Z</time>
      </trkpt>
      <trkpt lat="48.99429" lon="6.0306">
        <ele>185.1911621</ele>
        <time>2012-06-28T06:45:43Z</time>
      </trkpt>
      <trkpt lat="48.99369" lon="6.02993">
        <ele>186.1524658</ele>
        <time>2012-06-28T06:45:53Z</time>
      </trkpt>
      <trkpt lat="48.99313" lon="6.02928">
        <ele>188.0750732</ele>
        <time>2012-06-28T06:46:03Z</time>
      </trkpt>
      <trkpt lat="48.99284" lon="6.02896">
        <ele>189.5169678</ele>
        <time>2012-06-28T06:46:08Z</time>
      </trkpt>
      <trkpt lat="48.99256" lon="6.02863">
        <ele>188.5557861</ele>
        <time>2012-06-28T06:46:13Z</time>
      </trkpt>
      <trkpt lat="48.99204" lon="6.02802">
        <ele>189.5169678</ele>
        <time>2012-06-28T06:46:22Z</time>
      </trkpt>
      <trkpt lat="48.9914" lon="6.02728">
        <ele>189.9976807</ele>
        <time>2012-06-28T06:46:33Z</time>
      </trkpt>
      <trkpt lat="48.99093" lon="6.02677">
        <ele>190.4783936</ele>
        <time>2012-06-28T06:46:41Z</time>
      </trkpt>
      <trkpt lat="48.99049" lon="6.02628">
        <ele>191.4395752</ele>
        <time>2012-06-28T06:46:49Z</time>
      </trkpt>
      <trkpt lat="48.98991" lon="6.02564">
        <ele>191.9202881</ele>
        <time>2012-06-28T06:46:59Z</time>
      </trkpt>
      <trkpt lat="48.98945" lon="6.02512">
        <ele>193.3623047</ele>
        <time>2012-06-28T06:47:07Z</time>
      </trkpt>
      <trkpt lat="48.98911" lon="6.02473">
        <ele>194.8043213</ele>
        <time>2012-06-28T06:47:14Z</time>
      </trkpt>
      <trkpt lat="48.98896" lon="6.02456">
        <ele>196.2463379</ele>
        <time>2012-06-28T06:47:17Z</time>
      </trkpt>
      <trkpt lat="48.98852" lon="6.02407">
        <ele>198.1689453</ele>
        <time>2012-06-28T06:47:26Z</time>
      </trkpt>
      <trkpt lat="48.98799" lon="6.02345">
        <ele>199.130127</ele>
        <time>2012-06-28T06:47:36Z</time>
      </trkpt>
      <trkpt lat="48.98755" lon="6.02296">
        <ele>199.6108398</ele>
        <time>2012-06-28T06:47:44Z</time>
      </trkpt>
      <trkpt lat="48.98719" lon="6.02249">
        <ele>200.5722656</ele>
        <time>2012-06-28T06:47:51Z</time>
      </trkpt>
      <trkpt lat="48.98679" lon="6.02189">
        <ele>199.130127</ele>
        <time>2012-06-28T06:47:59Z</time>
      </trkpt>
      <trkpt lat="48.98651" lon="6.02146">
        <ele>197.2075195</ele>
        <time>2012-06-28T06:48:04Z</time>
      </trkpt>
      <trkpt lat="48.98614" lon="6.02088">
        <ele>195.2849121</ele>
        <time>2012-06-28T06:48:10Z</time>
      </trkpt>
      <trkpt lat="48.98607" lon="6.02078">
        <ele>195.2849121</ele>
        <time>2012-06-28T06:48:11Z</time>
      </trkpt>
      <trkpt lat="48.98594" lon="6.0206">
        <ele>194.8043213</ele>
        <time>2012-06-28T06:48:13Z</time>
      </trkpt>
      <trkpt lat="48.98551" lon="6.02037">
        <ele>193.8430176</ele>
        <time>2012-06-28T06:48:18Z</time>
      </trkpt>
      <trkpt lat="48.98478" lon="6.02026">
        <ele>192.8817139</ele>
        <time>2012-06-28T06:48:26Z</time>
      </trkpt>
      <trkpt lat="48.98436" lon="6.02015">
        <ele>190.4783936</ele>
        <time>2012-06-28T06:48:31Z</time>
      </trkpt>
      <trkpt lat="48.98428" lon="6.02012">
        <ele>190.4783936</ele>
        <time>2012-06-28T06:48:32Z</time>
      </trkpt>
      <trkpt lat="48.98399" lon="6.02002">
        <ele>189.9976807</ele>
        <time>2012-06-28T06:48:36Z</time>
      </trkpt>
      <trkpt lat="48.98372" lon="6.02015">
        <ele>189.9976807</ele>
        <time>2012-06-28T06:48:40Z</time>
      </trkpt>
      <trkpt lat="48.98368" lon="6.02038">
        <ele>189.9976807</ele>
        <time>2012-06-28T06:48:42Z</time>
      </trkpt>
      <trkpt lat="48.98345" lon="6.02128">
        <ele>189.5169678</ele>
        <time>2012-06-28T06:48:51Z</time>
      </trkpt>
      <trkpt lat="48.9833" lon="6.02173">
        <ele>188.5557861</ele>
        <time>2012-06-28T06:48:56Z</time>
      </trkpt>
      <trkpt lat="48.9831" lon="6.02228">
        <ele>188.0750732</ele>
        <time>2012-06-28T06:49:03Z</time>
      </trkpt>
      <trkpt lat="48.98304" lon="6.02248">
        <ele>187.5943604</ele>
        <time>2012-06-28T06:49:07Z</time>
      </trkpt>
      <trkpt lat="48.98298" lon="6.02263">
        <ele>187.1137695</ele>
        <time>2012-06-28T06:49:13Z</time>
      </trkpt>
      <trkpt lat="48.98297" lon="6.02266">
        <ele>187.1137695</ele>
        <time>2012-06-28T06:49:16Z</time>
      </trkpt>
      <trkpt lat="48.98294" lon="6.0228">
        <ele>187.5943604</ele>
        <time>2012-06-28T06:49:19Z</time>
      </trkpt>
      <trkpt lat="48.98288" lon="6.02288">
        <ele>187.1137695</ele>
        <time>2012-06-28T06:49:21Z</time>
      </trkpt>
      <trkpt lat="48.98264" lon="6.02294">
        <ele>187.5943604</ele>
        <time>2012-06-28T06:49:26Z</time>
      </trkpt>
      <trkpt lat="48.98235" lon="6.02293">
        <ele>189.036377</ele>
        <time>2012-06-28T06:49:31Z</time>
      </trkpt>
      <trkpt lat="48.98205" lon="6.02308">
        <ele>189.036377</ele>
        <time>2012-06-28T06:49:36Z</time>
      </trkpt>
      <trkpt lat="48.98155" lon="6.02341">
        <ele>189.036377</ele>
        <time>2012-06-28T06:49:44Z</time>
      </trkpt>
      <trkpt lat="48.98098" lon="6.02378">
        <ele>188.5557861</ele>
        <time>2012-06-28T06:49:53Z</time>
      </trkpt>
      <trkpt lat="48.98043" lon="6.02415">
        <ele>187.5943604</ele>
        <time>2012-06-28T06:50:02Z</time>
      </trkpt>
      <trkpt lat="48.97991" lon="6.02449">
        <ele>186.6331787</ele>
        <time>2012-06-28T06:50:10Z</time>
      </trkpt>
      <trkpt lat="48.97945" lon="6.02479">
        <ele>186.1524658</ele>
        <time>2012-06-28T06:50:17Z</time>
      </trkpt>
      <trkpt lat="48.97894" lon="6.02512">
        <ele>186.1524658</ele>
        <time>2012-06-28T06:50:25Z</time>
      </trkpt>
      <trkpt lat="48.97842" lon="6.02546">
        <ele>186.1524658</ele>
        <time>2012-06-28T06:50:33Z</time>
      </trkpt>
      <trkpt lat="48.97771" lon="6.02593">
        <ele>185.6717529</ele>
        <time>2012-06-28T06:50:44Z</time>
      </trkpt>
      <trkpt lat="48.97732" lon="6.02625">
        <ele>186.1524658</ele>
        <time>2012-06-28T06:50:51Z</time>
      </trkpt>
      <trkpt lat="48.97723" lon="6.02635">
        <ele>185.1911621</ele>
        <time>2012-06-28T06:50:53Z</time>
      </trkpt>
      <trkpt lat="48.97702" lon="6.02645">
        <ele>185.6717529</ele>
        <time>2012-06-28T06:50:57Z</time>
      </trkpt>
      <trkpt lat="48.97691" lon="6.02651">
        <ele>185.6717529</ele>
        <time>2012-06-28T06:50:59Z</time>
      </trkpt>
      <trkpt lat="48.97653" lon="6.02673">
        <ele>186.1524658</ele>
        <time>2012-06-28T06:51:05Z</time>
      </trkpt>
      <trkpt lat="48.97602" lon="6.02707">
        <ele>186.1524658</ele>
        <time>2012-06-28T06:51:13Z</time>
      </trkpt>
      <trkpt lat="48.97534" lon="6.02754">
        <ele>185.1911621</ele>
        <time>2012-06-28T06:51:24Z</time>
      </trkpt>
      <trkpt lat="48.97495" lon="6.02778">
        <ele>185.1911621</ele>
        <time>2012-06-28T06:51:30Z</time>
      </trkpt>
      <trkpt lat="48.97422" lon="6.02827">
        <ele>186.1524658</ele>
        <time>2012-06-28T06:51:41Z</time>
      </trkpt>
      <trkpt lat="48.97374" lon="6.02849">
        <ele>185.6717529</ele>
        <time>2012-06-28T06:51:48Z</time>
      </trkpt>
      <trkpt lat="48.97329" lon="6.02868">
        <ele>184.2298584</ele>
        <time>2012-06-28T06:51:55Z</time>
      </trkpt>
      <trkpt lat="48.97295" lon="6.02882">
        <ele>184.2298584</ele>
        <time>2012-06-28T06:52:02Z</time>
      </trkpt>
      <trkpt lat="48.97284" lon="6.02879">
        <ele>184.2298584</ele>
        <time>2012-06-28T06:52:06Z</time>
      </trkpt>
      <trkpt lat="48.97281" lon="6.02877">
        <ele>183.7490234</ele>
        <time>2012-06-28T06:52:09Z</time>
      </trkpt>
      <trkpt lat="48.97279" lon="6.02878">
        <ele>183.7490234</ele>
        <time>2012-06-28T06:52:14Z</time>
      </trkpt>
      <trkpt lat="48.97284" lon="6.02883">
        <ele>183.7490234</ele>
        <time>2012-06-28T06:53:33Z</time>
      </trkpt>
      <trkpt lat="48.97284" lon="6.02884">
        <ele>183.2684326</ele>
        <time>2012-06-28T06:53:34Z</time>
      </trkpt>
      <trkpt lat="48.97284" lon="6.02884">
        <ele>183.7490234</ele>
        <time>2012-06-28T06:53:35Z</time>
      </trkpt>
      <trkpt lat="48.97282" lon="6.02886">
        <ele>184.2298584</ele>
        <time>2012-06-28T06:54:14Z</time>
      </trkpt>
      <trkpt lat="48.97272" lon="6.02893">
        <ele>184.7105713</ele>
        <time>2012-06-28T06:54:18Z</time>
      </trkpt>
      <trkpt lat="48.97247" lon="6.02903">
        <ele>184.2298584</ele>
        <time>2012-06-28T06:54:24Z</time>
      </trkpt>
      <trkpt lat="48.97208" lon="6.0292">
        <ele>184.7105713</ele>
        <time>2012-06-28T06:54:31Z</time>
      </trkpt>
      <trkpt lat="48.97151" lon="6.02945">
        <ele>184.7105713</ele>
        <time>2012-06-28T06:54:40Z</time>
      </trkpt>
      <trkpt lat="48.97125" lon="6.02955">
        <ele>185.6717529</ele>
        <time>2012-06-28T06:54:45Z</time>
      </trkpt>
      <trkpt lat="48.97103" lon="6.02961">
        <ele>185.6717529</ele>
        <time>2012-06-28T06:54:48Z</time>
      </trkpt>
      <trkpt lat="48.97091" lon="6.02962">
        <ele>185.6717529</ele>
        <time>2012-06-28T06:54:49Z</time>
      </trkpt>
      <trkpt lat="48.97089" lon="6.02969">
        <ele>185.1911621</ele>
        <time>2012-06-28T06:54:52Z</time>
      </trkpt>
      <trkpt lat="48.97047" lon="6.0299">
        <ele>184.7105713</ele>
        <time>2012-06-28T06:54:56Z</time>
      </trkpt>
      <trkpt lat="48.97033" lon="6.02996">
        <ele>185.6717529</ele>
        <time>2012-06-28T06:54:58Z</time>
      </trkpt>
      <trkpt lat="48.96973" lon="6.03025">
        <ele>184.7105713</ele>
        <time>2012-06-28T06:55:07Z</time>
      </trkpt>
      <trkpt lat="48.96899" lon="6.03058">
        <ele>184.2298584</ele>
        <time>2012-06-28T06:55:18Z</time>
      </trkpt>
      <trkpt lat="48.96827" lon="6.0309">
        <ele>185.1911621</ele>
        <time>2012-06-28T06:55:29Z</time>
      </trkpt>
      <trkpt lat="48.96773" lon="6.03115">
        <ele>185.1911621</ele>
        <time>2012-06-28T06:55:37Z</time>
      </trkpt>
      <trkpt lat="48.9669" lon="6.03153">
        <ele>184.7105713</ele>
        <time>2012-06-28T06:55:49Z</time>
      </trkpt>
      <trkpt lat="48.96623" lon="6.03185">
        <ele>182.3071289</ele>
        <time>2012-06-28T06:55:59Z</time>
      </trkpt>
      <trkpt lat="48.96553" lon="6.03217">
        <ele>183.2684326</ele>
        <time>2012-06-28T06:56:09Z</time>
      </trkpt>
      <trkpt lat="48.96526" lon="6.03229">
        <ele>182.3071289</ele>
        <time>2012-06-28T06:56:13Z</time>
      </trkpt>
      <trkpt lat="48.96492" lon="6.03245">
        <ele>183.7490234</ele>
        <time>2012-06-28T06:56:18Z</time>
      </trkpt>
      <trkpt lat="48.96436" lon="6.0327">
        <ele>183.2684326</ele>
        <time>2012-06-28T06:56:26Z</time>
      </trkpt>
      <trkpt lat="48.96374" lon="6.03298">
        <ele>183.7490234</ele>
        <time>2012-06-28T06:56:35Z</time>
      </trkpt>
      <trkpt lat="48.9634" lon="6.03314">
        <ele>182.3071289</ele>
        <time>2012-06-28T06:56:40Z</time>
      </trkpt>
      <trkpt lat="48.96286" lon="6.03341">
        <ele>183.7490234</ele>
        <time>2012-06-28T06:56:48Z</time>
      </trkpt>
      <trkpt lat="48.96279" lon="6.03343">
        <ele>183.7490234</ele>
        <time>2012-06-28T06:56:49Z</time>
      </trkpt>
      <trkpt lat="48.96244" lon="6.03361">
        <ele>182.7878418</ele>
        <time>2012-06-28T06:56:54Z</time>
      </trkpt>
      <trkpt lat="48.96232" lon="6.03367">
        <ele>182.7878418</ele>
        <time>2012-06-28T06:56:56Z</time>
      </trkpt>
      <trkpt lat="48.96224" lon="6.03375">
        <ele>183.7490234</ele>
        <time>2012-06-28T06:56:58Z</time>
      </trkpt>
      <trkpt lat="48.96194" lon="6.03395">
        <ele>183.2684326</ele>
        <time>2012-06-28T06:57:04Z</time>
      </trkpt>
      <trkpt lat="48.96115" lon="6.03419">
        <ele>183.2684326</ele>
        <time>2012-06-28T06:57:13Z</time>
      </trkpt>
      <trkpt lat="48.96055" lon="6.03445">
        <ele>183.7490234</ele>
        <time>2012-06-28T06:57:22Z</time>
      </trkpt>
      <trkpt lat="48.95999" lon="6.03471">
        <ele>183.7490234</ele>
        <time>2012-06-28T06:57:31Z</time>
      </trkpt>
      <trkpt lat="48.95935" lon="6.03502">
        <ele>183.2684326</ele>
        <time>2012-06-28T06:57:41Z</time>
      </trkpt>
      <trkpt lat="48.95871" lon="6.03532">
        <ele>184.7105713</ele>
        <time>2012-06-28T06:57:51Z</time>
      </trkpt>
      <trkpt lat="48.95809" lon="6.03561">
        <ele>184.7105713</ele>
        <time>2012-06-28T06:58:01Z</time>
      </trkpt>
      <trkpt lat="48.95754" lon="6.03586">
        <ele>185.6717529</ele>
        <time>2012-06-28T06:58:10Z</time>
      </trkpt>
      <trkpt lat="48.95696" lon="6.03613">
        <ele>186.1524658</ele>
        <time>2012-06-28T06:58:19Z</time>
      </trkpt>
      <trkpt lat="48.95648" lon="6.0363">
        <ele>186.6331787</ele>
        <time>2012-06-28T06:58:26Z</time>
      </trkpt>
      <trkpt lat="48.95601" lon="6.03638">
        <ele>185.6717529</ele>
        <time>2012-06-28T06:58:33Z</time>
      </trkpt>
      <trkpt lat="48.95549" lon="6.03647">
        <ele>185.6717529</ele>
        <time>2012-06-28T06:58:41Z</time>
      </trkpt>
      <trkpt lat="48.95507" lon="6.03657">
        <ele>185.1911621</ele>
        <time>2012-06-28T06:58:48Z</time>
      </trkpt>
      <trkpt lat="48.95481" lon="6.03665">
        <ele>185.6717529</ele>
        <time>2012-06-28T06:58:53Z</time>
      </trkpt>
      <trkpt lat="48.95466" lon="6.03651">
        <ele>185.1911621</ele>
        <time>2012-06-28T06:58:57Z</time>
      </trkpt>
      <trkpt lat="48.95464" lon="6.03643">
        <ele>185.1911621</ele>
        <time>2012-06-28T06:58:58Z</time>
      </trkpt>
      <trkpt lat="48.95444" lon="6.03574">
        <ele>185.1911621</ele>
        <time>2012-06-28T06:59:06Z</time>
      </trkpt>
      <trkpt lat="48.95426" lon="6.03517">
        <ele>185.6717529</ele>
        <time>2012-06-28T06:59:13Z</time>
      </trkpt>
      <trkpt lat="48.95423" lon="6.03499">
        <ele>185.1911621</ele>
        <time>2012-06-28T06:59:15Z</time>
      </trkpt>
      <trkpt lat="48.9542" lon="6.03441">
        <ele>185.1911621</ele>
        <time>2012-06-28T06:59:21Z</time>
      </trkpt>
      <trkpt lat="48.95423" lon="6.0336">
        <ele>185.6717529</ele>
        <time>2012-06-28T06:59:30Z</time>
      </trkpt>
      <trkpt lat="48.95419" lon="6.03293">
        <ele>186.1524658</ele>
        <time>2012-06-28T06:59:37Z</time>
      </trkpt>
      <trkpt lat="48.95416" lon="6.03238">
        <ele>187.1137695</ele>
        <time>2012-06-28T06:59:43Z</time>
      </trkpt>
      <trkpt lat="48.95415" lon="6.03213">
        <ele>188.5557861</ele>
        <time>2012-06-28T06:59:46Z</time>
      </trkpt>
      <trkpt lat="48.95425" lon="6.03188">
        <ele>189.036377</ele>
        <time>2012-06-28T06:59:50Z</time>
      </trkpt>
      <trkpt lat="48.95429" lon="6.03184">
        <ele>189.036377</ele>
        <time>2012-06-28T06:59:51Z</time>
      </trkpt>
      <trkpt lat="48.95452" lon="6.03139">
        <ele>191.4395752</ele>
        <time>2012-06-28T06:59:58Z</time>
      </trkpt>
      <trkpt lat="48.95454" lon="6.03114">
        <ele>191.4395752</ele>
        <time>2012-06-28T07:00:01Z</time>
      </trkpt>
      <trkpt lat="48.95437" lon="6.03027">
        <ele>191.9202881</ele>
        <time>2012-06-28T07:00:11Z</time>
      </trkpt>
      <trkpt lat="48.95423" lon="6.02943">
        <ele>191.9202881</ele>
        <time>2012-06-28T07:00:20Z</time>
      </trkpt>
      <trkpt lat="48.95409" lon="6.02866">
        <ele>191.9202881</ele>
        <time>2012-06-28T07:00:28Z</time>
      </trkpt>
      <trkpt lat="48.95398" lon="6.02808">
        <ele>192.8817139</ele>
        <time>2012-06-28T07:00:34Z</time>
      </trkpt>
      <trkpt lat="48.95383" lon="6.02763">
        <ele>192.401123</ele>
        <time>2012-06-28T07:00:39Z</time>
      </trkpt>
      <trkpt lat="48.95352" lon="6.02695">
        <ele>193.3623047</ele>
        <time>2012-06-28T07:00:47Z</time>
      </trkpt>
      <trkpt lat="48.95319" lon="6.02618">
        <ele>193.8430176</ele>
        <time>2012-06-28T07:00:56Z</time>
      </trkpt>
      <trkpt lat="48.9528" lon="6.02521">
        <ele>194.3237305</ele>
        <time>2012-06-28T07:01:07Z</time>
      </trkpt>
      <trkpt lat="48.9525" lon="6.02453">
        <ele>194.8043213</ele>
        <time>2012-06-28T07:01:15Z</time>
      </trkpt>
      <trkpt lat="48.9522" lon="6.02386">
        <ele>195.765625</ele>
        <time>2012-06-28T07:01:23Z</time>
      </trkpt>
      <trkpt lat="48.95184" lon="6.02302">
        <ele>195.765625</ele>
        <time>2012-06-28T07:01:33Z</time>
      </trkpt>
      <trkpt lat="48.95157" lon="6.0222">
        <ele>196.2463379</ele>
        <time>2012-06-28T07:01:42Z</time>
      </trkpt>
      <trkpt lat="48.95135" lon="6.02134">
        <ele>197.2075195</ele>
        <time>2012-06-28T07:01:51Z</time>
      </trkpt>
      <trkpt lat="48.95121" lon="6.02055">
        <ele>197.2075195</ele>
        <time>2012-06-28T07:01:59Z</time>
      </trkpt>
      <trkpt lat="48.9511" lon="6.01954">
        <ele>198.1689453</ele>
        <time>2012-06-28T07:02:09Z</time>
      </trkpt>
      <trkpt lat="48.95097" lon="6.01876">
        <ele>198.6495361</ele>
        <time>2012-06-28T07:02:17Z</time>
      </trkpt>
      <trkpt lat="48.95072" lon="6.01788">
        <ele>199.130127</ele>
        <time>2012-06-28T07:02:26Z</time>
      </trkpt>
      <trkpt lat="48.95046" lon="6.01706">
        <ele>200.5722656</ele>
        <time>2012-06-28T07:02:35Z</time>
      </trkpt>
      <trkpt lat="48.95019" lon="6.01623">
        <ele>201.0528564</ele>
        <time>2012-06-28T07:02:44Z</time>
      </trkpt>
      <trkpt lat="48.94989" lon="6.0154">
        <ele>202.0142822</ele>
        <time>2012-06-28T07:02:53Z</time>
      </trkpt>
      <trkpt lat="48.94946" lon="6.01441">
        <ele>202.9754639</ele>
        <time>2012-06-28T07:03:04Z</time>
      </trkpt>
      <trkpt lat="48.94939" lon="6.01425">
        <ele>202.9754639</ele>
        <time>2012-06-28T07:03:06Z</time>
      </trkpt>
      <trkpt lat="48.94918" lon="6.014">
        <ele>203.9368896</ele>
        <time>2012-06-28T07:03:10Z</time>
      </trkpt>
      <trkpt lat="48.94885" lon="6.01375">
        <ele>205.8594971</ele>
        <time>2012-06-28T07:03:16Z</time>
      </trkpt>
      <trkpt lat="48.94876" lon="6.01364">
        <ele>206.8206787</ele>
        <time>2012-06-28T07:03:18Z</time>
      </trkpt>
      <trkpt lat="48.94846" lon="6.0132">
        <ele>206.8206787</ele>
        <time>2012-06-28T07:03:25Z</time>
      </trkpt>
      <trkpt lat="48.94815" lon="6.01256">
        <ele>206.8206787</ele>
        <time>2012-06-28T07:03:33Z</time>
      </trkpt>
      <trkpt lat="48.94788" lon="6.01198">
        <ele>206.8206787</ele>
        <time>2012-06-28T07:03:40Z</time>
      </trkpt>
      <trkpt lat="48.94756" lon="6.01123">
        <ele>207.7821045</ele>
        <time>2012-06-28T07:03:48Z</time>
      </trkpt>
      <trkpt lat="48.94724" lon="6.01039">
        <ele>208.2628174</ele>
        <time>2012-06-28T07:03:57Z</time>
      </trkpt>
      <trkpt lat="48.94695" lon="6.00964">
        <ele>207.7821045</ele>
        <time>2012-06-28T07:04:05Z</time>
      </trkpt>
      <trkpt lat="48.94664" lon="6.00875">
        <ele>208.2628174</ele>
        <time>2012-06-28T07:04:14Z</time>
      </trkpt>
      <trkpt lat="48.94641" lon="6.00796">
        <ele>208.2628174</ele>
        <time>2012-06-28T07:04:22Z</time>
      </trkpt>
      <trkpt lat="48.94619" lon="6.00711">
        <ele>207.7821045</ele>
        <time>2012-06-28T07:04:30Z</time>
      </trkpt>
      <trkpt lat="48.94598" lon="6.00627">
        <ele>207.3013916</ele>
        <time>2012-06-28T07:04:38Z</time>
      </trkpt>
      <trkpt lat="48.94584" lon="6.00565">
        <ele>207.3013916</ele>
        <time>2012-06-28T07:04:44Z</time>
      </trkpt>
      <trkpt lat="48.94562" lon="6.0046">
        <ele>208.7434082</ele>
        <time>2012-06-28T07:04:54Z</time>
      </trkpt>
      <trkpt lat="48.94542" lon="6.00363">
        <ele>210.1854248</ele>
        <time>2012-06-28T07:05:04Z</time>
      </trkpt>
      <trkpt lat="48.94528" lon="6.00293">
        <ele>211.1467285</ele>
        <time>2012-06-28T07:05:11Z</time>
      </trkpt>
      <trkpt lat="48.94506" lon="6.00246">
        <ele>210.6660156</ele>
        <time>2012-06-28T07:05:17Z</time>
      </trkpt>
      <trkpt lat="48.94476" lon="6.00192">
        <ele>211.1467285</ele>
        <time>2012-06-28T07:05:24Z</time>
      </trkpt>
      <trkpt lat="48.94442" lon="6.0013">
        <ele>211.6274414</ele>
        <time>2012-06-28T07:05:32Z</time>
      </trkpt>
      <trkpt lat="48.94414" lon="6.00073">
        <ele>212.1080322</ele>
        <time>2012-06-28T07:05:39Z</time>
      </trkpt>
      <trkpt lat="48.94389" lon="6.00008">
        <ele>212.1080322</ele>
        <time>2012-06-28T07:05:46Z</time>
      </trkpt>
      <trkpt lat="48.94357" lon="5.9993">
        <ele>212.1080322</ele>
        <time>2012-06-28T07:05:54Z</time>
      </trkpt>
      <trkpt lat="48.94338" lon="5.99869">
        <ele>211.1467285</ele>
        <time>2012-06-28T07:06:00Z</time>
      </trkpt>
      <trkpt lat="48.94324" lon="5.99792">
        <ele>211.6274414</ele>
        <time>2012-06-28T07:06:07Z</time>
      </trkpt>
      <trkpt lat="48.94318" lon="5.99725">
        <ele>212.1080322</ele>
        <time>2012-06-28T07:06:13Z</time>
      </trkpt>
      <trkpt lat="48.94312" lon="5.99629">
        <ele>213.0693359</ele>
        <time>2012-06-28T07:06:22Z</time>
      </trkpt>
      <trkpt lat="48.94304" lon="5.99547">
        <ele>214.5112305</ele>
        <time>2012-06-28T07:06:30Z</time>
      </trkpt>
      <trkpt lat="48.94301" lon="5.99445">
        <ele>214.9919434</ele>
        <time>2012-06-28T07:06:40Z</time>
      </trkpt>
      <trkpt lat="48.94291" lon="5.99388">
        <ele>215.9532471</ele>
        <time>2012-06-28T07:06:46Z</time>
      </trkpt>
      <trkpt lat="48.94266" lon="5.99322">
        <ele>217.8759766</ele>
        <time>2012-06-28T07:06:54Z</time>
      </trkpt>
      <trkpt lat="48.9424" lon="5.99256">
        <ele>218.3565674</ele>
        <time>2012-06-28T07:07:02Z</time>
      </trkpt>
      <trkpt lat="48.94222" lon="5.99193">
        <ele>220.2791748</ele>
        <time>2012-06-28T07:07:09Z</time>
      </trkpt>
      <trkpt lat="48.94201" lon="5.99117">
        <ele>220.7598877</ele>
        <time>2012-06-28T07:07:17Z</time>
      </trkpt>
      <trkpt lat="48.94192" lon="5.99092">
        <ele>222.2017822</ele>
        <time>2012-06-28T07:07:20Z</time>
      </trkpt>
      <trkpt lat="48.94175" lon="5.9904">
        <ele>222.2017822</ele>
        <time>2012-06-28T07:07:26Z</time>
      </trkpt>
      <trkpt lat="48.94157" lon="5.98969">
        <ele>222.6824951</ele>
        <time>2012-06-28T07:07:33Z</time>
      </trkpt>
      <trkpt lat="48.94135" lon="5.98866">
        <ele>223.6437988</ele>
        <time>2012-06-28T07:07:43Z</time>
      </trkpt>
      <trkpt lat="48.94112" lon="5.98787">
        <ele>223.163208</ele>
        <time>2012-06-28T07:07:51Z</time>
      </trkpt>
      <trkpt lat="48.94085" lon="5.98694">
        <ele>223.163208</ele>
        <time>2012-06-28T07:08:00Z</time>
      </trkpt>
      <trkpt lat="48.94057" lon="5.98613">
        <ele>223.6437988</ele>
        <time>2012-06-28T07:08:08Z</time>
      </trkpt>
      <trkpt lat="48.94041" lon="5.98548">
        <ele>223.6437988</ele>
        <time>2012-06-28T07:08:14Z</time>
      </trkpt>
      <trkpt lat="48.9404" lon="5.985">
        <ele>223.163208</ele>
        <time>2012-06-28T07:08:18Z</time>
      </trkpt>
      <trkpt lat="48.94044" lon="5.98403">
        <ele>223.6437988</ele>
        <time>2012-06-28T07:08:26Z</time>
      </trkpt>
      <trkpt lat="48.94048" lon="5.98315">
        <ele>224.6052246</ele>
        <time>2012-06-28T07:08:34Z</time>
      </trkpt>
      <trkpt lat="48.94039" lon="5.98271">
        <ele>225.0859375</ele>
        <time>2012-06-28T07:08:38Z</time>
      </trkpt>
      <trkpt lat="48.94012" lon="5.98207">
        <ele>225.5665283</ele>
        <time>2012-06-28T07:08:45Z</time>
      </trkpt>
      <trkpt lat="48.93985" lon="5.98144">
        <ele>227.9697266</ele>
        <time>2012-06-28T07:08:53Z</time>
      </trkpt>
      <trkpt lat="48.93955" lon="5.98085">
        <ele>230.3730469</ele>
        <time>2012-06-28T07:09:01Z</time>
      </trkpt>
      <trkpt lat="48.9393" lon="5.98056">
        <ele>231.3343506</ele>
        <time>2012-06-28T07:09:06Z</time>
      </trkpt>
      <trkpt lat="48.9388" lon="5.98011">
        <ele>232.2957764</ele>
        <time>2012-06-28T07:09:15Z</time>
      </trkpt>
      <trkpt lat="48.93841" lon="5.97965">
        <ele>233.2570801</ele>
        <time>2012-06-28T07:09:23Z</time>
      </trkpt>
      <trkpt lat="48.93804" lon="5.97926">
        <ele>233.7376709</ele>
        <time>2012-06-28T07:09:30Z</time>
      </trkpt>
      <trkpt lat="48.93746" lon="5.97889">
        <ele>234.2183838</ele>
        <time>2012-06-28T07:09:39Z</time>
      </trkpt>
      <trkpt lat="48.93682" lon="5.97846">
        <ele>234.6990967</ele>
        <time>2012-06-28T07:09:49Z</time>
      </trkpt>
      <trkpt lat="48.93671" lon="5.97833">
        <ele>235.1796875</ele>
        <time>2012-06-28T07:09:51Z</time>
      </trkpt>
      <trkpt lat="48.9364" lon="5.9778">
        <ele>235.6602783</ele>
        <time>2012-06-28T07:09:58Z</time>
      </trkpt>
      <trkpt lat="48.93615" lon="5.97721">
        <ele>236.6217041</ele>
        <time>2012-06-28T07:10:05Z</time>
      </trkpt>
      <trkpt lat="48.93591" lon="5.97663">
        <ele>239.9862061</ele>
        <time>2012-06-28T07:10:12Z</time>
      </trkpt>
      <trkpt lat="48.9357" lon="5.97604">
        <ele>241.4282227</ele>
        <time>2012-06-28T07:10:19Z</time>
      </trkpt>
      <trkpt lat="48.93537" lon="5.97519">
        <ele>242.8702393</ele>
        <time>2012-06-28T07:10:29Z</time>
      </trkpt>
      <trkpt lat="48.9351" lon="5.97445">
        <ele>243.3508301</ele>
        <time>2012-06-28T07:10:38Z</time>
      </trkpt>
      <trkpt lat="48.9349" lon="5.97378">
        <ele>245.7541504</ele>
        <time>2012-06-28T07:10:46Z</time>
      </trkpt>
      <trkpt lat="48.93488" lon="5.9737">
        <ele>245.7541504</ele>
        <time>2012-06-28T07:10:47Z</time>
      </trkpt>
      <trkpt lat="48.93486" lon="5.97325">
        <ele>246.7154541</ele>
        <time>2012-06-28T07:10:52Z</time>
      </trkpt>
      <trkpt lat="48.93487" lon="5.97316">
        <ele>246.7154541</ele>
        <time>2012-06-28T07:10:53Z</time>
      </trkpt>
      <trkpt lat="48.93501" lon="5.97255">
        <ele>248.6381836</ele>
        <time>2012-06-28T07:11:00Z</time>
      </trkpt>
      <trkpt lat="48.93502" lon="5.97216">
        <ele>249.5994873</ele>
        <time>2012-06-28T07:11:05Z</time>
      </trkpt>
      <trkpt lat="48.935" lon="5.97208">
        <ele>249.5994873</ele>
        <time>2012-06-28T07:11:06Z</time>
      </trkpt>
      <trkpt lat="48.93484" lon="5.97166">
        <ele>252.0028076</ele>
        <time>2012-06-28T07:11:13Z</time>
      </trkpt>
      <trkpt lat="48.93461" lon="5.97125">
        <ele>254.4060059</ele>
        <time>2012-06-28T07:11:21Z</time>
      </trkpt>
      <trkpt lat="48.93442" lon="5.97092">
        <ele>255.3673096</ele>
        <time>2012-06-28T07:11:28Z</time>
      </trkpt>
      <trkpt lat="48.93434" lon="5.97073">
        <ele>255.8480225</ele>
        <time>2012-06-28T07:11:31Z</time>
      </trkpt>
      <trkpt lat="48.93427" lon="5.97036">
        <ele>256.8093262</ele>
        <time>2012-06-28T07:11:36Z</time>
      </trkpt>
      <trkpt lat="48.93423" lon="5.96967">
        <ele>259.2126465</ele>
        <time>2012-06-28T07:11:45Z</time>
      </trkpt>
      <trkpt lat="48.93419" lon="5.96908">
        <ele>259.6933594</ele>
        <time>2012-06-28T07:11:53Z</time>
      </trkpt>
      <trkpt lat="48.93404" lon="5.96836">
        <ele>260.654541</ele>
        <time>2012-06-28T07:12:02Z</time>
      </trkpt>
      <trkpt lat="48.93391" lon="5.96774">
        <ele>259.2126465</ele>
        <time>2012-06-28T07:12:08Z</time>
      </trkpt>
      <trkpt lat="48.93389" lon="5.96716">
        <ele>259.6933594</ele>
        <time>2012-06-28T07:12:13Z</time>
      </trkpt>
      <trkpt lat="48.93388" lon="5.96654">
        <ele>260.1739502</ele>
        <time>2012-06-28T07:12:19Z</time>
      </trkpt>
      <trkpt lat="48.93382" lon="5.96594">
        <ele>261.6159668</ele>
        <time>2012-06-28T07:12:26Z</time>
      </trkpt>
      <trkpt lat="48.93367" lon="5.96529">
        <ele>263.5385742</ele>
        <time>2012-06-28T07:12:35Z</time>
      </trkpt>
      <trkpt lat="48.93356" lon="5.96473">
        <ele>264.4998779</ele>
        <time>2012-06-28T07:12:43Z</time>
      </trkpt>
      <trkpt lat="48.9335" lon="5.9642">
        <ele>267.3839111</ele>
        <time>2012-06-28T07:12:51Z</time>
      </trkpt>
      <trkpt lat="48.9335" lon="5.96362">
        <ele>269.7871094</ele>
        <time>2012-06-28T07:13:00Z</time>
      </trkpt>
      <trkpt lat="48.93355" lon="5.96316">
        <ele>272.1904297</ele>
        <time>2012-06-28T07:13:08Z</time>
      </trkpt>
      <trkpt lat="48.93366" lon="5.96273">
        <ele>274.59375</ele>
        <time>2012-06-28T07:13:16Z</time>
      </trkpt>
      <trkpt lat="48.9338" lon="5.96235">
        <ele>276.5163574</ele>
        <time>2012-06-28T07:13:24Z</time>
      </trkpt>
      <trkpt lat="48.93398" lon="5.96196">
        <ele>278.4389648</ele>
        <time>2012-06-28T07:13:33Z</time>
      </trkpt>
      <trkpt lat="48.93416" lon="5.96158">
        <ele>280.8424072</ele>
        <time>2012-06-28T07:13:42Z</time>
      </trkpt>
      <trkpt lat="48.9343" lon="5.96131">
        <ele>282.2843018</ele>
        <time>2012-06-28T07:13:49Z</time>
      </trkpt>
      <trkpt lat="48.93448" lon="5.961">
        <ele>283.2456055</ele>
        <time>2012-06-28T07:13:57Z</time>
      </trkpt>
      <trkpt lat="48.93469" lon="5.96075">
        <ele>285.6488037</ele>
        <time>2012-06-28T07:14:05Z</time>
      </trkpt>
      <trkpt lat="48.93494" lon="5.9605">
        <ele>286.6102295</ele>
        <time>2012-06-28T07:14:13Z</time>
      </trkpt>
      <trkpt lat="48.93518" lon="5.96021">
        <ele>289.0135498</ele>
        <time>2012-06-28T07:14:21Z</time>
      </trkpt>
      <trkpt lat="48.93542" lon="5.95988">
        <ele>289.9748535</ele>
        <time>2012-06-28T07:14:29Z</time>
      </trkpt>
      <trkpt lat="48.93565" lon="5.95948">
        <ele>291.416748</ele>
        <time>2012-06-28T07:14:37Z</time>
      </trkpt>
      <trkpt lat="48.9359" lon="5.95902">
        <ele>292.3781738</ele>
        <time>2012-06-28T07:14:45Z</time>
      </trkpt>
      <trkpt lat="48.93616" lon="5.95863">
        <ele>291.8974609</ele>
        <time>2012-06-28T07:14:52Z</time>
      </trkpt>
      <trkpt lat="48.93642" lon="5.95826">
        <ele>292.3781738</ele>
        <time>2012-06-28T07:14:59Z</time>
      </trkpt>
      <trkpt lat="48.9366" lon="5.958">
        <ele>293.8200684</ele>
        <time>2012-06-28T07:15:04Z</time>
      </trkpt>
      <trkpt lat="48.93683" lon="5.95758">
        <ele>295.7426758</ele>
        <time>2012-06-28T07:15:12Z</time>
      </trkpt>
      <trkpt lat="48.93713" lon="5.95713">
        <ele>296.2235107</ele>
        <time>2012-06-28T07:15:20Z</time>
      </trkpt>
      <trkpt lat="48.9372" lon="5.957">
        <ele>296.2235107</ele>
        <time>2012-06-28T07:15:22Z</time>
      </trkpt>
      <trkpt lat="48.93728" lon="5.95688">
        <ele>295.7426758</ele>
        <time>2012-06-28T07:15:24Z</time>
      </trkpt>
      <trkpt lat="48.93761" lon="5.95636">
        <ele>295.7426758</ele>
        <time>2012-06-28T07:15:32Z</time>
      </trkpt>
      <trkpt lat="48.93786" lon="5.9561">
        <ele>295.7426758</ele>
        <time>2012-06-28T07:15:37Z</time>
      </trkpt>
      <trkpt lat="48.93816" lon="5.95582">
        <ele>296.2235107</ele>
        <time>2012-06-28T07:15:43Z</time>
      </trkpt>
      <trkpt lat="48.9382" lon="5.95577">
        <ele>296.2235107</ele>
        <time>2012-06-28T07:15:44Z</time>
      </trkpt>
      <trkpt lat="48.93862" lon="5.95538">
        <ele>297.1846924</ele>
        <time>2012-06-28T07:15:52Z</time>
      </trkpt>
      <trkpt lat="48.93873" lon="5.95527">
        <ele>298.1461182</ele>
        <time>2012-06-28T07:15:54Z</time>
      </trkpt>
      <trkpt lat="48.93896" lon="5.95494">
        <ele>298.1461182</ele>
        <time>2012-06-28T07:15:59Z</time>
      </trkpt>
      <trkpt lat="48.93929" lon="5.95447">
        <ele>296.7041016</ele>
        <time>2012-06-28T07:16:05Z</time>
      </trkpt>
      <trkpt lat="48.93961" lon="5.95404">
        <ele>294.3007813</ele>
        <time>2012-06-28T07:16:10Z</time>
      </trkpt>
      <trkpt lat="48.9399" lon="5.95363">
        <ele>293.8200684</ele>
        <time>2012-06-28T07:16:15Z</time>
      </trkpt>
      <trkpt lat="48.94011" lon="5.95348">
        <ele>294.7813721</ele>
        <time>2012-06-28T07:16:18Z</time>
      </trkpt>
      <trkpt lat="48.94051" lon="5.95333">
        <ele>295.7426758</ele>
        <time>2012-06-28T07:16:24Z</time>
      </trkpt>
      <trkpt lat="48.94077" lon="5.95326">
        <ele>296.7041016</ele>
        <time>2012-06-28T07:16:29Z</time>
      </trkpt>
      <trkpt lat="48.94101" lon="5.95322">
        <ele>298.1461182</ele>
        <time>2012-06-28T07:16:34Z</time>
      </trkpt>
      <trkpt lat="48.94122" lon="5.95313">
        <ele>299.5880127</ele>
        <time>2012-06-28T07:16:39Z</time>
      </trkpt>
      <trkpt lat="48.94143" lon="5.9529">
        <ele>301.0299072</ele>
        <time>2012-06-28T07:16:45Z</time>
      </trkpt>
      <trkpt lat="48.94161" lon="5.95259">
        <ele>301.991333</ele>
        <time>2012-06-28T07:16:51Z</time>
      </trkpt>
      <trkpt lat="48.94174" lon="5.95231">
        <ele>303.4332275</ele>
        <time>2012-06-28T07:16:56Z</time>
      </trkpt>
      <trkpt lat="48.94188" lon="5.95187">
        <ele>304.3946533</ele>
        <time>2012-06-28T07:17:03Z</time>
      </trkpt>
      <trkpt lat="48.94193" lon="5.95163">
        <ele>304.8752441</ele>
        <time>2012-06-28T07:17:07Z</time>
      </trkpt>
      <trkpt lat="48.94205" lon="5.95117">
        <ele>307.2785645</ele>
        <time>2012-06-28T07:17:15Z</time>
      </trkpt>
      <trkpt lat="48.94209" lon="5.95081">
        <ele>307.7592773</ele>
        <time>2012-06-28T07:17:21Z</time>
      </trkpt>
      <trkpt lat="48.94204" lon="5.95046">
        <ele>308.720459</ele>
        <time>2012-06-28T07:17:26Z</time>
      </trkpt>
      <trkpt lat="48.94206" lon="5.95016">
        <ele>309.2011719</ele>
        <time>2012-06-28T07:17:31Z</time>
      </trkpt>
      <trkpt lat="48.94203" lon="5.94994">
        <ele>310.1624756</ele>
        <time>2012-06-28T07:17:35Z</time>
      </trkpt>
      <trkpt lat="48.94196" lon="5.94948">
        <ele>310.1624756</ele>
        <time>2012-06-28T07:17:42Z</time>
      </trkpt>
      <trkpt lat="48.94192" lon="5.9491">
        <ele>312.0852051</ele>
        <time>2012-06-28T07:17:48Z</time>
      </trkpt>
      <trkpt lat="48.94198" lon="5.94865">
        <ele>313.0465088</ele>
        <time>2012-06-28T07:17:55Z</time>
      </trkpt>
      <trkpt lat="48.94208" lon="5.94826">
        <ele>314.9691162</ele>
        <time>2012-06-28T07:18:02Z</time>
      </trkpt>
      <trkpt lat="48.94214" lon="5.94788">
        <ele>316.4110107</ele>
        <time>2012-06-28T07:18:08Z</time>
      </trkpt>
      <trkpt lat="48.94221" lon="5.94759">
        <ele>317.3724365</ele>
        <time>2012-06-28T07:18:13Z</time>
      </trkpt>
      <trkpt lat="48.94229" lon="5.94714">
        <ele>317.8530273</ele>
        <time>2012-06-28T07:18:20Z</time>
      </trkpt>
      <trkpt lat="48.94232" lon="5.94674">
        <ele>318.3336182</ele>
        <time>2012-06-28T07:18:26Z</time>
      </trkpt>
      <trkpt lat="48.94233" lon="5.94659">
        <ele>318.8143311</ele>
        <time>2012-06-28T07:18:28Z</time>
      </trkpt>
      <trkpt lat="48.94238" lon="5.94619">
        <ele>319.7756348</ele>
        <time>2012-06-28T07:18:34Z</time>
      </trkpt>
      <trkpt lat="48.94247" lon="5.94571">
        <ele>321.6983643</ele>
        <time>2012-06-28T07:18:41Z</time>
      </trkpt>
      <trkpt lat="48.94255" lon="5.94544">
        <ele>321.6983643</ele>
        <time>2012-06-28T07:18:45Z</time>
      </trkpt>
      <trkpt lat="48.94265" lon="5.94492">
        <ele>322.1789551</ele>
        <time>2012-06-28T07:18:52Z</time>
      </trkpt>
      <trkpt lat="48.94271" lon="5.94469">
        <ele>322.1789551</ele>
        <time>2012-06-28T07:18:55Z</time>
      </trkpt>
      <trkpt lat="48.94289" lon="5.94403">
        <ele>324.5822754</ele>
        <time>2012-06-28T07:19:04Z</time>
      </trkpt>
      <trkpt lat="48.94314" lon="5.94337">
        <ele>325.0629883</ele>
        <time>2012-06-28T07:19:14Z</time>
      </trkpt>
      <trkpt lat="48.94321" lon="5.94325">
        <ele>326.0241699</ele>
        <time>2012-06-28T07:19:16Z</time>
      </trkpt>
      <trkpt lat="48.94354" lon="5.94277">
        <ele>327.9467773</ele>
        <time>2012-06-28T07:19:25Z</time>
      </trkpt>
      <trkpt lat="48.94379" lon="5.94239">
        <ele>331.3115234</ele>
        <time>2012-06-28T07:19:33Z</time>
      </trkpt>
      <trkpt lat="48.9441" lon="5.94199">
        <ele>333.2341309</ele>
        <time>2012-06-28T07:19:42Z</time>
      </trkpt>
      <trkpt lat="48.9444" lon="5.94166">
        <ele>335.1567383</ele>
        <time>2012-06-28T07:19:50Z</time>
      </trkpt>
      <trkpt lat="48.94476" lon="5.94126">
        <ele>335.1567383</ele>
        <time>2012-06-28T07:19:59Z</time>
      </trkpt>
      <trkpt lat="48.94513" lon="5.94085">
        <ele>337.0794678</ele>
        <time>2012-06-28T07:20:08Z</time>
      </trkpt>
      <trkpt lat="48.94526" lon="5.94062">
        <ele>337.5600586</ele>
        <time>2012-06-28T07:20:12Z</time>
      </trkpt>
      <trkpt lat="48.94536" lon="5.94029">
        <ele>336.598877</ele>
        <time>2012-06-28T07:20:16Z</time>
      </trkpt>
      <trkpt lat="48.94539" lon="5.94">
        <ele>336.598877</ele>
        <time>2012-06-28T07:20:19Z</time>
      </trkpt>
      <trkpt lat="48.94533" lon="5.93929">
        <ele>336.598877</ele>
        <time>2012-06-28T07:20:26Z</time>
      </trkpt>
      <trkpt lat="48.94522" lon="5.93875">
        <ele>338.0407715</ele>
        <time>2012-06-28T07:20:32Z</time>
      </trkpt>
      <trkpt lat="48.94511" lon="5.93834">
        <ele>341.4052734</ele>
        <time>2012-06-28T07:20:38Z</time>
      </trkpt>
      <trkpt lat="48.94507" lon="5.93826">
        <ele>341.4052734</ele>
        <time>2012-06-28T07:20:39Z</time>
      </trkpt>
      <trkpt lat="48.94488" lon="5.93768">
        <ele>342.84729</ele>
        <time>2012-06-28T07:20:48Z</time>
      </trkpt>
      <trkpt lat="48.94474" lon="5.93724">
        <ele>345.7313232</ele>
        <time>2012-06-28T07:20:55Z</time>
      </trkpt>
      <trkpt lat="48.94459" lon="5.93677">
        <ele>346.692627</ele>
        <time>2012-06-28T07:21:02Z</time>
      </trkpt>
      <trkpt lat="48.94448" lon="5.93635">
        <ele>348.1346436</ele>
        <time>2012-06-28T07:21:08Z</time>
      </trkpt>
      <trkpt lat="48.94436" lon="5.93582">
        <ele>348.6152344</ele>
        <time>2012-06-28T07:21:15Z</time>
      </trkpt>
      <trkpt lat="48.94429" lon="5.93551">
        <ele>348.6152344</ele>
        <time>2012-06-28T07:21:19Z</time>
      </trkpt>
      <trkpt lat="48.94415" lon="5.93475">
        <ele>348.6152344</ele>
        <time>2012-06-28T07:21:28Z</time>
      </trkpt>
      <trkpt lat="48.94403" lon="5.93401">
        <ele>348.6152344</ele>
        <time>2012-06-28T07:21:36Z</time>
      </trkpt>
      <trkpt lat="48.94393" lon="5.93336">
        <ele>348.6152344</ele>
        <time>2012-06-28T07:21:42Z</time>
      </trkpt>
      <trkpt lat="48.94387" lon="5.93303">
        <ele>347.1732178</ele>
        <time>2012-06-28T07:21:45Z</time>
      </trkpt>
      <trkpt lat="48.94376" lon="5.93219">
        <ele>348.1346436</ele>
        <time>2012-06-28T07:21:52Z</time>
      </trkpt>
      <trkpt lat="48.94355" lon="5.93094">
        <ele>349.5765381</ele>
        <time>2012-06-28T07:22:02Z</time>
      </trkpt>
      <trkpt lat="48.94341" lon="5.93021">
        <ele>349.5765381</ele>
        <time>2012-06-28T07:22:08Z</time>
      </trkpt>
      <trkpt lat="48.94328" lon="5.92932">
        <ele>350.057251</ele>
        <time>2012-06-28T07:22:16Z</time>
      </trkpt>
      <trkpt lat="48.94316" lon="5.92862">
        <ele>350.5378418</ele>
        <time>2012-06-28T07:22:23Z</time>
      </trkpt>
      <trkpt lat="48.94304" lon="5.92793">
        <ele>350.057251</ele>
        <time>2012-06-28T07:22:30Z</time>
      </trkpt>
      <trkpt lat="48.94287" lon="5.92729">
        <ele>350.057251</ele>
        <time>2012-06-28T07:22:37Z</time>
      </trkpt>
      <trkpt lat="48.94265" lon="5.92661">
        <ele>350.057251</ele>
        <time>2012-06-28T07:22:44Z</time>
      </trkpt>
      <trkpt lat="48.94251" lon="5.92609">
        <ele>349.5765381</ele>
        <time>2012-06-28T07:22:49Z</time>
      </trkpt>
      <trkpt lat="48.94224" lon="5.9254">
        <ele>348.6152344</ele>
        <time>2012-06-28T07:22:55Z</time>
      </trkpt>
      <trkpt lat="48.94186" lon="5.92463">
        <ele>348.1346436</ele>
        <time>2012-06-28T07:23:02Z</time>
      </trkpt>
      <trkpt lat="48.94181" lon="5.92453">
        <ele>347.6539307</ele>
        <time>2012-06-28T07:23:03Z</time>
      </trkpt>
      <trkpt lat="48.94152" lon="5.92392">
        <ele>346.2120361</ele>
        <time>2012-06-28T07:23:09Z</time>
      </trkpt>
      <trkpt lat="48.94119" lon="5.92332">
        <ele>347.1732178</ele>
        <time>2012-06-28T07:23:15Z</time>
      </trkpt>
      <trkpt lat="48.94084" lon="5.92271">
        <ele>343.8085938</ele>
        <time>2012-06-28T07:23:21Z</time>
      </trkpt>
      <trkpt lat="48.94048" lon="5.92198">
        <ele>343.3278809</ele>
        <time>2012-06-28T07:23:28Z</time>
      </trkpt>
      <trkpt lat="48.94007" lon="5.92121">
        <ele>342.84729</ele>
        <time>2012-06-28T07:23:36Z</time>
      </trkpt>
      <trkpt lat="48.93972" lon="5.92061">
        <ele>342.3666992</ele>
        <time>2012-06-28T07:23:43Z</time>
      </trkpt>
      <trkpt lat="48.93938" lon="5.9201">
        <ele>341.4052734</ele>
        <time>2012-06-28T07:23:50Z</time>
      </trkpt>
      <trkpt lat="48.93903" lon="5.91956">
        <ele>339.9633789</ele>
        <time>2012-06-28T07:23:57Z</time>
      </trkpt>
      <trkpt lat="48.93862" lon="5.91891">
        <ele>339.9633789</ele>
        <time>2012-06-28T07:24:05Z</time>
      </trkpt>
      <trkpt lat="48.93813" lon="5.91803">
        <ele>339.0020752</ele>
        <time>2012-06-28T07:24:15Z</time>
      </trkpt>
      <trkpt lat="48.9377" lon="5.91723">
        <ele>337.5600586</ele>
        <time>2012-06-28T07:24:24Z</time>
      </trkpt>
      <trkpt lat="48.93734" lon="5.91655">
        <ele>336.598877</ele>
        <time>2012-06-28T07:24:32Z</time>
      </trkpt>
      <trkpt lat="48.93721" lon="5.91629">
        <ele>335.6373291</ele>
        <time>2012-06-28T07:24:35Z</time>
      </trkpt>
      <trkpt lat="48.93685" lon="5.91555">
        <ele>335.1567383</ele>
        <time>2012-06-28T07:24:43Z</time>
      </trkpt>
      <trkpt lat="48.93652" lon="5.91479">
        <ele>334.6761475</ele>
        <time>2012-06-28T07:24:51Z</time>
      </trkpt>
      <trkpt lat="48.93618" lon="5.9139">
        <ele>332.2728271</ele>
        <time>2012-06-28T07:25:00Z</time>
      </trkpt>
      <trkpt lat="48.93593" lon="5.91325">
        <ele>331.3115234</ele>
        <time>2012-06-28T07:25:06Z</time>
      </trkpt>
      <trkpt lat="48.93563" lon="5.91241">
        <ele>331.3115234</ele>
        <time>2012-06-28T07:25:14Z</time>
      </trkpt>
      <trkpt lat="48.93534" lon="5.91159">
        <ele>330.8309326</ele>
        <time>2012-06-28T07:25:22Z</time>
      </trkpt>
      <trkpt lat="48.93501" lon="5.91068">
        <ele>330.3502197</ele>
        <time>2012-06-28T07:25:31Z</time>
      </trkpt>
      <trkpt lat="48.93476" lon="5.90997">
        <ele>329.388916</ele>
        <time>2012-06-28T07:25:38Z</time>
      </trkpt>
      <trkpt lat="48.9345" lon="5.90927">
        <ele>327.9467773</ele>
        <time>2012-06-28T07:25:45Z</time>
      </trkpt>
      <trkpt lat="48.93425" lon="5.90854">
        <ele>328.9083252</ele>
        <time>2012-06-28T07:25:52Z</time>
      </trkpt>
      <trkpt lat="48.93392" lon="5.90762">
        <ele>328.9083252</ele>
        <time>2012-06-28T07:26:01Z</time>
      </trkpt>
      <trkpt lat="48.93367" lon="5.9069">
        <ele>328.4276123</ele>
        <time>2012-06-28T07:26:08Z</time>
      </trkpt>
      <trkpt lat="48.93343" lon="5.90632">
        <ele>327.9467773</ele>
        <time>2012-06-28T07:26:14Z</time>
      </trkpt>
      <trkpt lat="48.93316" lon="5.90596">
        <ele>328.4276123</ele>
        <time>2012-06-28T07:26:19Z</time>
      </trkpt>
      <trkpt lat="48.93259" lon="5.9053">
        <ele>328.9083252</ele>
        <time>2012-06-28T07:26:29Z</time>
      </trkpt>
      <trkpt lat="48.93221" lon="5.90486">
        <ele>328.4276123</ele>
        <time>2012-06-28T07:26:36Z</time>
      </trkpt>
      <trkpt lat="48.93177" lon="5.90426">
        <ele>327.9467773</ele>
        <time>2012-06-28T07:26:44Z</time>
      </trkpt>
      <trkpt lat="48.93141" lon="5.90357">
        <ele>327.9467773</ele>
        <time>2012-06-28T07:26:52Z</time>
      </trkpt>
      <trkpt lat="48.93116" lon="5.90287">
        <ele>326.5048828</ele>
        <time>2012-06-28T07:26:59Z</time>
      </trkpt>
      <trkpt lat="48.93112" lon="5.90277">
        <ele>326.5048828</ele>
        <time>2012-06-28T07:27:00Z</time>
      </trkpt>
      <trkpt lat="48.93082" lon="5.90183">
        <ele>326.0241699</ele>
        <time>2012-06-28T07:27:09Z</time>
      </trkpt>
      <trkpt lat="48.93055" lon="5.90101">
        <ele>324.5822754</ele>
        <time>2012-06-28T07:27:17Z</time>
      </trkpt>
      <trkpt lat="48.93046" lon="5.90076">
        <ele>323.6209717</ele>
        <time>2012-06-28T07:27:21Z</time>
      </trkpt>
      <trkpt lat="48.93035" lon="5.90046">
        <ele>324.1015625</ele>
        <time>2012-06-28T07:27:28Z</time>
      </trkpt>
      <trkpt lat="48.93029" lon="5.90031">
        <ele>323.6209717</ele>
        <time>2012-06-28T07:27:34Z</time>
      </trkpt>
      <trkpt lat="48.93028" lon="5.90029">
        <ele>323.6209717</ele>
        <time>2012-06-28T07:27:37Z</time>
      </trkpt>
      <trkpt lat="48.93029" lon="5.90029">
        <ele>323.1403809</ele>
        <time>2012-06-28T07:28:13Z</time>
      </trkpt>
      <trkpt lat="48.93025" lon="5.90021">
        <ele>322.659668</ele>
        <time>2012-06-28T07:28:17Z</time>
      </trkpt>
      <trkpt lat="48.93022" lon="5.90017">
        <ele>322.659668</ele>
        <time>2012-06-28T07:28:20Z</time>
      </trkpt>
      <trkpt lat="48.93021" lon="5.90003">
        <ele>322.659668</ele>
        <time>2012-06-28T07:28:26Z</time>
      </trkpt>
      <trkpt lat="48.93018" lon="5.90002">
        <ele>322.659668</ele>
        <time>2012-06-28T07:28:29Z</time>
      </trkpt>
      <trkpt lat="48.93015" lon="5.89988">
        <ele>323.1403809</ele>
        <time>2012-06-28T07:28:35Z</time>
      </trkpt>
      <trkpt lat="48.93004" lon="5.89957">
        <ele>323.1403809</ele>
        <time>2012-06-28T07:28:42Z</time>
      </trkpt>
      <trkpt lat="48.9299" lon="5.89914">
        <ele>321.6983643</ele>
        <time>2012-06-28T07:28:50Z</time>
      </trkpt>
      <trkpt lat="48.92973" lon="5.89864">
        <ele>321.2177734</ele>
        <time>2012-06-28T07:28:58Z</time>
      </trkpt>
      <trkpt lat="48.92955" lon="5.89813">
        <ele>321.2177734</ele>
        <time>2012-06-28T07:29:05Z</time>
      </trkpt>
      <trkpt lat="48.92933" lon="5.8975">
        <ele>320.7370605</ele>
        <time>2012-06-28T07:29:12Z</time>
      </trkpt>
      <trkpt lat="48.92909" lon="5.89683">
        <ele>319.7756348</ele>
        <time>2012-06-28T07:29:19Z</time>
      </trkpt>
      <trkpt lat="48.92881" lon="5.89599">
        <ele>318.8143311</ele>
        <time>2012-06-28T07:29:28Z</time>
      </trkpt>
      <trkpt lat="48.92858" lon="5.8953">
        <ele>317.8530273</ele>
        <time>2012-06-28T07:29:35Z</time>
      </trkpt>
      <trkpt lat="48.92832" lon="5.89448">
        <ele>317.8530273</ele>
        <time>2012-06-28T07:29:43Z</time>
      </trkpt>
      <trkpt lat="48.92805" lon="5.89363">
        <ele>315.4498291</ele>
        <time>2012-06-28T07:29:51Z</time>
      </trkpt>
      <trkpt lat="48.92785" lon="5.89298">
        <ele>315.4498291</ele>
        <time>2012-06-28T07:29:57Z</time>
      </trkpt>
      <trkpt lat="48.92753" lon="5.89197">
        <ele>314.4884033</ele>
        <time>2012-06-28T07:30:06Z</time>
      </trkpt>
      <trkpt lat="48.92722" lon="5.89103">
        <ele>313.5272217</ele>
        <time>2012-06-28T07:30:15Z</time>
      </trkpt>
      <trkpt lat="48.92697" lon="5.89029">
        <ele>313.5272217</ele>
        <time>2012-06-28T07:30:22Z</time>
      </trkpt>
      <trkpt lat="48.92666" lon="5.88935">
        <ele>313.5272217</ele>
        <time>2012-06-28T07:30:31Z</time>
      </trkpt>
      <trkpt lat="48.92637" lon="5.88845">
        <ele>312.0852051</ele>
        <time>2012-06-28T07:30:40Z</time>
      </trkpt>
      <trkpt lat="48.92615" lon="5.88771">
        <ele>313.0465088</ele>
        <time>2012-06-28T07:30:48Z</time>
      </trkpt>
      <trkpt lat="48.9259" lon="5.88689">
        <ele>312.5657959</ele>
        <time>2012-06-28T07:30:56Z</time>
      </trkpt>
      <trkpt lat="48.92575" lon="5.88632">
        <ele>311.1237793</ele>
        <time>2012-06-28T07:31:02Z</time>
      </trkpt>
      <trkpt lat="48.92563" lon="5.8859">
        <ele>310.6430664</ele>
        <time>2012-06-28T07:31:07Z</time>
      </trkpt>
      <trkpt lat="48.92546" lon="5.8852">
        <ele>309.2011719</ele>
        <time>2012-06-28T07:31:14Z</time>
      </trkpt>
      <trkpt lat="48.92544" lon="5.8851">
        <ele>308.720459</ele>
        <time>2012-06-28T07:31:15Z</time>
      </trkpt>
      <trkpt lat="48.92522" lon="5.88438">
        <ele>309.2011719</ele>
        <time>2012-06-28T07:31:22Z</time>
      </trkpt>
      <trkpt lat="48.92512" lon="5.88407">
        <ele>307.2785645</ele>
        <time>2012-06-28T07:31:25Z</time>
      </trkpt>
      <trkpt lat="48.92505" lon="5.88386">
        <ele>306.3172607</ele>
        <time>2012-06-28T07:31:27Z</time>
      </trkpt>
      <trkpt lat="48.92479" lon="5.8831">
        <ele>304.8752441</ele>
        <time>2012-06-28T07:31:34Z</time>
      </trkpt>
      <trkpt lat="48.92442" lon="5.88225">
        <ele>302.9525146</ele>
        <time>2012-06-28T07:31:41Z</time>
      </trkpt>
      <trkpt lat="48.92418" lon="5.88148">
        <ele>302.4719238</ele>
        <time>2012-06-28T07:31:47Z</time>
      </trkpt>
      <trkpt lat="48.92402" lon="5.8809">
        <ele>298.626709</ele>
        <time>2012-06-28T07:31:51Z</time>
      </trkpt>
      <trkpt lat="48.92398" lon="5.88075">
        <ele>299.1072998</ele>
        <time>2012-06-28T07:31:52Z</time>
      </trkpt>
      <trkpt lat="48.92385" lon="5.88028">
        <ele>295.7426758</ele>
        <time>2012-06-28T07:31:55Z</time>
      </trkpt>
      <trkpt lat="48.92364" lon="5.8796">
        <ele>291.416748</ele>
        <time>2012-06-28T07:31:59Z</time>
      </trkpt>
      <trkpt lat="48.92342" lon="5.87891">
        <ele>287.5714111</ele>
        <time>2012-06-28T07:32:03Z</time>
      </trkpt>
      <trkpt lat="48.92318" lon="5.87808">
        <ele>284.6876221</ele>
        <time>2012-06-28T07:32:08Z</time>
      </trkpt>
      <trkpt lat="48.92301" lon="5.87754">
        <ele>282.2843018</ele>
        <time>2012-06-28T07:32:11Z</time>
      </trkpt>
      <trkpt lat="48.92286" lon="5.87721">
        <ele>280.8424072</ele>
        <time>2012-06-28T07:32:13Z</time>
      </trkpt>
      <trkpt lat="48.92248" lon="5.87674">
        <ele>281.8035889</ele>
        <time>2012-06-28T07:32:17Z</time>
      </trkpt>
      <trkpt lat="48.92239" lon="5.87667">
        <ele>281.322998</ele>
        <time>2012-06-28T07:32:18Z</time>
      </trkpt>
      <trkpt lat="48.92213" lon="5.87644">
        <ele>282.7650146</ele>
        <time>2012-06-28T07:32:21Z</time>
      </trkpt>
      <trkpt lat="48.92199" lon="5.87627">
        <ele>284.2069092</ele>
        <time>2012-06-28T07:32:23Z</time>
      </trkpt>
      <trkpt lat="48.92188" lon="5.87608">
        <ele>285.1682129</ele>
        <time>2012-06-28T07:32:25Z</time>
      </trkpt>
      <trkpt lat="48.9217" lon="5.87564">
        <ele>287.5714111</ele>
        <time>2012-06-28T07:32:30Z</time>
      </trkpt>
      <trkpt lat="48.92165" lon="5.87545">
        <ele>289.0135498</ele>
        <time>2012-06-28T07:32:33Z</time>
      </trkpt>
      <trkpt lat="48.92157" lon="5.87511">
        <ele>290.4555664</ele>
        <time>2012-06-28T07:32:38Z</time>
      </trkpt>
      <trkpt lat="48.92153" lon="5.8746">
        <ele>292.8587646</ele>
        <time>2012-06-28T07:32:45Z</time>
      </trkpt>
      <trkpt lat="48.92157" lon="5.8742">
        <ele>294.3007813</ele>
        <time>2012-06-28T07:32:51Z</time>
      </trkpt>
      <trkpt lat="48.92166" lon="5.87368">
        <ele>294.7813721</ele>
        <time>2012-06-28T07:32:58Z</time>
      </trkpt>
      <trkpt lat="48.92179" lon="5.87305">
        <ele>293.8200684</ele>
        <time>2012-06-28T07:33:05Z</time>
      </trkpt>
      <trkpt lat="48.92192" lon="5.87232">
        <ele>292.3781738</ele>
        <time>2012-06-28T07:33:12Z</time>
      </trkpt>
      <trkpt lat="48.92192" lon="5.87161">
        <ele>290.4555664</ele>
        <time>2012-06-28T07:33:18Z</time>
      </trkpt>
      <trkpt lat="48.92184" lon="5.87087">
        <ele>289.9748535</ele>
        <time>2012-06-28T07:33:24Z</time>
      </trkpt>
      <trkpt lat="48.92176" lon="5.86994">
        <ele>288.0522461</ele>
        <time>2012-06-28T07:33:31Z</time>
      </trkpt>
      <trkpt lat="48.92169" lon="5.8688">
        <ele>285.6488037</ele>
        <time>2012-06-28T07:33:39Z</time>
      </trkpt>
      <trkpt lat="48.92164" lon="5.86774">
        <ele>285.1682129</ele>
        <time>2012-06-28T07:33:46Z</time>
      </trkpt>
      <trkpt lat="48.92156" lon="5.86649">
        <ele>283.7261963</ele>
        <time>2012-06-28T07:33:54Z</time>
      </trkpt>
      <trkpt lat="48.92153" lon="5.86603">
        <ele>281.8035889</ele>
        <time>2012-06-28T07:33:57Z</time>
      </trkpt>
      <trkpt lat="48.92145" lon="5.86493">
        <ele>278.9196777</ele>
        <time>2012-06-28T07:34:04Z</time>
      </trkpt>
      <trkpt lat="48.92137" lon="5.86384">
        <ele>277.4776611</ele>
        <time>2012-06-28T07:34:11Z</time>
      </trkpt>
      <trkpt lat="48.92129" lon="5.86292">
        <ele>276.0356445</ele>
        <time>2012-06-28T07:34:17Z</time>
      </trkpt>
      <trkpt lat="48.92118" lon="5.8617">
        <ele>272.1904297</ele>
        <time>2012-06-28T07:34:25Z</time>
      </trkpt>
      <trkpt lat="48.92116" lon="5.86154">
        <ele>273.1518555</ele>
        <time>2012-06-28T07:34:26Z</time>
      </trkpt>
      <trkpt lat="48.921" lon="5.86046">
        <ele>269.7871094</ele>
        <time>2012-06-28T07:34:33Z</time>
      </trkpt>
      <trkpt lat="48.92094" lon="5.85997">
        <ele>265.9418945</ele>
        <time>2012-06-28T07:34:36Z</time>
      </trkpt>
      <trkpt lat="48.92091" lon="5.85962">
        <ele>265.4613037</ele>
        <time>2012-06-28T07:34:38Z</time>
      </trkpt>
      <trkpt lat="48.9209" lon="5.85943">
        <ele>264.4998779</ele>
        <time>2012-06-28T07:34:39Z</time>
      </trkpt>
      <trkpt lat="48.92092" lon="5.85903">
        <ele>263.0578613</ele>
        <time>2012-06-28T07:34:41Z</time>
      </trkpt>
      <trkpt lat="48.92102" lon="5.85823">
        <ele>260.1739502</ele>
        <time>2012-06-28T07:34:45Z</time>
      </trkpt>
      <trkpt lat="48.92105" lon="5.85803">
        <ele>260.1739502</ele>
        <time>2012-06-28T07:34:46Z</time>
      </trkpt>
      <trkpt lat="48.92113" lon="5.85744">
        <ele>258.2513428</ele>
        <time>2012-06-28T07:34:49Z</time>
      </trkpt>
      <trkpt lat="48.92123" lon="5.85665">
        <ele>253.925415</ele>
        <time>2012-06-28T07:34:53Z</time>
      </trkpt>
      <trkpt lat="48.92139" lon="5.85553">
        <ele>252.0028076</ele>
        <time>2012-06-28T07:34:59Z</time>
      </trkpt>
      <trkpt lat="48.92142" lon="5.85536">
        <ele>252.4833984</ele>
        <time>2012-06-28T07:35:00Z</time>
      </trkpt>
      <trkpt lat="48.92173" lon="5.85473">
        <ele>254.4060059</ele>
        <time>2012-06-28T07:35:05Z</time>
      </trkpt>
      <trkpt lat="48.92179" lon="5.85462">
        <ele>254.8865967</ele>
        <time>2012-06-28T07:35:06Z</time>
      </trkpt>
      <trkpt lat="48.92191" lon="5.85419">
        <ele>257.770752</ele>
        <time>2012-06-28T07:35:10Z</time>
      </trkpt>
      <trkpt lat="48.92193" lon="5.85398">
        <ele>258.2513428</ele>
        <time>2012-06-28T07:35:12Z</time>
      </trkpt>
      <trkpt lat="48.92197" lon="5.85362">
        <ele>259.6933594</ele>
        <time>2012-06-28T07:35:16Z</time>
      </trkpt>
      <trkpt lat="48.92206" lon="5.85291">
        <ele>261.1352539</ele>
        <time>2012-06-28T07:35:24Z</time>
      </trkpt>
      <trkpt lat="48.92221" lon="5.85231">
        <ele>261.6159668</ele>
        <time>2012-06-28T07:35:31Z</time>
      </trkpt>
      <trkpt lat="48.92239" lon="5.85164">
        <ele>263.5385742</ele>
        <time>2012-06-28T07:35:39Z</time>
      </trkpt>
      <trkpt lat="48.92248" lon="5.85136">
        <ele>263.5385742</ele>
        <time>2012-06-28T07:35:43Z</time>
      </trkpt>
      <trkpt lat="48.92272" lon="5.85087">
        <ele>264.4998779</ele>
        <time>2012-06-28T07:35:50Z</time>
      </trkpt>
      <trkpt lat="48.92292" lon="5.85048">
        <ele>264.4998779</ele>
        <time>2012-06-28T07:35:56Z</time>
      </trkpt>
      <trkpt lat="48.92301" lon="5.85031">
        <ele>264.4998779</ele>
        <time>2012-06-28T07:35:59Z</time>
      </trkpt>
      <trkpt lat="48.92313" lon="5.85003">
        <ele>264.4998779</ele>
        <time>2012-06-28T07:36:03Z</time>
      </trkpt>
      <trkpt lat="48.92323" lon="5.84951">
        <ele>263.0578613</ele>
        <time>2012-06-28T07:36:08Z</time>
      </trkpt>
      <trkpt lat="48.92319" lon="5.84913">
        <ele>262.5771484</ele>
        <time>2012-06-28T07:36:11Z</time>
      </trkpt>
      <trkpt lat="48.92298" lon="5.84829">
        <ele>259.2126465</ele>
        <time>2012-06-28T07:36:17Z</time>
      </trkpt>
      <trkpt lat="48.92283" lon="5.84763">
        <ele>256.3287354</ele>
        <time>2012-06-28T07:36:21Z</time>
      </trkpt>
      <trkpt lat="48.92273" lon="5.84711">
        <ele>252.9639893</ele>
        <time>2012-06-28T07:36:24Z</time>
      </trkpt>
      <trkpt lat="48.92266" lon="5.84675">
        <ele>252.0028076</ele>
        <time>2012-06-28T07:36:26Z</time>
      </trkpt>
      <trkpt lat="48.92258" lon="5.84638">
        <ele>248.6381836</ele>
        <time>2012-06-28T07:36:28Z</time>
      </trkpt>
      <trkpt lat="48.92247" lon="5.84577">
        <ele>245.7541504</ele>
        <time>2012-06-28T07:36:31Z</time>
      </trkpt>
      <trkpt lat="48.92244" lon="5.84512">
        <ele>242.3896484</ele>
        <time>2012-06-28T07:36:34Z</time>
      </trkpt>
      <trkpt lat="48.92247" lon="5.84466">
        <ele>241.4282227</ele>
        <time>2012-06-28T07:36:36Z</time>
      </trkpt>
      <trkpt lat="48.92256" lon="5.84399">
        <ele>237.5828857</ele>
        <time>2012-06-28T07:36:39Z</time>
      </trkpt>
      <trkpt lat="48.92266" lon="5.84336">
        <ele>233.7376709</ele>
        <time>2012-06-28T07:36:42Z</time>
      </trkpt>
      <trkpt lat="48.92272" lon="5.84301">
        <ele>231.8149414</ele>
        <time>2012-06-28T07:36:44Z</time>
      </trkpt>
      <trkpt lat="48.9229" lon="5.8426">
        <ele>229.4117432</ele>
        <time>2012-06-28T07:36:47Z</time>
      </trkpt>
      <trkpt lat="48.92319" lon="5.84236">
        <ele>227.0085449</ele>
        <time>2012-06-28T07:36:50Z</time>
      </trkpt>
      <trkpt lat="48.92341" lon="5.8423">
        <ele>227.0085449</ele>
        <time>2012-06-28T07:36:52Z</time>
      </trkpt>
      <trkpt lat="48.92417" lon="5.8421">
        <ele>225.5665283</ele>
        <time>2012-06-28T07:36:59Z</time>
      </trkpt>
      <trkpt lat="48.92469" lon="5.84177">
        <ele>224.1245117</ele>
        <time>2012-06-28T07:37:05Z</time>
      </trkpt>
      <trkpt lat="48.92506" lon="5.84137">
        <ele>222.6824951</ele>
        <time>2012-06-28T07:37:10Z</time>
      </trkpt>
      <trkpt lat="48.92539" lon="5.84083">
        <ele>222.6824951</ele>
        <time>2012-06-28T07:37:16Z</time>
      </trkpt>
      <trkpt lat="48.92544" lon="5.84074">
        <ele>222.2017822</ele>
        <time>2012-06-28T07:37:17Z</time>
      </trkpt>
      <trkpt lat="48.92551" lon="5.84041">
        <ele>221.7211914</ele>
        <time>2012-06-28T07:37:21Z</time>
      </trkpt>
      <trkpt lat="48.92544" lon="5.84029">
        <ele>221.7211914</ele>
        <time>2012-06-28T07:37:23Z</time>
      </trkpt>
      <trkpt lat="48.92509" lon="5.83984">
        <ele>222.2017822</ele>
        <time>2012-06-28T07:37:31Z</time>
      </trkpt>
      <trkpt lat="48.92469" lon="5.83936">
        <ele>223.6437988</ele>
        <time>2012-06-28T07:37:40Z</time>
      </trkpt>
      <trkpt lat="48.92464" lon="5.83931">
        <ele>223.6437988</ele>
        <time>2012-06-28T07:37:41Z</time>
      </trkpt>
      <trkpt lat="48.92456" lon="5.83922">
        <ele>224.1245117</ele>
        <time>2012-06-28T07:37:43Z</time>
      </trkpt>
      <trkpt lat="48.92452" lon="5.83917">
        <ele>225.0859375</ele>
        <time>2012-06-28T07:37:44Z</time>
      </trkpt>
      <trkpt lat="48.92448" lon="5.83913">
        <ele>225.0859375</ele>
        <time>2012-06-28T07:37:45Z</time>
      </trkpt>
      <trkpt lat="48.92432" lon="5.83896">
        <ele>227.0085449</ele>
        <time>2012-06-28T07:37:50Z</time>
      </trkpt>
      <trkpt lat="48.92421" lon="5.83881">
        <ele>226.0471191</ele>
        <time>2012-06-28T07:37:54Z</time>
      </trkpt>
      <trkpt lat="48.92405" lon="5.83857">
        <ele>227.9697266</ele>
        <time>2012-06-28T07:38:00Z</time>
      </trkpt>
      <trkpt lat="48.92396" lon="5.83842">
        <ele>228.4504395</ele>
        <time>2012-06-28T07:38:06Z</time>
      </trkpt>
      <trkpt lat="48.92386" lon="5.83826">
        <ele>229.4117432</ele>
        <time>2012-06-28T07:38:13Z</time>
      </trkpt>
      <trkpt lat="48.92379" lon="5.83819">
        <ele>229.892334</ele>
        <time>2012-06-28T07:38:16Z</time>
      </trkpt>
      <trkpt lat="48.92374" lon="5.83836">
        <ele>229.4117432</ele>
        <time>2012-06-28T07:38:20Z</time>
      </trkpt>
      <trkpt lat="48.92386" lon="5.83853">
        <ele>228.4504395</ele>
        <time>2012-06-28T07:38:24Z</time>
      </trkpt>
      <trkpt lat="48.92397" lon="5.83845">
        <ele>229.4117432</ele>
        <time>2012-06-28T07:38:27Z</time>
      </trkpt>
      <trkpt lat="48.92413" lon="5.83824">
        <ele>229.4117432</ele>
        <time>2012-06-28T07:38:31Z</time>
      </trkpt>
      <trkpt lat="48.92447" lon="5.83774">
        <ele>231.8149414</ele>
        <time>2012-06-28T07:38:39Z</time>
      </trkpt>
      <trkpt lat="48.92473" lon="5.83736">
        <ele>233.2570801</ele>
        <time>2012-06-28T07:38:46Z</time>
      </trkpt>
      <trkpt lat="48.92502" lon="5.83692">
        <ele>232.7764893</ele>
        <time>2012-06-28T07:38:54Z</time>
      </trkpt>
      <trkpt lat="48.92528" lon="5.83652">
        <ele>232.7764893</ele>
        <time>2012-06-28T07:39:01Z</time>
      </trkpt>
      <trkpt lat="48.92541" lon="5.8361">
        <ele>234.2183838</ele>
        <time>2012-06-28T07:39:07Z</time>
      </trkpt>
      <trkpt lat="48.92543" lon="5.83595">
        <ele>234.2183838</ele>
        <time>2012-06-28T07:39:09Z</time>
      </trkpt>
      <trkpt lat="48.92542" lon="5.83545">
        <ele>235.1796875</ele>
        <time>2012-06-28T07:39:16Z</time>
      </trkpt>
      <trkpt lat="48.92542" lon="5.83505">
        <ele>237.1022949</ele>
        <time>2012-06-28T07:39:23Z</time>
      </trkpt>
      <trkpt lat="48.92549" lon="5.83459">
        <ele>239.9862061</ele>
        <time>2012-06-28T07:39:32Z</time>
      </trkpt>
      <trkpt lat="48.92563" lon="5.83423">
        <ele>242.3896484</ele>
        <time>2012-06-28T07:39:40Z</time>
      </trkpt>
      <trkpt lat="48.92582" lon="5.83401">
        <ele>244.3122559</ele>
        <time>2012-06-28T07:39:47Z</time>
      </trkpt>
      <trkpt lat="48.92612" lon="5.83376">
        <ele>246.2348633</ele>
        <time>2012-06-28T07:39:56Z</time>
      </trkpt>
      <trkpt lat="48.92643" lon="5.83353">
        <ele>248.6381836</ele>
        <time>2012-06-28T07:40:05Z</time>
      </trkpt>
      <trkpt lat="48.92671" lon="5.83331">
        <ele>250.0802002</ele>
        <time>2012-06-28T07:40:14Z</time>
      </trkpt>
      <trkpt lat="48.9269" lon="5.83309">
        <ele>252.4833984</ele>
        <time>2012-06-28T07:40:21Z</time>
      </trkpt>
      <trkpt lat="48.92711" lon="5.83279">
        <ele>253.925415</ele>
        <time>2012-06-28T07:40:29Z</time>
      </trkpt>
      <trkpt lat="48.92732" lon="5.83238">
        <ele>254.8865967</ele>
        <time>2012-06-28T07:40:38Z</time>
      </trkpt>
      <trkpt lat="48.92757" lon="5.83196">
        <ele>255.8480225</ele>
        <time>2012-06-28T07:40:47Z</time>
      </trkpt>
      <trkpt lat="48.92782" lon="5.83153">
        <ele>256.3287354</ele>
        <time>2012-06-28T07:40:55Z</time>
      </trkpt>
      <trkpt lat="48.92808" lon="5.83112">
        <ele>257.2900391</ele>
        <time>2012-06-28T07:41:02Z</time>
      </trkpt>
      <trkpt lat="48.92833" lon="5.83073">
        <ele>256.3287354</ele>
        <time>2012-06-28T07:41:08Z</time>
      </trkpt>
      <trkpt lat="48.92869" lon="5.83023">
        <ele>253.925415</ele>
        <time>2012-06-28T07:41:15Z</time>
      </trkpt>
      <trkpt lat="48.92875" lon="5.83015">
        <ele>253.925415</ele>
        <time>2012-06-28T07:41:16Z</time>
      </trkpt>
      <trkpt lat="48.92899" lon="5.82983">
        <ele>253.925415</ele>
        <time>2012-06-28T07:41:21Z</time>
      </trkpt>
      <trkpt lat="48.92914" lon="5.82963">
        <ele>252.9639893</ele>
        <time>2012-06-28T07:41:26Z</time>
      </trkpt>
      <trkpt lat="48.92917" lon="5.8295">
        <ele>252.9639893</ele>
        <time>2012-06-28T07:41:31Z</time>
      </trkpt>
      <trkpt lat="48.92917" lon="5.82948">
        <ele>252.9639893</ele>
        <time>2012-06-28T07:41:34Z</time>
      </trkpt>
      <trkpt lat="48.92917" lon="5.82949">
        <ele>253.4447021</ele>
        <time>2012-06-28T07:41:52Z</time>
      </trkpt>
      <trkpt lat="48.92918" lon="5.82948">
        <ele>253.4447021</ele>
        <time>2012-06-28T07:41:53Z</time>
      </trkpt>
      <trkpt lat="48.92917" lon="5.82935">
        <ele>253.4447021</ele>
        <time>2012-06-28T07:41:56Z</time>
      </trkpt>
      <trkpt lat="48.92903" lon="5.82909">
        <ele>253.4447021</ele>
        <time>2012-06-28T07:42:02Z</time>
      </trkpt>
      <trkpt lat="48.92878" lon="5.82866">
        <ele>252.4833984</ele>
        <time>2012-06-28T07:42:11Z</time>
      </trkpt>
      <trkpt lat="48.92855" lon="5.82833">
        <ele>252.4833984</ele>
        <time>2012-06-28T07:42:17Z</time>
      </trkpt>
      <trkpt lat="48.92823" lon="5.82792">
        <ele>251.5220947</ele>
        <time>2012-06-28T07:42:24Z</time>
      </trkpt>
      <trkpt lat="48.92783" lon="5.8274">
        <ele>250.560791</ele>
        <time>2012-06-28T07:42:32Z</time>
      </trkpt>
      <trkpt lat="48.92745" lon="5.82693">
        <ele>249.5994873</ele>
        <time>2012-06-28T07:42:39Z</time>
      </trkpt>
      <trkpt lat="48.92715" lon="5.82653">
        <ele>249.1187744</ele>
        <time>2012-06-28T07:42:45Z</time>
      </trkpt>
      <trkpt lat="48.92668" lon="5.82592">
        <ele>248.6381836</ele>
        <time>2012-06-28T07:42:54Z</time>
      </trkpt>
      <trkpt lat="48.92652" lon="5.82569">
        <ele>248.6381836</ele>
        <time>2012-06-28T07:42:57Z</time>
      </trkpt>
      <trkpt lat="48.92616" lon="5.82492">
        <ele>247.6767578</ele>
        <time>2012-06-28T07:43:06Z</time>
      </trkpt>
      <trkpt lat="48.92589" lon="5.82428">
        <ele>245.7541504</ele>
        <time>2012-06-28T07:43:13Z</time>
      </trkpt>
      <trkpt lat="48.92561" lon="5.82363">
        <ele>244.3122559</ele>
        <time>2012-06-28T07:43:20Z</time>
      </trkpt>
      <trkpt lat="48.92531" lon="5.82291">
        <ele>243.3508301</ele>
        <time>2012-06-28T07:43:28Z</time>
      </trkpt>
      <trkpt lat="48.92508" lon="5.82236">
        <ele>243.831543</ele>
        <time>2012-06-28T07:43:34Z</time>
      </trkpt>
      <trkpt lat="48.92499" lon="5.82204">
        <ele>242.3896484</ele>
        <time>2012-06-28T07:43:37Z</time>
      </trkpt>
      <trkpt lat="48.92488" lon="5.82132">
        <ele>240.467041</ele>
        <time>2012-06-28T07:43:43Z</time>
      </trkpt>
      <trkpt lat="48.92486" lon="5.82092">
        <ele>239.0249023</ele>
        <time>2012-06-28T07:43:46Z</time>
      </trkpt>
      <trkpt lat="48.92487" lon="5.8199">
        <ele>235.6602783</ele>
        <time>2012-06-28T07:43:53Z</time>
      </trkpt>
      <trkpt lat="48.92488" lon="5.81904">
        <ele>233.2570801</ele>
        <time>2012-06-28T07:43:58Z</time>
      </trkpt>
      <trkpt lat="48.92474" lon="5.81835">
        <ele>231.8149414</ele>
        <time>2012-06-28T07:44:02Z</time>
      </trkpt>
      <trkpt lat="48.9246" lon="5.81808">
        <ele>230.8537598</ele>
        <time>2012-06-28T07:44:04Z</time>
      </trkpt>
      <trkpt lat="48.92421" lon="5.81737">
        <ele>230.8537598</ele>
        <time>2012-06-28T07:44:10Z</time>
      </trkpt>
      <trkpt lat="48.92397" lon="5.81666">
        <ele>230.3730469</ele>
        <time>2012-06-28T07:44:16Z</time>
      </trkpt>
      <trkpt lat="48.92376" lon="5.81579">
        <ele>230.8537598</ele>
        <time>2012-06-28T07:44:23Z</time>
      </trkpt>
      <trkpt lat="48.92363" lon="5.81511">
        <ele>231.8149414</ele>
        <time>2012-06-28T07:44:29Z</time>
      </trkpt>
      <trkpt lat="48.9234" lon="5.81439">
        <ele>231.3343506</ele>
        <time>2012-06-28T07:44:36Z</time>
      </trkpt>
      <trkpt lat="48.92319" lon="5.81379">
        <ele>230.8537598</ele>
        <time>2012-06-28T07:44:42Z</time>
      </trkpt>
      <trkpt lat="48.9229" lon="5.81311">
        <ele>229.892334</ele>
        <time>2012-06-28T07:44:49Z</time>
      </trkpt>
      <trkpt lat="48.92258" lon="5.81238">
        <ele>229.4117432</ele>
        <time>2012-06-28T07:44:57Z</time>
      </trkpt>
      <trkpt lat="48.92224" lon="5.81151">
        <ele>227.9697266</ele>
        <time>2012-06-28T07:45:06Z</time>
      </trkpt>
      <trkpt lat="48.92202" lon="5.81088">
        <ele>227.4891357</ele>
        <time>2012-06-28T07:45:12Z</time>
      </trkpt>
      <trkpt lat="48.92166" lon="5.81013">
        <ele>226.527832</ele>
        <time>2012-06-28T07:45:20Z</time>
      </trkpt>
      <trkpt lat="48.92135" lon="5.80958">
        <ele>225.5665283</ele>
        <time>2012-06-28T07:45:27Z</time>
      </trkpt>
      <trkpt lat="48.92106" lon="5.80907">
        <ele>224.6052246</ele>
        <time>2012-06-28T07:45:34Z</time>
      </trkpt>
      <trkpt lat="48.92089" lon="5.80879">
        <ele>224.6052246</ele>
        <time>2012-06-28T07:45:40Z</time>
      </trkpt>
      <trkpt lat="48.92071" lon="5.80887">
        <ele>225.5665283</ele>
        <time>2012-06-28T07:45:44Z</time>
      </trkpt>
      <trkpt lat="48.92062" lon="5.80894">
        <ele>226.527832</ele>
        <time>2012-06-28T07:45:46Z</time>
      </trkpt>
      <trkpt lat="48.92037" lon="5.80921">
        <ele>226.0471191</ele>
        <time>2012-06-28T07:45:52Z</time>
      </trkpt>
      <trkpt lat="48.92013" lon="5.80953">
        <ele>225.5665283</ele>
        <time>2012-06-28T07:45:59Z</time>
      </trkpt>
      <trkpt lat="48.91991" lon="5.80989">
        <ele>225.0859375</ele>
        <time>2012-06-28T07:46:05Z</time>
      </trkpt>
      <trkpt lat="48.91962" lon="5.81038">
        <ele>224.6052246</ele>
        <time>2012-06-28T07:46:13Z</time>
      </trkpt>
      <trkpt lat="48.91938" lon="5.81068">
        <ele>224.6052246</ele>
        <time>2012-06-28T07:46:20Z</time>
      </trkpt>
      <trkpt lat="48.91932" lon="5.81076">
        <ele>224.6052246</ele>
        <time>2012-06-28T07:46:22Z</time>
      </trkpt>
      <trkpt lat="48.91913" lon="5.81082">
        <ele>225.0859375</ele>
        <time>2012-06-28T07:46:27Z</time>
      </trkpt>
      <trkpt lat="48.91899" lon="5.81059">
        <ele>225.5665283</ele>
        <time>2012-06-28T07:46:32Z</time>
      </trkpt>
      <trkpt lat="48.91878" lon="5.81012">
        <ele>227.0085449</ele>
        <time>2012-06-28T07:46:41Z</time>
      </trkpt>
      <trkpt lat="48.91859" lon="5.80979">
        <ele>227.4891357</ele>
        <time>2012-06-28T07:46:48Z</time>
      </trkpt>
      <trkpt lat="48.91838" lon="5.80951">
        <ele>227.9697266</ele>
        <time>2012-06-28T07:46:54Z</time>
      </trkpt>
      <trkpt lat="48.91821" lon="5.80927">
        <ele>228.4504395</ele>
        <time>2012-06-28T07:46:59Z</time>
      </trkpt>
      <trkpt lat="48.91808" lon="5.8092">
        <ele>229.4117432</ele>
        <time>2012-06-28T07:47:02Z</time>
      </trkpt>
      <trkpt lat="48.91804" lon="5.80922">
        <ele>229.892334</ele>
        <time>2012-06-28T07:47:03Z</time>
      </trkpt>
      <trkpt lat="48.91799" lon="5.80926">
        <ele>230.8537598</ele>
        <time>2012-06-28T07:47:04Z</time>
      </trkpt>
      <trkpt lat="48.91766" lon="5.80956">
        <ele>231.8149414</ele>
        <time>2012-06-28T07:47:11Z</time>
      </trkpt>
      <trkpt lat="48.91748" lon="5.80971">
        <ele>231.8149414</ele>
        <time>2012-06-28T07:47:15Z</time>
      </trkpt>
      <trkpt lat="48.9172" lon="5.80973">
        <ele>232.7764893</ele>
        <time>2012-06-28T07:47:20Z</time>
      </trkpt>
      <trkpt lat="48.91682" lon="5.80958">
        <ele>232.2957764</ele>
        <time>2012-06-28T07:47:27Z</time>
      </trkpt>
      <trkpt lat="48.91651" lon="5.80943">
        <ele>233.2570801</ele>
        <time>2012-06-28T07:47:33Z</time>
      </trkpt>
      <trkpt lat="48.91607" lon="5.80929">
        <ele>233.2570801</ele>
        <time>2012-06-28T07:47:41Z</time>
      </trkpt>
      <trkpt lat="48.91568" lon="5.80925">
        <ele>233.7376709</ele>
        <time>2012-06-28T07:47:48Z</time>
      </trkpt>
      <trkpt lat="48.91525" lon="5.80922">
        <ele>233.2570801</ele>
        <time>2012-06-28T07:47:56Z</time>
      </trkpt>
      <trkpt lat="48.9148" lon="5.80924">
        <ele>233.2570801</ele>
        <time>2012-06-28T07:48:04Z</time>
      </trkpt>
      <trkpt lat="48.91447" lon="5.80941">
        <ele>234.6990967</ele>
        <time>2012-06-28T07:48:10Z</time>
      </trkpt>
      <trkpt lat="48.91407" lon="5.80969">
        <ele>234.6990967</ele>
        <time>2012-06-28T07:48:17Z</time>
      </trkpt>
      <trkpt lat="48.91361" lon="5.81002">
        <ele>234.6990967</ele>
        <time>2012-06-28T07:48:25Z</time>
      </trkpt>
      <trkpt lat="48.91314" lon="5.81037">
        <ele>235.6602783</ele>
        <time>2012-06-28T07:48:34Z</time>
      </trkpt>
      <trkpt lat="48.91282" lon="5.81055">
        <ele>236.6217041</ele>
        <time>2012-06-28T07:48:40Z</time>
      </trkpt>
      <trkpt lat="48.9126" lon="5.81051">
        <ele>238.0635986</ele>
        <time>2012-06-28T07:48:44Z</time>
      </trkpt>
      <trkpt lat="48.91255" lon="5.81046">
        <ele>238.5443115</ele>
        <time>2012-06-28T07:48:45Z</time>
      </trkpt>
      <trkpt lat="48.91223" lon="5.80997">
        <ele>237.5828857</ele>
        <time>2012-06-28T07:48:52Z</time>
      </trkpt>
      <trkpt lat="48.91179" lon="5.80924">
        <ele>237.1022949</ele>
        <time>2012-06-28T07:49:02Z</time>
      </trkpt>
      <trkpt lat="48.91136" lon="5.80855">
        <ele>237.1022949</ele>
        <time>2012-06-28T07:49:12Z</time>
      </trkpt>
      <trkpt lat="48.91108" lon="5.80808">
        <ele>238.0635986</ele>
        <time>2012-06-28T07:49:19Z</time>
      </trkpt>
      <trkpt lat="48.91073" lon="5.80752">
        <ele>238.5443115</ele>
        <time>2012-06-28T07:49:27Z</time>
      </trkpt>
      <trkpt lat="48.91037" lon="5.80692">
        <ele>237.1022949</ele>
        <time>2012-06-28T07:49:36Z</time>
      </trkpt>
      <trkpt lat="48.91016" lon="5.80656">
        <ele>237.1022949</ele>
        <time>2012-06-28T07:49:41Z</time>
      </trkpt>
      <trkpt lat="48.90986" lon="5.80615">
        <ele>236.6217041</ele>
        <time>2012-06-28T07:49:47Z</time>
      </trkpt>
      <trkpt lat="48.90959" lon="5.80599">
        <ele>234.6990967</ele>
        <time>2012-06-28T07:49:51Z</time>
      </trkpt>
      <trkpt lat="48.90923" lon="5.80594">
        <ele>234.6990967</ele>
        <time>2012-06-28T07:49:56Z</time>
      </trkpt>
      <trkpt lat="48.90863" lon="5.80592">
        <ele>230.3730469</ele>
        <time>2012-06-28T07:50:03Z</time>
      </trkpt>
      <trkpt lat="48.90835" lon="5.8059">
        <ele>232.2957764</ele>
        <time>2012-06-28T07:50:06Z</time>
      </trkpt>
      <trkpt lat="48.90807" lon="5.80588">
        <ele>227.0085449</ele>
        <time>2012-06-28T07:50:09Z</time>
      </trkpt>
      <trkpt lat="48.90744" lon="5.80577">
        <ele>226.0471191</ele>
        <time>2012-06-28T07:50:16Z</time>
      </trkpt>
      <trkpt lat="48.90736" lon="5.80576">
        <ele>226.527832</ele>
        <time>2012-06-28T07:50:17Z</time>
      </trkpt>
      <trkpt lat="48.9069" lon="5.80581">
        <ele>227.4891357</ele>
        <time>2012-06-28T07:50:23Z</time>
      </trkpt>
      <trkpt lat="48.90648" lon="5.80591">
        <ele>227.4891357</ele>
        <time>2012-06-28T07:50:29Z</time>
      </trkpt>
      <trkpt lat="48.90617" lon="5.80593">
        <ele>227.9697266</ele>
        <time>2012-06-28T07:50:34Z</time>
      </trkpt>
      <trkpt lat="48.90596" lon="5.80587">
        <ele>229.892334</ele>
        <time>2012-06-28T07:50:38Z</time>
      </trkpt>
      <trkpt lat="48.90571" lon="5.80578">
        <ele>232.2957764</ele>
        <time>2012-06-28T07:50:44Z</time>
      </trkpt>
      <trkpt lat="48.90546" lon="5.80563">
        <ele>235.1796875</ele>
        <time>2012-06-28T07:50:51Z</time>
      </trkpt>
      <trkpt lat="48.90521" lon="5.80545">
        <ele>237.1022949</ele>
        <time>2012-06-28T07:50:59Z</time>
      </trkpt>
      <trkpt lat="48.90502" lon="5.80529">
        <ele>238.5443115</ele>
        <time>2012-06-28T07:51:06Z</time>
      </trkpt>
      <trkpt lat="48.90477" lon="5.80508">
        <ele>240.9476318</ele>
        <time>2012-06-28T07:51:14Z</time>
      </trkpt>
      <trkpt lat="48.90465" lon="5.80497">
        <ele>241.4282227</ele>
        <time>2012-06-28T07:51:18Z</time>
      </trkpt>
      <trkpt lat="48.90452" lon="5.80486">
        <ele>243.3508301</ele>
        <time>2012-06-28T07:51:22Z</time>
      </trkpt>
      <trkpt lat="48.90428" lon="5.80463">
        <ele>244.3122559</ele>
        <time>2012-06-28T07:51:30Z</time>
      </trkpt>
      <trkpt lat="48.90412" lon="5.80448">
        <ele>245.7541504</ele>
        <time>2012-06-28T07:51:36Z</time>
      </trkpt>
      <trkpt lat="48.90394" lon="5.80431">
        <ele>245.7541504</ele>
        <time>2012-06-28T07:51:43Z</time>
      </trkpt>
      <trkpt lat="48.90388" lon="5.80426">
        <ele>246.7154541</ele>
        <time>2012-06-28T07:51:45Z</time>
      </trkpt>
      <trkpt lat="48.90359" lon="5.804">
        <ele>247.1960449</ele>
        <time>2012-06-28T07:51:54Z</time>
      </trkpt>
      <trkpt lat="48.90334" lon="5.80376">
        <ele>247.1960449</ele>
        <time>2012-06-28T07:52:01Z</time>
      </trkpt>
      <trkpt lat="48.90309" lon="5.80353">
        <ele>247.1960449</ele>
        <time>2012-06-28T07:52:08Z</time>
      </trkpt>
      <trkpt lat="48.90285" lon="5.80328">
        <ele>246.7154541</ele>
        <time>2012-06-28T07:52:15Z</time>
      </trkpt>
      <trkpt lat="48.90256" lon="5.80294">
        <ele>246.7154541</ele>
        <time>2012-06-28T07:52:22Z</time>
      </trkpt>
      <trkpt lat="48.90226" lon="5.80254">
        <ele>246.2348633</ele>
        <time>2012-06-28T07:52:28Z</time>
      </trkpt>
      <trkpt lat="48.90198" lon="5.80216">
        <ele>245.7541504</ele>
        <time>2012-06-28T07:52:33Z</time>
      </trkpt>
      <trkpt lat="48.90167" lon="5.80177">
        <ele>242.8702393</ele>
        <time>2012-06-28T07:52:38Z</time>
      </trkpt>
      <trkpt lat="48.90161" lon="5.80169">
        <ele>243.3508301</ele>
        <time>2012-06-28T07:52:39Z</time>
      </trkpt>
      <trkpt lat="48.90141" lon="5.80145">
        <ele>241.9089355</ele>
        <time>2012-06-28T07:52:42Z</time>
      </trkpt>
      <trkpt lat="48.90093" lon="5.80089">
        <ele>239.5054932</ele>
        <time>2012-06-28T07:52:49Z</time>
      </trkpt>
      <trkpt lat="48.90066" lon="5.80058">
        <ele>239.9862061</ele>
        <time>2012-06-28T07:52:53Z</time>
      </trkpt>
      <trkpt lat="48.9001" lon="5.79992">
        <ele>240.467041</ele>
        <time>2012-06-28T07:53:02Z</time>
      </trkpt>
      <trkpt lat="48.89965" lon="5.79931">
        <ele>240.467041</ele>
        <time>2012-06-28T07:53:10Z</time>
      </trkpt>
      <trkpt lat="48.89924" lon="5.7987">
        <ele>240.467041</ele>
        <time>2012-06-28T07:53:18Z</time>
      </trkpt>
      <trkpt lat="48.89873" lon="5.79802">
        <ele>240.467041</ele>
        <time>2012-06-28T07:53:28Z</time>
      </trkpt>
      <trkpt lat="48.89827" lon="5.79746">
        <ele>240.467041</ele>
        <time>2012-06-28T07:53:37Z</time>
      </trkpt>
      <trkpt lat="48.89784" lon="5.79695">
        <ele>239.9862061</ele>
        <time>2012-06-28T07:53:45Z</time>
      </trkpt>
      <trkpt lat="48.89745" lon="5.79643">
        <ele>239.9862061</ele>
        <time>2012-06-28T07:53:53Z</time>
      </trkpt>
      <trkpt lat="48.89716" lon="5.79602">
        <ele>240.467041</ele>
        <time>2012-06-28T07:54:00Z</time>
      </trkpt>
      <trkpt lat="48.89693" lon="5.79561">
        <ele>239.9862061</ele>
        <time>2012-06-28T07:54:07Z</time>
      </trkpt>
      <trkpt lat="48.89671" lon="5.79512">
        <ele>240.467041</ele>
        <time>2012-06-28T07:54:14Z</time>
      </trkpt>
      <trkpt lat="48.89656" lon="5.79461">
        <ele>239.5054932</ele>
        <time>2012-06-28T07:54:20Z</time>
      </trkpt>
      <trkpt lat="48.8963" lon="5.79373">
        <ele>238.0635986</ele>
        <time>2012-06-28T07:54:29Z</time>
      </trkpt>
      <trkpt lat="48.89598" lon="5.79291">
        <ele>237.5828857</ele>
        <time>2012-06-28T07:54:37Z</time>
      </trkpt>
      <trkpt lat="48.89584" lon="5.79261">
        <ele>237.1022949</ele>
        <time>2012-06-28T07:54:41Z</time>
      </trkpt>
      <trkpt lat="48.8958" lon="5.79255">
        <ele>237.1022949</ele>
        <time>2012-06-28T07:54:42Z</time>
      </trkpt>
      <trkpt lat="48.89565" lon="5.79241">
        <ele>237.1022949</ele>
        <time>2012-06-28T07:54:47Z</time>
      </trkpt>
      <trkpt lat="48.89559" lon="5.7924">
        <ele>237.1022949</ele>
        <time>2012-06-28T07:54:53Z</time>
      </trkpt>
      <trkpt lat="48.8956" lon="5.79241">
        <ele>236.6217041</ele>
        <time>2012-06-28T07:55:53Z</time>
      </trkpt>
      <trkpt lat="48.89549" lon="5.79237">
        <ele>237.1022949</ele>
        <time>2012-06-28T07:55:58Z</time>
      </trkpt>
      <trkpt lat="48.89527" lon="5.79229">
        <ele>237.1022949</ele>
        <time>2012-06-28T07:56:06Z</time>
      </trkpt>
      <trkpt lat="48.89501" lon="5.79222">
        <ele>238.0635986</ele>
        <time>2012-06-28T07:56:13Z</time>
      </trkpt>
      <trkpt lat="48.89473" lon="5.79214">
        <ele>239.0249023</ele>
        <time>2012-06-28T07:56:20Z</time>
      </trkpt>
      <trkpt lat="48.89439" lon="5.7921">
        <ele>238.5443115</ele>
        <time>2012-06-28T07:56:28Z</time>
      </trkpt>
      <trkpt lat="48.89409" lon="5.79221">
        <ele>238.0635986</ele>
        <time>2012-06-28T07:56:34Z</time>
      </trkpt>
      <trkpt lat="48.89362" lon="5.79239">
        <ele>236.6217041</ele>
        <time>2012-06-28T07:56:42Z</time>
      </trkpt>
      <trkpt lat="48.89317" lon="5.79257">
        <ele>237.5828857</ele>
        <time>2012-06-28T07:56:50Z</time>
      </trkpt>
      <trkpt lat="48.89286" lon="5.79269">
        <ele>237.5828857</ele>
        <time>2012-06-28T07:56:57Z</time>
      </trkpt>
      <trkpt lat="48.89279" lon="5.79272">
        <ele>236.6217041</ele>
        <time>2012-06-28T07:56:59Z</time>
      </trkpt>
      <trkpt lat="48.89271" lon="5.79275">
        <ele>237.5828857</ele>
        <time>2012-06-28T07:57:01Z</time>
      </trkpt>
      <trkpt lat="48.89267" lon="5.79277">
        <ele>237.5828857</ele>
        <time>2012-06-28T07:57:02Z</time>
      </trkpt>
      <trkpt lat="48.89241" lon="5.79287">
        <ele>236.6217041</ele>
        <time>2012-06-28T07:57:09Z</time>
      </trkpt>
      <trkpt lat="48.89234" lon="5.79291">
        <ele>236.1409912</ele>
        <time>2012-06-28T07:57:14Z</time>
      </trkpt>
      <trkpt lat="48.8923" lon="5.79293">
        <ele>235.6602783</ele>
        <time>2012-06-28T07:57:17Z</time>
      </trkpt>
      <trkpt lat="48.89228" lon="5.79293">
        <ele>235.1796875</ele>
        <time>2012-06-28T07:57:18Z</time>
      </trkpt>
      <trkpt lat="48.89223" lon="5.79292">
        <ele>235.1796875</ele>
        <time>2012-06-28T07:57:22Z</time>
      </trkpt>
      <trkpt lat="48.89222" lon="5.79293">
        <ele>235.6602783</ele>
        <time>2012-06-28T07:57:26Z</time>
      </trkpt>
      <trkpt lat="48.89222" lon="5.79293">
        <ele>235.1796875</ele>
        <time>2012-06-28T07:57:33Z</time>
      </trkpt>
      <trkpt lat="48.8922" lon="5.79295">
        <ele>235.6602783</ele>
        <time>2012-06-28T07:57:34Z</time>
      </trkpt>
      <trkpt lat="48.89223" lon="5.79303">
        <ele>236.1409912</ele>
        <time>2012-06-28T07:57:38Z</time>
      </trkpt>
      <trkpt lat="48.89225" lon="5.79302">
        <ele>236.1409912</ele>
        <time>2012-06-28T07:57:39Z</time>
      </trkpt>
      <trkpt lat="48.89246" lon="5.79294">
        <ele>237.1022949</ele>
        <time>2012-06-28T07:57:47Z</time>
      </trkpt>
      <trkpt lat="48.8926" lon="5.79289">
        <ele>237.5828857</ele>
        <time>2012-06-28T07:57:51Z</time>
      </trkpt>
      <trkpt lat="48.89272" lon="5.79304">
        <ele>238.0635986</ele>
        <time>2012-06-28T07:57:55Z</time>
      </trkpt>
      <trkpt lat="48.8927" lon="5.79322">
        <ele>237.5828857</ele>
        <time>2012-06-28T07:57:58Z</time>
      </trkpt>
      <trkpt lat="48.8926" lon="5.79371">
        <ele>238.0635986</ele>
        <time>2012-06-28T07:58:06Z</time>
      </trkpt>
      <trkpt lat="48.89249" lon="5.79414">
        <ele>239.5054932</ele>
        <time>2012-06-28T07:58:13Z</time>
      </trkpt>
      <trkpt lat="48.89247" lon="5.79421">
        <ele>239.5054932</ele>
        <time>2012-06-28T07:58:14Z</time>
      </trkpt>
      <trkpt lat="48.8924" lon="5.79473">
        <ele>239.9862061</ele>
        <time>2012-06-28T07:58:21Z</time>
      </trkpt>
      <trkpt lat="48.89237" lon="5.7952">
        <ele>240.467041</ele>
        <time>2012-06-28T07:58:27Z</time>
      </trkpt>
      <trkpt lat="48.89227" lon="5.79575">
        <ele>240.467041</ele>
        <time>2012-06-28T07:58:34Z</time>
      </trkpt>
      <trkpt lat="48.89213" lon="5.79632">
        <ele>238.5443115</ele>
        <time>2012-06-28T07:58:40Z</time>
      </trkpt>
      <trkpt lat="48.89203" lon="5.79672">
        <ele>239.5054932</ele>
        <time>2012-06-28T07:58:44Z</time>
      </trkpt>
      <trkpt lat="48.89201" lon="5.7968">
        <ele>239.5054932</ele>
        <time>2012-06-28T07:58:45Z</time>
      </trkpt>
      <trkpt lat="48.89199" lon="5.79688">
        <ele>238.5443115</ele>
        <time>2012-06-28T07:58:48Z</time>
      </trkpt>
      <trkpt lat="48.89199" lon="5.79715">
        <ele>237.1022949</ele>
        <time>2012-06-28T07:58:49Z</time>
      </trkpt>
      <trkpt lat="48.89208" lon="5.7974">
        <ele>238.5443115</ele>
        <time>2012-06-28T07:58:52Z</time>
      </trkpt>
      <trkpt lat="48.89243" lon="5.79796">
        <ele>240.9476318</ele>
        <time>2012-06-28T07:59:01Z</time>
      </trkpt>
      <trkpt lat="48.89254" lon="5.79834">
        <ele>241.9089355</ele>
        <time>2012-06-28T07:59:06Z</time>
      </trkpt>
      <trkpt lat="48.89254" lon="5.79851">
        <ele>241.9089355</ele>
        <time>2012-06-28T07:59:08Z</time>
      </trkpt>
      <trkpt lat="48.8925" lon="5.79924">
        <ele>244.3122559</ele>
        <time>2012-06-28T07:59:17Z</time>
      </trkpt>
      <trkpt lat="48.89242" lon="5.79997">
        <ele>244.3122559</ele>
        <time>2012-06-28T07:59:26Z</time>
      </trkpt>
      <trkpt lat="48.8923" lon="5.80077">
        <ele>243.831543</ele>
        <time>2012-06-28T07:59:35Z</time>
      </trkpt>
      <trkpt lat="48.89219" lon="5.80167">
        <ele>243.831543</ele>
        <time>2012-06-28T07:59:45Z</time>
      </trkpt>
      <trkpt lat="48.89212" lon="5.80227">
        <ele>245.2734375</ele>
        <time>2012-06-28T07:59:53Z</time>
      </trkpt>
      <trkpt lat="48.89204" lon="5.80287">
        <ele>245.7541504</ele>
        <time>2012-06-28T08:00:01Z</time>
      </trkpt>
      <trkpt lat="48.89196" lon="5.80343">
        <ele>246.7154541</ele>
        <time>2012-06-28T08:00:08Z</time>
      </trkpt>
      <trkpt lat="48.89188" lon="5.80379">
        <ele>246.7154541</ele>
        <time>2012-06-28T08:00:14Z</time>
      </trkpt>
      <trkpt lat="48.89174" lon="5.80408">
        <ele>246.7154541</ele>
        <time>2012-06-28T08:00:21Z</time>
      </trkpt>
      <trkpt lat="48.89151" lon="5.80436">
        <ele>246.2348633</ele>
        <time>2012-06-28T08:00:28Z</time>
      </trkpt>
      <trkpt lat="48.8912" lon="5.80462">
        <ele>246.7154541</ele>
        <time>2012-06-28T08:00:37Z</time>
      </trkpt>
      <trkpt lat="48.89093" lon="5.80486">
        <ele>247.1960449</ele>
        <time>2012-06-28T08:00:45Z</time>
      </trkpt>
      <trkpt lat="48.89055" lon="5.80522">
        <ele>246.7154541</ele>
        <time>2012-06-28T08:00:56Z</time>
      </trkpt>
      <trkpt lat="48.89019" lon="5.80555">
        <ele>245.2734375</ele>
        <time>2012-06-28T08:01:04Z</time>
      </trkpt>
      <trkpt lat="48.88973" lon="5.80599">
        <ele>246.2348633</ele>
        <time>2012-06-28T08:01:13Z</time>
      </trkpt>
      <trkpt lat="48.88942" lon="5.80629">
        <ele>247.1960449</ele>
        <time>2012-06-28T08:01:20Z</time>
      </trkpt>
      <trkpt lat="48.88909" lon="5.80664">
        <ele>248.6381836</ele>
        <time>2012-06-28T08:01:28Z</time>
      </trkpt>
      <trkpt lat="48.8888" lon="5.80696">
        <ele>248.6381836</ele>
        <time>2012-06-28T08:01:35Z</time>
      </trkpt>
      <trkpt lat="48.88842" lon="5.80734">
        <ele>249.1187744</ele>
        <time>2012-06-28T08:01:43Z</time>
      </trkpt>
      <trkpt lat="48.88795" lon="5.80778">
        <ele>249.1187744</ele>
        <time>2012-06-28T08:01:53Z</time>
      </trkpt>
      <trkpt lat="48.88777" lon="5.80798">
        <ele>249.1187744</ele>
        <time>2012-06-28T08:01:57Z</time>
      </trkpt>
      <trkpt lat="48.88765" lon="5.80829">
        <ele>248.6381836</ele>
        <time>2012-06-28T08:02:01Z</time>
      </trkpt>
      <trkpt lat="48.88763" lon="5.80848">
        <ele>249.1187744</ele>
        <time>2012-06-28T08:02:03Z</time>
      </trkpt>
      <trkpt lat="48.88762" lon="5.80942">
        <ele>249.1187744</ele>
        <time>2012-06-28T08:02:13Z</time>
      </trkpt>
      <trkpt lat="48.88762" lon="5.81014">
        <ele>248.6381836</ele>
        <time>2012-06-28T08:02:21Z</time>
      </trkpt>
      <trkpt lat="48.88765" lon="5.81084">
        <ele>250.0802002</ele>
        <time>2012-06-28T08:02:29Z</time>
      </trkpt>
      <trkpt lat="48.88767" lon="5.81154">
        <ele>250.560791</ele>
        <time>2012-06-28T08:02:37Z</time>
      </trkpt>
      <trkpt lat="48.88769" lon="5.81215">
        <ele>249.1187744</ele>
        <time>2012-06-28T08:02:44Z</time>
      </trkpt>
      <trkpt lat="48.88767" lon="5.81311">
        <ele>250.0802002</ele>
        <time>2012-06-28T08:02:55Z</time>
      </trkpt>
      <trkpt lat="48.88768" lon="5.8138">
        <ele>251.0413818</ele>
        <time>2012-06-28T08:03:03Z</time>
      </trkpt>
      <trkpt lat="48.88777" lon="5.81462">
        <ele>251.0413818</ele>
        <time>2012-06-28T08:03:13Z</time>
      </trkpt>
      <trkpt lat="48.88787" lon="5.8153">
        <ele>252.0028076</ele>
        <time>2012-06-28T08:03:22Z</time>
      </trkpt>
      <trkpt lat="48.88795" lon="5.81592">
        <ele>252.4833984</ele>
        <time>2012-06-28T08:03:30Z</time>
      </trkpt>
      <trkpt lat="48.88801" lon="5.81659">
        <ele>253.4447021</ele>
        <time>2012-06-28T08:03:38Z</time>
      </trkpt>
      <trkpt lat="48.88801" lon="5.81667">
        <ele>252.9639893</ele>
        <time>2012-06-28T08:03:39Z</time>
      </trkpt>
      <trkpt lat="48.88794" lon="5.817">
        <ele>253.4447021</ele>
        <time>2012-06-28T08:03:43Z</time>
      </trkpt>
      <trkpt lat="48.88778" lon="5.81716">
        <ele>253.4447021</ele>
        <time>2012-06-28T08:03:46Z</time>
      </trkpt>
      <trkpt lat="48.88728" lon="5.81749">
        <ele>254.4060059</ele>
        <time>2012-06-28T08:03:56Z</time>
      </trkpt>
      <trkpt lat="48.88691" lon="5.81774">
        <ele>256.8093262</ele>
        <time>2012-06-28T08:04:04Z</time>
      </trkpt>
      <trkpt lat="48.88663" lon="5.81796">
        <ele>257.2900391</ele>
        <time>2012-06-28T08:04:10Z</time>
      </trkpt>
      <trkpt lat="48.8863" lon="5.81826">
        <ele>258.2513428</ele>
        <time>2012-06-28T08:04:17Z</time>
      </trkpt>
      <trkpt lat="48.88616" lon="5.81862">
        <ele>258.7319336</ele>
        <time>2012-06-28T08:04:22Z</time>
      </trkpt>
      <trkpt lat="48.88609" lon="5.81893">
        <ele>259.2126465</ele>
        <time>2012-06-28T08:04:26Z</time>
      </trkpt>
      <trkpt lat="48.88603" lon="5.81915">
        <ele>259.2126465</ele>
        <time>2012-06-28T08:04:29Z</time>
      </trkpt>
      <trkpt lat="48.88588" lon="5.81953">
        <ele>261.1352539</ele>
        <time>2012-06-28T08:04:34Z</time>
      </trkpt>
      <trkpt lat="48.88558" lon="5.81996">
        <ele>260.1739502</ele>
        <time>2012-06-28T08:04:41Z</time>
      </trkpt>
      <trkpt lat="48.88524" lon="5.82045">
        <ele>261.1352539</ele>
        <time>2012-06-28T08:04:49Z</time>
      </trkpt>
      <trkpt lat="48.88498" lon="5.82084">
        <ele>263.0578613</ele>
        <time>2012-06-28T08:04:56Z</time>
      </trkpt>
      <trkpt lat="48.88474" lon="5.82129">
        <ele>264.9805908</ele>
        <time>2012-06-28T08:05:04Z</time>
      </trkpt>
      <trkpt lat="48.88455" lon="5.82176">
        <ele>266.4224854</ele>
        <time>2012-06-28T08:05:11Z</time>
      </trkpt>
      <trkpt lat="48.88444" lon="5.82216">
        <ele>268.3450928</ele>
        <time>2012-06-28T08:05:17Z</time>
      </trkpt>
      <trkpt lat="48.88435" lon="5.82262">
        <ele>268.8258057</ele>
        <time>2012-06-28T08:05:24Z</time>
      </trkpt>
      <trkpt lat="48.88432" lon="5.82288">
        <ele>269.3065186</ele>
        <time>2012-06-28T08:05:28Z</time>
      </trkpt>
      <trkpt lat="48.88427" lon="5.8233">
        <ele>270.7484131</ele>
        <time>2012-06-28T08:05:35Z</time>
      </trkpt>
      <trkpt lat="48.88421" lon="5.82361">
        <ele>271.229126</ele>
        <time>2012-06-28T08:05:40Z</time>
      </trkpt>
      <trkpt lat="48.88417" lon="5.82389">
        <ele>272.1904297</ele>
        <time>2012-06-28T08:05:45Z</time>
      </trkpt>
      <trkpt lat="48.88411" lon="5.82431">
        <ele>273.6324463</ele>
        <time>2012-06-28T08:05:52Z</time>
      </trkpt>
      <trkpt lat="48.88403" lon="5.82475">
        <ele>276.0356445</ele>
        <time>2012-06-28T08:06:00Z</time>
      </trkpt>
      <trkpt lat="48.88396" lon="5.82514">
        <ele>277.958252</ele>
        <time>2012-06-28T08:06:07Z</time>
      </trkpt>
      <trkpt lat="48.88384" lon="5.82561">
        <ele>279.4002686</ele>
        <time>2012-06-28T08:06:15Z</time>
      </trkpt>
      <trkpt lat="48.88378" lon="5.82596">
        <ele>280.8424072</ele>
        <time>2012-06-28T08:06:21Z</time>
      </trkpt>
      <trkpt lat="48.88372" lon="5.82635">
        <ele>282.2843018</ele>
        <time>2012-06-28T08:06:28Z</time>
      </trkpt>
      <trkpt lat="48.88371" lon="5.82673">
        <ele>283.2456055</ele>
        <time>2012-06-28T08:06:35Z</time>
      </trkpt>
      <trkpt lat="48.88368" lon="5.82715">
        <ele>285.1682129</ele>
        <time>2012-06-28T08:06:43Z</time>
      </trkpt>
      <trkpt lat="48.88365" lon="5.82739">
        <ele>286.1295166</ele>
        <time>2012-06-28T08:06:48Z</time>
      </trkpt>
      <trkpt lat="48.88361" lon="5.82768">
        <ele>289.0135498</ele>
        <time>2012-06-28T08:06:54Z</time>
      </trkpt>
      <trkpt lat="48.88355" lon="5.82798">
        <ele>289.9748535</ele>
        <time>2012-06-28T08:07:01Z</time>
      </trkpt>
      <trkpt lat="48.88347" lon="5.82825">
        <ele>291.416748</ele>
        <time>2012-06-28T08:07:08Z</time>
      </trkpt>
      <trkpt lat="48.88333" lon="5.82854">
        <ele>292.8587646</ele>
        <time>2012-06-28T08:07:15Z</time>
      </trkpt>
      <trkpt lat="48.88324" lon="5.82881">
        <ele>294.7813721</ele>
        <time>2012-06-28T08:07:22Z</time>
      </trkpt>
      <trkpt lat="48.88315" lon="5.82913">
        <ele>296.7041016</ele>
        <time>2012-06-28T08:07:30Z</time>
      </trkpt>
      <trkpt lat="48.8831" lon="5.82949">
        <ele>297.1846924</ele>
        <time>2012-06-28T08:07:38Z</time>
      </trkpt>
      <trkpt lat="48.88312" lon="5.82983">
        <ele>298.626709</ele>
        <time>2012-06-28T08:07:45Z</time>
      </trkpt>
      <trkpt lat="48.88313" lon="5.8302">
        <ele>299.5880127</ele>
        <time>2012-06-28T08:07:52Z</time>
      </trkpt>
      <trkpt lat="48.88314" lon="5.83065">
        <ele>301.5106201</ele>
        <time>2012-06-28T08:08:00Z</time>
      </trkpt>
      <trkpt lat="48.88315" lon="5.83108">
        <ele>302.4719238</ele>
        <time>2012-06-28T08:08:07Z</time>
      </trkpt>
      <trkpt lat="48.88314" lon="5.83143">
        <ele>303.4332275</ele>
        <time>2012-06-28T08:08:13Z</time>
      </trkpt>
      <trkpt lat="48.8831" lon="5.8318">
        <ele>303.9139404</ele>
        <time>2012-06-28T08:08:19Z</time>
      </trkpt>
      <trkpt lat="48.88303" lon="5.83217">
        <ele>304.8752441</ele>
        <time>2012-06-28T08:08:25Z</time>
      </trkpt>
      <trkpt lat="48.88289" lon="5.83271">
        <ele>305.8366699</ele>
        <time>2012-06-28T08:08:33Z</time>
      </trkpt>
      <trkpt lat="48.88278" lon="5.83321">
        <ele>306.3172607</ele>
        <time>2012-06-28T08:08:40Z</time>
      </trkpt>
      <trkpt lat="48.88275" lon="5.83335">
        <ele>306.3172607</ele>
        <time>2012-06-28T08:08:42Z</time>
      </trkpt>
      <trkpt lat="48.88265" lon="5.83394">
        <ele>307.7592773</ele>
        <time>2012-06-28T08:08:51Z</time>
      </trkpt>
      <trkpt lat="48.88258" lon="5.83436">
        <ele>309.2011719</ele>
        <time>2012-06-28T08:08:58Z</time>
      </trkpt>
      <trkpt lat="48.8825" lon="5.8348">
        <ele>311.1237793</ele>
        <time>2012-06-28T08:09:05Z</time>
      </trkpt>
      <trkpt lat="48.88243" lon="5.8352">
        <ele>311.6044922</ele>
        <time>2012-06-28T08:09:11Z</time>
      </trkpt>
      <trkpt lat="48.88234" lon="5.8357">
        <ele>312.5657959</ele>
        <time>2012-06-28T08:09:19Z</time>
      </trkpt>
      <trkpt lat="48.88222" lon="5.83615">
        <ele>313.5272217</ele>
        <time>2012-06-28T08:09:26Z</time>
      </trkpt>
      <trkpt lat="48.88202" lon="5.83647">
        <ele>314.9691162</ele>
        <time>2012-06-28T08:09:33Z</time>
      </trkpt>
      <trkpt lat="48.88185" lon="5.83667">
        <ele>316.8917236</ele>
        <time>2012-06-28T08:09:38Z</time>
      </trkpt>
      <trkpt lat="48.88157" lon="5.83695">
        <ele>316.8917236</ele>
        <time>2012-06-28T08:09:45Z</time>
      </trkpt>
      <trkpt lat="48.88125" lon="5.83728">
        <ele>317.8530273</ele>
        <time>2012-06-28T08:09:53Z</time>
      </trkpt>
      <trkpt lat="48.88089" lon="5.83763">
        <ele>317.8530273</ele>
        <time>2012-06-28T08:10:01Z</time>
      </trkpt>
      <trkpt lat="48.88054" lon="5.83793">
        <ele>317.3724365</ele>
        <time>2012-06-28T08:10:08Z</time>
      </trkpt>
      <trkpt lat="48.8802" lon="5.83811">
        <ele>315.9304199</ele>
        <time>2012-06-28T08:10:14Z</time>
      </trkpt>
      <trkpt lat="48.87972" lon="5.8383">
        <ele>314.9691162</ele>
        <time>2012-06-28T08:10:21Z</time>
      </trkpt>
      <trkpt lat="48.87937" lon="5.83857">
        <ele>311.6044922</ele>
        <time>2012-06-28T08:10:26Z</time>
      </trkpt>
      <trkpt lat="48.87906" lon="5.839">
        <ele>310.6430664</ele>
        <time>2012-06-28T08:10:31Z</time>
      </trkpt>
      <trkpt lat="48.87876" lon="5.83945">
        <ele>307.7592773</ele>
        <time>2012-06-28T08:10:36Z</time>
      </trkpt>
      <trkpt lat="48.87864" lon="5.83962">
        <ele>308.2398682</ele>
        <time>2012-06-28T08:10:38Z</time>
      </trkpt>
      <trkpt lat="48.87836" lon="5.8401">
        <ele>305.355957</ele>
        <time>2012-06-28T08:10:43Z</time>
      </trkpt>
      <trkpt lat="48.87814" lon="5.84067">
        <ele>302.9525146</ele>
        <time>2012-06-28T08:10:48Z</time>
      </trkpt>
      <trkpt lat="48.87801" lon="5.84132">
        <ele>301.0299072</ele>
        <time>2012-06-28T08:10:53Z</time>
      </trkpt>
      <trkpt lat="48.87793" lon="5.84169">
        <ele>300.0687256</ele>
        <time>2012-06-28T08:10:56Z</time>
      </trkpt>
      <trkpt lat="48.87775" lon="5.84206">
        <ele>299.5880127</ele>
        <time>2012-06-28T08:11:00Z</time>
      </trkpt>
      <trkpt lat="48.87739" lon="5.84263">
        <ele>299.5880127</ele>
        <time>2012-06-28T08:11:07Z</time>
      </trkpt>
      <trkpt lat="48.87708" lon="5.84325">
        <ele>297.6654053</ele>
        <time>2012-06-28T08:11:14Z</time>
      </trkpt>
      <trkpt lat="48.87676" lon="5.84395">
        <ele>295.7426758</ele>
        <time>2012-06-28T08:11:22Z</time>
      </trkpt>
      <trkpt lat="48.8767" lon="5.84431">
        <ele>294.3007813</ele>
        <time>2012-06-28T08:11:26Z</time>
      </trkpt>
      <trkpt lat="48.87674" lon="5.84449">
        <ele>295.2619629</ele>
        <time>2012-06-28T08:11:28Z</time>
      </trkpt>
      <trkpt lat="48.87687" lon="5.84488">
        <ele>294.3007813</ele>
        <time>2012-06-28T08:11:33Z</time>
      </trkpt>
      <trkpt lat="48.8771" lon="5.84553">
        <ele>294.7813721</ele>
        <time>2012-06-28T08:11:41Z</time>
      </trkpt>
      <trkpt lat="48.87725" lon="5.84595">
        <ele>293.3393555</ele>
        <time>2012-06-28T08:11:46Z</time>
      </trkpt>
      <trkpt lat="48.8774" lon="5.8465">
        <ele>292.3781738</ele>
        <time>2012-06-28T08:11:52Z</time>
      </trkpt>
      <trkpt lat="48.87745" lon="5.84677">
        <ele>290.9361572</ele>
        <time>2012-06-28T08:11:56Z</time>
      </trkpt>
      <trkpt lat="48.87749" lon="5.84697">
        <ele>290.4555664</ele>
        <time>2012-06-28T08:12:00Z</time>
      </trkpt>
      <trkpt lat="48.8775" lon="5.84699">
        <ele>289.4941406</ele>
        <time>2012-06-28T08:12:02Z</time>
      </trkpt>
      <trkpt lat="48.8775" lon="5.84699">
        <ele>289.9748535</ele>
        <time>2012-06-28T08:12:03Z</time>
      </trkpt>
      <trkpt lat="48.87747" lon="5.84699">
        <ele>290.4555664</ele>
        <time>2012-06-28T08:12:22Z</time>
      </trkpt>
      <trkpt lat="48.87747" lon="5.847">
        <ele>290.4555664</ele>
        <time>2012-06-28T08:12:23Z</time>
      </trkpt>
      <trkpt lat="48.87742" lon="5.84708">
        <ele>290.9361572</ele>
        <time>2012-06-28T08:12:27Z</time>
      </trkpt>
      <trkpt lat="48.87718" lon="5.84714">
        <ele>287.5714111</ele>
        <time>2012-06-28T08:12:33Z</time>
      </trkpt>
      <trkpt lat="48.87712" lon="5.84715">
        <ele>287.5714111</ele>
        <time>2012-06-28T08:12:34Z</time>
      </trkpt>
      <trkpt lat="48.87676" lon="5.84724">
        <ele>287.0908203</ele>
        <time>2012-06-28T08:12:40Z</time>
      </trkpt>
      <trkpt lat="48.87636" lon="5.84733">
        <ele>285.6488037</ele>
        <time>2012-06-28T08:12:46Z</time>
      </trkpt>
      <trkpt lat="48.8763" lon="5.84734">
        <ele>285.6488037</ele>
        <time>2012-06-28T08:12:47Z</time>
      </trkpt>
      <trkpt lat="48.87584" lon="5.84745">
        <ele>285.6488037</ele>
        <time>2012-06-28T08:12:55Z</time>
      </trkpt>
      <trkpt lat="48.87551" lon="5.84748">
        <ele>284.6876221</ele>
        <time>2012-06-28T08:13:02Z</time>
      </trkpt>
      <trkpt lat="48.87537" lon="5.84743">
        <ele>284.2069092</ele>
        <time>2012-06-28T08:13:07Z</time>
      </trkpt>
      <trkpt lat="48.87533" lon="5.84739">
        <ele>284.6876221</ele>
        <time>2012-06-28T08:13:12Z</time>
      </trkpt>
      <trkpt lat="48.87533" lon="5.84739">
        <ele>284.6876221</ele>
        <time>2012-06-28T08:14:06Z</time>
      </trkpt>
      <trkpt lat="48.87533" lon="5.84739">
        <ele>284.6876221</ele>
        <time>2012-06-28T08:14:07Z</time>
      </trkpt>
      <trkpt lat="48.87533" lon="5.84738">
        <ele>284.2069092</ele>
        <time>2012-06-28T08:14:23Z</time>
      </trkpt>
      <trkpt lat="48.87534" lon="5.84735">
        <ele>284.6876221</ele>
        <time>2012-06-28T08:14:27Z</time>
      </trkpt>
      <trkpt lat="48.87533" lon="5.84737">
        <ele>284.6876221</ele>
        <time>2012-06-28T08:15:16Z</time>
      </trkpt>
      <trkpt lat="48.87532" lon="5.8474">
        <ele>284.6876221</ele>
        <time>2012-06-28T08:15:21Z</time>
      </trkpt>
      <trkpt lat="48.8753" lon="5.84742">
        <ele>284.6876221</ele>
        <time>2012-06-28T08:15:25Z</time>
      </trkpt>
      <trkpt lat="48.87529" lon="5.84742">
        <ele>284.6876221</ele>
        <time>2012-06-28T08:15:28Z</time>
      </trkpt>
      <trkpt lat="48.87526" lon="5.84752">
        <ele>285.1682129</ele>
        <time>2012-06-28T08:15:32Z</time>
      </trkpt>
      <trkpt lat="48.87529" lon="5.84761">
        <ele>285.1682129</ele>
        <time>2012-06-28T08:15:34Z</time>
      </trkpt>
      <trkpt lat="48.87548" lon="5.84809">
        <ele>283.7261963</ele>
        <time>2012-06-28T08:15:41Z</time>
      </trkpt>
      <trkpt lat="48.87561" lon="5.84857">
        <ele>282.2843018</ele>
        <time>2012-06-28T08:15:46Z</time>
      </trkpt>
      <trkpt lat="48.87576" lon="5.84943">
        <ele>280.3616943</ele>
        <time>2012-06-28T08:15:53Z</time>
      </trkpt>
      <trkpt lat="48.87589" lon="5.85017">
        <ele>279.8808594</ele>
        <time>2012-06-28T08:15:59Z</time>
      </trkpt>
      <trkpt lat="48.87599" lon="5.85078">
        <ele>281.322998</ele>
        <time>2012-06-28T08:16:05Z</time>
      </trkpt>
      <trkpt lat="48.87611" lon="5.85147">
        <ele>283.7261963</ele>
        <time>2012-06-28T08:16:13Z</time>
      </trkpt>
      <trkpt lat="48.87627" lon="5.85208">
        <ele>284.6876221</ele>
        <time>2012-06-28T08:16:21Z</time>
      </trkpt>
      <trkpt lat="48.87645" lon="5.85257">
        <ele>287.0908203</ele>
        <time>2012-06-28T08:16:28Z</time>
      </trkpt>
      <trkpt lat="48.87659" lon="5.85291">
        <ele>288.0522461</ele>
        <time>2012-06-28T08:16:33Z</time>
      </trkpt>
      <trkpt lat="48.87677" lon="5.85342">
        <ele>288.532959</ele>
        <time>2012-06-28T08:16:40Z</time>
      </trkpt>
      <trkpt lat="48.87692" lon="5.85389">
        <ele>290.4555664</ele>
        <time>2012-06-28T08:16:47Z</time>
      </trkpt>
      <trkpt lat="48.87703" lon="5.85435">
        <ele>291.416748</ele>
        <time>2012-06-28T08:16:54Z</time>
      </trkpt>
      <trkpt lat="48.8771" lon="5.85464">
        <ele>291.416748</ele>
        <time>2012-06-28T08:16:58Z</time>
      </trkpt>
      <trkpt lat="48.87725" lon="5.85531">
        <ele>293.3393555</ele>
        <time>2012-06-28T08:17:07Z</time>
      </trkpt>
      <trkpt lat="48.87737" lon="5.85596">
        <ele>295.7426758</ele>
        <time>2012-06-28T08:17:16Z</time>
      </trkpt>
      <trkpt lat="48.87749" lon="5.85655">
        <ele>297.6654053</ele>
        <time>2012-06-28T08:17:25Z</time>
      </trkpt>
      <trkpt lat="48.8776" lon="5.85704">
        <ele>298.626709</ele>
        <time>2012-06-28T08:17:32Z</time>
      </trkpt>
      <trkpt lat="48.87773" lon="5.85767">
        <ele>301.0299072</ele>
        <time>2012-06-28T08:17:41Z</time>
      </trkpt>
      <trkpt lat="48.87786" lon="5.8582">
        <ele>301.5106201</ele>
        <time>2012-06-28T08:17:49Z</time>
      </trkpt>
      <trkpt lat="48.87798" lon="5.85874">
        <ele>302.9525146</ele>
        <time>2012-06-28T08:17:57Z</time>
      </trkpt>
      <trkpt lat="48.87811" lon="5.85932">
        <ele>303.9139404</ele>
        <time>2012-06-28T08:18:06Z</time>
      </trkpt>
      <trkpt lat="48.87824" lon="5.85989">
        <ele>304.8752441</ele>
        <time>2012-06-28T08:18:14Z</time>
      </trkpt>
      <trkpt lat="48.87827" lon="5.86004">
        <ele>305.355957</ele>
        <time>2012-06-28T08:18:16Z</time>
      </trkpt>
      <trkpt lat="48.87845" lon="5.86077">
        <ele>305.8366699</ele>
        <time>2012-06-28T08:18:26Z</time>
      </trkpt>
      <trkpt lat="48.87864" lon="5.86158">
        <ele>307.2785645</ele>
        <time>2012-06-28T08:18:37Z</time>
      </trkpt>
      <trkpt lat="48.8788" lon="5.86223">
        <ele>307.7592773</ele>
        <time>2012-06-28T08:18:46Z</time>
      </trkpt>
      <trkpt lat="48.8789" lon="5.86267">
        <ele>309.2011719</ele>
        <time>2012-06-28T08:18:52Z</time>
      </trkpt>
      <trkpt lat="48.87905" lon="5.86326">
        <ele>309.2011719</ele>
        <time>2012-06-28T08:19:00Z</time>
      </trkpt>
      <trkpt lat="48.87925" lon="5.86407">
        <ele>309.6818848</ele>
        <time>2012-06-28T08:19:11Z</time>
      </trkpt>
      <trkpt lat="48.87943" lon="5.86484">
        <ele>311.6044922</ele>
        <time>2012-06-28T08:19:21Z</time>
      </trkpt>
      <trkpt lat="48.87962" lon="5.8656">
        <ele>311.1237793</ele>
        <time>2012-06-28T08:19:31Z</time>
      </trkpt>
      <trkpt lat="48.8798" lon="5.86636">
        <ele>312.0852051</ele>
        <time>2012-06-28T08:19:41Z</time>
      </trkpt>
      <trkpt lat="48.87995" lon="5.86697">
        <ele>313.0465088</ele>
        <time>2012-06-28T08:19:49Z</time>
      </trkpt>
      <trkpt lat="48.88008" lon="5.86753">
        <ele>313.0465088</ele>
        <time>2012-06-28T08:19:56Z</time>
      </trkpt>
      <trkpt lat="48.88023" lon="5.86819">
        <ele>312.5657959</ele>
        <time>2012-06-28T08:20:04Z</time>
      </trkpt>
      <trkpt lat="48.88044" lon="5.86905">
        <ele>312.5657959</ele>
        <time>2012-06-28T08:20:14Z</time>
      </trkpt>
      <trkpt lat="48.88062" lon="5.86977">
        <ele>312.0852051</ele>
        <time>2012-06-28T08:20:22Z</time>
      </trkpt>
      <trkpt lat="48.88078" lon="5.87046">
        <ele>311.6044922</ele>
        <time>2012-06-28T08:20:29Z</time>
      </trkpt>
      <trkpt lat="48.88099" lon="5.87135">
        <ele>311.1237793</ele>
        <time>2012-06-28T08:20:37Z</time>
      </trkpt>
      <trkpt lat="48.88104" lon="5.87159">
        <ele>309.6818848</ele>
        <time>2012-06-28T08:20:39Z</time>
      </trkpt>
      <trkpt lat="48.88128" lon="5.87259">
        <ele>306.3172607</ele>
        <time>2012-06-28T08:20:47Z</time>
      </trkpt>
      <trkpt lat="48.88147" lon="5.87335">
        <ele>307.2785645</ele>
        <time>2012-06-28T08:20:53Z</time>
      </trkpt>
      <trkpt lat="48.88164" lon="5.87407">
        <ele>305.8366699</ele>
        <time>2012-06-28T08:20:59Z</time>
      </trkpt>
      <trkpt lat="48.88184" lon="5.87486">
        <ele>305.8366699</ele>
        <time>2012-06-28T08:21:06Z</time>
      </trkpt>
      <trkpt lat="48.88204" lon="5.87572">
        <ele>306.3172607</ele>
        <time>2012-06-28T08:21:14Z</time>
      </trkpt>
      <trkpt lat="48.88227" lon="5.87673">
        <ele>307.7592773</ele>
        <time>2012-06-28T08:21:23Z</time>
      </trkpt>
      <trkpt lat="48.88247" lon="5.87764">
        <ele>306.3172607</ele>
        <time>2012-06-28T08:21:31Z</time>
      </trkpt>
      <trkpt lat="48.88269" lon="5.87858">
        <ele>305.8366699</ele>
        <time>2012-06-28T08:21:39Z</time>
      </trkpt>
      <trkpt lat="48.8829" lon="5.87952">
        <ele>301.991333</ele>
        <time>2012-06-28T08:21:46Z</time>
      </trkpt>
      <trkpt lat="48.88293" lon="5.87966">
        <ele>302.4719238</ele>
        <time>2012-06-28T08:21:47Z</time>
      </trkpt>
      <trkpt lat="48.88326" lon="5.88114">
        <ele>300.0687256</ele>
        <time>2012-06-28T08:21:58Z</time>
      </trkpt>
      <trkpt lat="48.88344" lon="5.88194">
        <ele>299.1072998</ele>
        <time>2012-06-28T08:22:04Z</time>
      </trkpt>
      <trkpt lat="48.88371" lon="5.88309">
        <ele>298.626709</ele>
        <time>2012-06-28T08:22:13Z</time>
      </trkpt>
      <trkpt lat="48.88377" lon="5.88335">
        <ele>297.6654053</ele>
        <time>2012-06-28T08:22:15Z</time>
      </trkpt>
      <trkpt lat="48.88398" lon="5.88427">
        <ele>297.1846924</ele>
        <time>2012-06-28T08:22:22Z</time>
      </trkpt>
      <trkpt lat="48.88401" lon="5.8844">
        <ele>298.626709</ele>
        <time>2012-06-28T08:22:23Z</time>
      </trkpt>
      <trkpt lat="48.88434" lon="5.88585">
        <ele>297.1846924</ele>
        <time>2012-06-28T08:22:34Z</time>
      </trkpt>
      <trkpt lat="48.88452" lon="5.88666">
        <ele>296.2235107</ele>
        <time>2012-06-28T08:22:40Z</time>
      </trkpt>
      <trkpt lat="48.88461" lon="5.88706">
        <ele>291.8974609</ele>
        <time>2012-06-28T08:22:43Z</time>
      </trkpt>
      <trkpt lat="48.88464" lon="5.8872">
        <ele>292.8587646</ele>
        <time>2012-06-28T08:22:44Z</time>
      </trkpt>
      <trkpt lat="48.88488" lon="5.88821">
        <ele>292.8587646</ele>
        <time>2012-06-28T08:22:52Z</time>
      </trkpt>
      <trkpt lat="48.88497" lon="5.88864">
        <ele>292.3781738</ele>
        <time>2012-06-28T08:22:56Z</time>
      </trkpt>
      <trkpt lat="48.88509" lon="5.88914">
        <ele>292.3781738</ele>
        <time>2012-06-28T08:23:01Z</time>
      </trkpt>
      <trkpt lat="48.88521" lon="5.88967">
        <ele>293.3393555</ele>
        <time>2012-06-28T08:23:07Z</time>
      </trkpt>
      <trkpt lat="48.88524" lon="5.88976">
        <ele>294.7813721</ele>
        <time>2012-06-28T08:23:08Z</time>
      </trkpt>
      <trkpt lat="48.88535" lon="5.8904">
        <ele>295.7426758</ele>
        <time>2012-06-28T08:23:15Z</time>
      </trkpt>
      <trkpt lat="48.88552" lon="5.89116">
        <ele>298.626709</ele>
        <time>2012-06-28T08:23:24Z</time>
      </trkpt>
      <trkpt lat="48.88572" lon="5.89202">
        <ele>298.626709</ele>
        <time>2012-06-28T08:23:35Z</time>
      </trkpt>
      <trkpt lat="48.88588" lon="5.89273">
        <ele>298.626709</ele>
        <time>2012-06-28T08:23:44Z</time>
      </trkpt>
      <trkpt lat="48.88609" lon="5.89345">
        <ele>299.1072998</ele>
        <time>2012-06-28T08:23:53Z</time>
      </trkpt>
      <trkpt lat="48.88631" lon="5.89412">
        <ele>299.1072998</ele>
        <time>2012-06-28T08:24:01Z</time>
      </trkpt>
      <trkpt lat="48.88658" lon="5.89481">
        <ele>296.2235107</ele>
        <time>2012-06-28T08:24:09Z</time>
      </trkpt>
      <trkpt lat="48.88672" lon="5.89516">
        <ele>295.7426758</ele>
        <time>2012-06-28T08:24:13Z</time>
      </trkpt>
      <trkpt lat="48.88679" lon="5.89531">
        <ele>296.2235107</ele>
        <time>2012-06-28T08:24:15Z</time>
      </trkpt>
      <trkpt lat="48.88691" lon="5.89576">
        <ele>295.7426758</ele>
        <time>2012-06-28T08:24:21Z</time>
      </trkpt>
      <trkpt lat="48.88705" lon="5.89637">
        <ele>295.7426758</ele>
        <time>2012-06-28T08:24:29Z</time>
      </trkpt>
      <trkpt lat="48.88717" lon="5.89698">
        <ele>298.1461182</ele>
        <time>2012-06-28T08:24:37Z</time>
      </trkpt>
      <trkpt lat="48.8873" lon="5.89764">
        <ele>299.5880127</ele>
        <time>2012-06-28T08:24:46Z</time>
      </trkpt>
      <trkpt lat="48.88742" lon="5.89826">
        <ele>300.0687256</ele>
        <time>2012-06-28T08:24:55Z</time>
      </trkpt>
      <trkpt lat="48.88748" lon="5.89856">
        <ele>301.0299072</ele>
        <time>2012-06-28T08:25:00Z</time>
      </trkpt>
      <trkpt lat="48.88758" lon="5.89915">
        <ele>301.5106201</ele>
        <time>2012-06-28T08:25:08Z</time>
      </trkpt>
      <trkpt lat="48.88765" lon="5.89987">
        <ele>302.4719238</ele>
        <time>2012-06-28T08:25:17Z</time>
      </trkpt>
      <trkpt lat="48.8877" lon="5.90062">
        <ele>302.9525146</ele>
        <time>2012-06-28T08:25:26Z</time>
      </trkpt>
      <trkpt lat="48.88774" lon="5.90128">
        <ele>303.4332275</ele>
        <time>2012-06-28T08:25:34Z</time>
      </trkpt>
      <trkpt lat="48.88779" lon="5.90197">
        <ele>302.9525146</ele>
        <time>2012-06-28T08:25:42Z</time>
      </trkpt>
      <trkpt lat="48.88785" lon="5.90286">
        <ele>302.9525146</ele>
        <time>2012-06-28T08:25:52Z</time>
      </trkpt>
      <trkpt lat="48.88791" lon="5.90373">
        <ele>301.991333</ele>
        <time>2012-06-28T08:26:01Z</time>
      </trkpt>
      <trkpt lat="48.88794" lon="5.90412">
        <ele>300.5493164</ele>
        <time>2012-06-28T08:26:05Z</time>
      </trkpt>
      <trkpt lat="48.888" lon="5.90496">
        <ele>301.0299072</ele>
        <time>2012-06-28T08:26:13Z</time>
      </trkpt>
      <trkpt lat="48.88804" lon="5.90552">
        <ele>299.5880127</ele>
        <time>2012-06-28T08:26:18Z</time>
      </trkpt>
      <trkpt lat="48.88806" lon="5.90575">
        <ele>299.1072998</ele>
        <time>2012-06-28T08:26:20Z</time>
      </trkpt>
      <trkpt lat="48.88814" lon="5.90696">
        <ele>297.1846924</ele>
        <time>2012-06-28T08:26:30Z</time>
      </trkpt>
      <trkpt lat="48.88823" lon="5.90821">
        <ele>294.3007813</ele>
        <time>2012-06-28T08:26:40Z</time>
      </trkpt>
      <trkpt lat="48.8883" lon="5.90921">
        <ele>291.8974609</ele>
        <time>2012-06-28T08:26:48Z</time>
      </trkpt>
      <trkpt lat="48.88839" lon="5.91036">
        <ele>289.9748535</ele>
        <time>2012-06-28T08:26:57Z</time>
      </trkpt>
      <trkpt lat="48.88841" lon="5.91062">
        <ele>289.0135498</ele>
        <time>2012-06-28T08:26:59Z</time>
      </trkpt>
      <trkpt lat="48.88843" lon="5.91089">
        <ele>288.0522461</ele>
        <time>2012-06-28T08:27:01Z</time>
      </trkpt>
      <trkpt lat="48.88852" lon="5.91215">
        <ele>287.5714111</ele>
        <time>2012-06-28T08:27:10Z</time>
      </trkpt>
      <trkpt lat="48.88857" lon="5.91285">
        <ele>284.2069092</ele>
        <time>2012-06-28T08:27:15Z</time>
      </trkpt>
      <trkpt lat="48.88867" lon="5.91422">
        <ele>281.8035889</ele>
        <time>2012-06-28T08:27:25Z</time>
      </trkpt>
      <trkpt lat="48.88874" lon="5.91522">
        <ele>281.322998</ele>
        <time>2012-06-28T08:27:32Z</time>
      </trkpt>
      <trkpt lat="48.88884" lon="5.91665">
        <ele>279.8808594</ele>
        <time>2012-06-28T08:27:42Z</time>
      </trkpt>
      <trkpt lat="48.88894" lon="5.91806">
        <ele>277.958252</ele>
        <time>2012-06-28T08:27:52Z</time>
      </trkpt>
      <trkpt lat="48.88901" lon="5.91913">
        <ele>277.4776611</ele>
        <time>2012-06-28T08:28:00Z</time>
      </trkpt>
      <trkpt lat="48.8891" lon="5.92044">
        <ele>276.5163574</ele>
        <time>2012-06-28T08:28:10Z</time>
      </trkpt>
      <trkpt lat="48.88916" lon="5.92146">
        <ele>276.9970703</ele>
        <time>2012-06-28T08:28:18Z</time>
      </trkpt>
      <trkpt lat="48.88923" lon="5.92239">
        <ele>276.5163574</ele>
        <time>2012-06-28T08:28:26Z</time>
      </trkpt>
      <trkpt lat="48.88929" lon="5.92328">
        <ele>276.5163574</ele>
        <time>2012-06-28T08:28:34Z</time>
      </trkpt>
      <trkpt lat="48.88936" lon="5.92427">
        <ele>277.4776611</ele>
        <time>2012-06-28T08:28:42Z</time>
      </trkpt>
      <trkpt lat="48.88942" lon="5.92529">
        <ele>276.9970703</ele>
        <time>2012-06-28T08:28:50Z</time>
      </trkpt>
      <trkpt lat="48.88949" lon="5.92647">
        <ele>278.4389648</ele>
        <time>2012-06-28T08:28:59Z</time>
      </trkpt>
      <trkpt lat="48.88958" lon="5.92759">
        <ele>278.9196777</ele>
        <time>2012-06-28T08:29:08Z</time>
      </trkpt>
      <trkpt lat="48.88963" lon="5.92824">
        <ele>279.8808594</ele>
        <time>2012-06-28T08:29:14Z</time>
      </trkpt>
      <trkpt lat="48.8897" lon="5.92903">
        <ele>280.3616943</ele>
        <time>2012-06-28T08:29:22Z</time>
      </trkpt>
      <trkpt lat="48.88974" lon="5.92981">
        <ele>279.4002686</ele>
        <time>2012-06-28T08:29:30Z</time>
      </trkpt>
      <trkpt lat="48.8897" lon="5.93028">
        <ele>278.4389648</ele>
        <time>2012-06-28T08:29:34Z</time>
      </trkpt>
      <trkpt lat="48.88968" lon="5.93041">
        <ele>277.958252</ele>
        <time>2012-06-28T08:29:35Z</time>
      </trkpt>
      <trkpt lat="48.88956" lon="5.93078">
        <ele>276.5163574</ele>
        <time>2012-06-28T08:29:38Z</time>
      </trkpt>
      <trkpt lat="48.8894" lon="5.93117">
        <ele>274.1130371</ele>
        <time>2012-06-28T08:29:41Z</time>
      </trkpt>
      <trkpt lat="48.88912" lon="5.93188">
        <ele>271.229126</ele>
        <time>2012-06-28T08:29:46Z</time>
      </trkpt>
      <trkpt lat="48.88901" lon="5.93257">
        <ele>269.7871094</ele>
        <time>2012-06-28T08:29:50Z</time>
      </trkpt>
      <trkpt lat="48.88906" lon="5.93289">
        <ele>267.864502</ele>
        <time>2012-06-28T08:29:52Z</time>
      </trkpt>
      <trkpt lat="48.88909" lon="5.93305">
        <ele>267.3839111</ele>
        <time>2012-06-28T08:29:53Z</time>
      </trkpt>
      <trkpt lat="48.88928" lon="5.93373">
        <ele>271.7097168</ele>
        <time>2012-06-28T08:29:58Z</time>
      </trkpt>
      <trkpt lat="48.88942" lon="5.93414">
        <ele>273.1518555</ele>
        <time>2012-06-28T08:30:02Z</time>
      </trkpt>
      <trkpt lat="48.88951" lon="5.93443">
        <ele>274.59375</ele>
        <time>2012-06-28T08:30:06Z</time>
      </trkpt>
      <trkpt lat="48.88966" lon="5.935">
        <ele>277.958252</ele>
        <time>2012-06-28T08:30:15Z</time>
      </trkpt>
      <trkpt lat="48.88977" lon="5.93542">
        <ele>279.8808594</ele>
        <time>2012-06-28T08:30:22Z</time>
      </trkpt>
      <trkpt lat="48.8899" lon="5.93585">
        <ele>281.322998</ele>
        <time>2012-06-28T08:30:29Z</time>
      </trkpt>
      <trkpt lat="48.88999" lon="5.93619">
        <ele>283.2456055</ele>
        <time>2012-06-28T08:30:35Z</time>
      </trkpt>
      <trkpt lat="48.89002" lon="5.93631">
        <ele>284.2069092</ele>
        <time>2012-06-28T08:30:37Z</time>
      </trkpt>
      <trkpt lat="48.89013" lon="5.93676">
        <ele>286.1295166</ele>
        <time>2012-06-28T08:30:45Z</time>
      </trkpt>
      <trkpt lat="48.89018" lon="5.93709">
        <ele>288.0522461</ele>
        <time>2012-06-28T08:30:51Z</time>
      </trkpt>
      <trkpt lat="48.89022" lon="5.93746">
        <ele>289.0135498</ele>
        <time>2012-06-28T08:30:58Z</time>
      </trkpt>
      <trkpt lat="48.89026" lon="5.93789">
        <ele>290.4555664</ele>
        <time>2012-06-28T08:31:06Z</time>
      </trkpt>
      <trkpt lat="48.8903" lon="5.93836">
        <ele>292.8587646</ele>
        <time>2012-06-28T08:31:15Z</time>
      </trkpt>
      <trkpt lat="48.89033" lon="5.93879">
        <ele>293.3393555</ele>
        <time>2012-06-28T08:31:23Z</time>
      </trkpt>
      <trkpt lat="48.89036" lon="5.93914">
        <ele>294.3007813</ele>
        <time>2012-06-28T08:31:30Z</time>
      </trkpt>
      <trkpt lat="48.8904" lon="5.9395">
        <ele>295.7426758</ele>
        <time>2012-06-28T08:31:37Z</time>
      </trkpt>
      <trkpt lat="48.89041" lon="5.93989">
        <ele>296.7041016</ele>
        <time>2012-06-28T08:31:44Z</time>
      </trkpt>
      <trkpt lat="48.89042" lon="5.94023">
        <ele>298.1461182</ele>
        <time>2012-06-28T08:31:50Z</time>
      </trkpt>
      <trkpt lat="48.89044" lon="5.94063">
        <ele>298.1461182</ele>
        <time>2012-06-28T08:31:57Z</time>
      </trkpt>
      <trkpt lat="48.89046" lon="5.94102">
        <ele>299.1072998</ele>
        <time>2012-06-28T08:32:04Z</time>
      </trkpt>
      <trkpt lat="48.89049" lon="5.94141">
        <ele>300.5493164</ele>
        <time>2012-06-28T08:32:11Z</time>
      </trkpt>
      <trkpt lat="48.89053" lon="5.94187">
        <ele>301.991333</ele>
        <time>2012-06-28T08:32:19Z</time>
      </trkpt>
      <trkpt lat="48.89055" lon="5.9423">
        <ele>303.9139404</ele>
        <time>2012-06-28T08:32:27Z</time>
      </trkpt>
      <trkpt lat="48.89058" lon="5.94288">
        <ele>306.3172607</ele>
        <time>2012-06-28T08:32:37Z</time>
      </trkpt>
      <trkpt lat="48.8906" lon="5.9433">
        <ele>307.7592773</ele>
        <time>2012-06-28T08:32:44Z</time>
      </trkpt>
      <trkpt lat="48.89063" lon="5.94371">
        <ele>309.2011719</ele>
        <time>2012-06-28T08:32:51Z</time>
      </trkpt>
      <trkpt lat="48.89065" lon="5.9441">
        <ele>309.6818848</ele>
        <time>2012-06-28T08:32:58Z</time>
      </trkpt>
      <trkpt lat="48.89068" lon="5.9444">
        <ele>311.1237793</ele>
        <time>2012-06-28T08:33:04Z</time>
      </trkpt>
      <trkpt lat="48.89069" lon="5.94478">
        <ele>312.0852051</ele>
        <time>2012-06-28T08:33:11Z</time>
      </trkpt>
      <trkpt lat="48.89071" lon="5.94521">
        <ele>313.5272217</ele>
        <time>2012-06-28T08:33:19Z</time>
      </trkpt>
      <trkpt lat="48.89074" lon="5.94555">
        <ele>315.9304199</ele>
        <time>2012-06-28T08:33:26Z</time>
      </trkpt>
      <trkpt lat="48.89076" lon="5.94595">
        <ele>317.8530273</ele>
        <time>2012-06-28T08:33:34Z</time>
      </trkpt>
      <trkpt lat="48.89079" lon="5.94638">
        <ele>320.2563477</ele>
        <time>2012-06-28T08:33:43Z</time>
      </trkpt>
      <trkpt lat="48.89079" lon="5.94679">
        <ele>322.659668</ele>
        <time>2012-06-28T08:33:52Z</time>
      </trkpt>
      <trkpt lat="48.89083" lon="5.94727">
        <ele>325.0629883</ele>
        <time>2012-06-28T08:34:03Z</time>
      </trkpt>
      <trkpt lat="48.89085" lon="5.94757">
        <ele>326.9855957</ele>
        <time>2012-06-28T08:34:10Z</time>
      </trkpt>
      <trkpt lat="48.89086" lon="5.94789">
        <ele>328.4276123</ele>
        <time>2012-06-28T08:34:18Z</time>
      </trkpt>
      <trkpt lat="48.89088" lon="5.94816">
        <ele>330.3502197</ele>
        <time>2012-06-28T08:34:25Z</time>
      </trkpt>
      <trkpt lat="48.89088" lon="5.94846">
        <ele>332.2728271</ele>
        <time>2012-06-28T08:34:32Z</time>
      </trkpt>
      <trkpt lat="48.89091" lon="5.94891">
        <ele>333.7147217</ele>
        <time>2012-06-28T08:34:42Z</time>
      </trkpt>
      <trkpt lat="48.89095" lon="5.94943">
        <ele>334.6761475</ele>
        <time>2012-06-28T08:34:53Z</time>
      </trkpt>
      <trkpt lat="48.89099" lon="5.94992">
        <ele>337.0794678</ele>
        <time>2012-06-28T08:35:03Z</time>
      </trkpt>
      <trkpt lat="48.89102" lon="5.95042">
        <ele>338.5214844</ele>
        <time>2012-06-28T08:35:13Z</time>
      </trkpt>
      <trkpt lat="48.89105" lon="5.95087">
        <ele>339.482666</ele>
        <time>2012-06-28T08:35:22Z</time>
      </trkpt>
      <trkpt lat="48.89107" lon="5.95129">
        <ele>339.9633789</ele>
        <time>2012-06-28T08:35:30Z</time>
      </trkpt>
      <trkpt lat="48.8911" lon="5.95182">
        <ele>340.9246826</ele>
        <time>2012-06-28T08:35:40Z</time>
      </trkpt>
      <trkpt lat="48.89114" lon="5.95229">
        <ele>342.84729</ele>
        <time>2012-06-28T08:35:48Z</time>
      </trkpt>
      <trkpt lat="48.89118" lon="5.95294">
        <ele>343.8085938</ele>
        <time>2012-06-28T08:35:59Z</time>
      </trkpt>
      <trkpt lat="48.89123" lon="5.95368">
        <ele>345.7313232</ele>
        <time>2012-06-28T08:36:11Z</time>
      </trkpt>
      <trkpt lat="48.89127" lon="5.95441">
        <ele>346.692627</ele>
        <time>2012-06-28T08:36:22Z</time>
      </trkpt>
      <trkpt lat="48.89133" lon="5.95525">
        <ele>347.1732178</ele>
        <time>2012-06-28T08:36:34Z</time>
      </trkpt>
      <trkpt lat="48.89138" lon="5.95615">
        <ele>349.0958252</ele>
        <time>2012-06-28T08:36:46Z</time>
      </trkpt>
      <trkpt lat="48.89143" lon="5.95696">
        <ele>348.6152344</ele>
        <time>2012-06-28T08:36:56Z</time>
      </trkpt>
      <trkpt lat="48.89148" lon="5.95765">
        <ele>349.0958252</ele>
        <time>2012-06-28T08:37:04Z</time>
      </trkpt>
      <trkpt lat="48.89155" lon="5.9588">
        <ele>349.5765381</ele>
        <time>2012-06-28T08:37:17Z</time>
      </trkpt>
      <trkpt lat="48.89162" lon="5.95975">
        <ele>349.0958252</ele>
        <time>2012-06-28T08:37:28Z</time>
      </trkpt>
      <trkpt lat="48.89167" lon="5.96063">
        <ele>349.0958252</ele>
        <time>2012-06-28T08:37:38Z</time>
      </trkpt>
      <trkpt lat="48.89172" lon="5.96143">
        <ele>349.5765381</ele>
        <time>2012-06-28T08:37:47Z</time>
      </trkpt>
      <trkpt lat="48.89176" lon="5.96211">
        <ele>349.0958252</ele>
        <time>2012-06-28T08:37:55Z</time>
      </trkpt>
      <trkpt lat="48.8918" lon="5.96284">
        <ele>349.5765381</ele>
        <time>2012-06-28T08:38:03Z</time>
      </trkpt>
      <trkpt lat="48.89185" lon="5.96357">
        <ele>348.6152344</ele>
        <time>2012-06-28T08:38:11Z</time>
      </trkpt>
      <trkpt lat="48.89189" lon="5.96423">
        <ele>347.6539307</ele>
        <time>2012-06-28T08:38:18Z</time>
      </trkpt>
      <trkpt lat="48.89194" lon="5.96505">
        <ele>348.1346436</ele>
        <time>2012-06-28T08:38:27Z</time>
      </trkpt>
      <trkpt lat="48.89199" lon="5.9659">
        <ele>345.7313232</ele>
        <time>2012-06-28T08:38:37Z</time>
      </trkpt>
      <trkpt lat="48.89203" lon="5.96666">
        <ele>345.2506104</ele>
        <time>2012-06-28T08:38:46Z</time>
      </trkpt>
      <trkpt lat="48.89204" lon="5.96729">
        <ele>345.7313232</ele>
        <time>2012-06-28T08:38:54Z</time>
      </trkpt>
      <trkpt lat="48.89204" lon="5.96767">
        <ele>347.1732178</ele>
        <time>2012-06-28T08:38:59Z</time>
      </trkpt>
      <trkpt lat="48.89197" lon="5.96786">
        <ele>346.692627</ele>
        <time>2012-06-28T08:39:03Z</time>
      </trkpt>
      <trkpt lat="48.89192" lon="5.96791">
        <ele>347.1732178</ele>
        <time>2012-06-28T08:39:05Z</time>
      </trkpt>
      <trkpt lat="48.89194" lon="5.96799">
        <ele>346.692627</ele>
        <time>2012-06-28T08:39:09Z</time>
      </trkpt>
      <trkpt lat="48.892" lon="5.96803">
        <ele>346.2120361</ele>
        <time>2012-06-28T08:39:14Z</time>
      </trkpt>
      <trkpt lat="48.89202" lon="5.96803">
        <ele>345.7313232</ele>
        <time>2012-06-28T08:39:52Z</time>
      </trkpt>
      <trkpt lat="48.89206" lon="5.96804">
        <ele>345.7313232</ele>
        <time>2012-06-28T08:39:56Z</time>
      </trkpt>
      <trkpt lat="48.89206" lon="5.96805">
        <ele>345.2506104</ele>
        <time>2012-06-28T08:40:00Z</time>
      </trkpt>
      <trkpt lat="48.8921" lon="5.96828">
        <ele>346.2120361</ele>
        <time>2012-06-28T08:40:07Z</time>
      </trkpt>
      <trkpt lat="48.89212" lon="5.96857">
        <ele>347.1732178</ele>
        <time>2012-06-28T08:40:13Z</time>
      </trkpt>
      <trkpt lat="48.89215" lon="5.96901">
        <ele>347.6539307</ele>
        <time>2012-06-28T08:40:19Z</time>
      </trkpt>
      <trkpt lat="48.89222" lon="5.96974">
        <ele>348.6152344</ele>
        <time>2012-06-28T08:40:28Z</time>
      </trkpt>
      <trkpt lat="48.89227" lon="5.97048">
        <ele>349.0958252</ele>
        <time>2012-06-28T08:40:37Z</time>
      </trkpt>
      <trkpt lat="48.89233" lon="5.97131">
        <ele>347.1732178</ele>
        <time>2012-06-28T08:40:46Z</time>
      </trkpt>
      <trkpt lat="48.8924" lon="5.97229">
        <ele>344.7700195</ele>
        <time>2012-06-28T08:40:55Z</time>
      </trkpt>
      <trkpt lat="48.89246" lon="5.97313">
        <ele>343.8085938</ele>
        <time>2012-06-28T08:41:02Z</time>
      </trkpt>
      <trkpt lat="48.89252" lon="5.97406">
        <ele>339.9633789</ele>
        <time>2012-06-28T08:41:09Z</time>
      </trkpt>
      <trkpt lat="48.89259" lon="5.97507">
        <ele>341.8859863</ele>
        <time>2012-06-28T08:41:17Z</time>
      </trkpt>
      <trkpt lat="48.89263" lon="5.97568">
        <ele>341.8859863</ele>
        <time>2012-06-28T08:41:23Z</time>
      </trkpt>
      <trkpt lat="48.89267" lon="5.97637">
        <ele>343.8085938</ele>
        <time>2012-06-28T08:41:31Z</time>
      </trkpt>
      <trkpt lat="48.89274" lon="5.97682">
        <ele>344.7700195</ele>
        <time>2012-06-28T08:41:37Z</time>
      </trkpt>
      <trkpt lat="48.89284" lon="5.97712">
        <ele>345.2506104</ele>
        <time>2012-06-28T08:41:41Z</time>
      </trkpt>
      <trkpt lat="48.89309" lon="5.97748">
        <ele>344.2894287</ele>
        <time>2012-06-28T08:41:47Z</time>
      </trkpt>
      <trkpt lat="48.89342" lon="5.97779">
        <ele>346.2120361</ele>
        <time>2012-06-28T08:41:54Z</time>
      </trkpt>
      <trkpt lat="48.89384" lon="5.97812">
        <ele>346.2120361</ele>
        <time>2012-06-28T08:42:02Z</time>
      </trkpt>
      <trkpt lat="48.89407" lon="5.97818">
        <ele>345.2506104</ele>
        <time>2012-06-28T08:42:06Z</time>
      </trkpt>
      <trkpt lat="48.89424" lon="5.97802">
        <ele>345.7313232</ele>
        <time>2012-06-28T08:42:09Z</time>
      </trkpt>
      <trkpt lat="48.89453" lon="5.97737">
        <ele>345.2506104</ele>
        <time>2012-06-28T08:42:16Z</time>
      </trkpt>
      <trkpt lat="48.89485" lon="5.97646">
        <ele>344.7700195</ele>
        <time>2012-06-28T08:42:25Z</time>
      </trkpt>
      <trkpt lat="48.89517" lon="5.97555">
        <ele>344.2894287</ele>
        <time>2012-06-28T08:42:34Z</time>
      </trkpt>
      <trkpt lat="48.8954" lon="5.97492">
        <ele>344.7700195</ele>
        <time>2012-06-28T08:42:40Z</time>
      </trkpt>
      <trkpt lat="48.89576" lon="5.97388">
        <ele>344.2894287</ele>
        <time>2012-06-28T08:42:50Z</time>
      </trkpt>
      <trkpt lat="48.89604" lon="5.97314">
        <ele>346.2120361</ele>
        <time>2012-06-28T08:42:58Z</time>
      </trkpt>
      <trkpt lat="48.89624" lon="5.97258">
        <ele>347.6539307</ele>
        <time>2012-06-28T08:43:05Z</time>
      </trkpt>
      <trkpt lat="48.89648" lon="5.97192">
        <ele>350.5378418</ele>
        <time>2012-06-28T08:43:13Z</time>
      </trkpt>
      <trkpt lat="48.89676" lon="5.97111">
        <ele>352.9411621</ele>
        <time>2012-06-28T08:43:22Z</time>
      </trkpt>
      <trkpt lat="48.89692" lon="5.9706">
        <ele>351.0184326</ele>
        <time>2012-06-28T08:43:28Z</time>
      </trkpt>
      <trkpt lat="48.89714" lon="5.96999">
        <ele>351.4991455</ele>
        <time>2012-06-28T08:43:34Z</time>
      </trkpt>
      <trkpt lat="48.89735" lon="5.96942">
        <ele>349.0958252</ele>
        <time>2012-06-28T08:43:39Z</time>
      </trkpt>
      <trkpt lat="48.8977" lon="5.96843">
        <ele>346.692627</ele>
        <time>2012-06-28T08:43:47Z</time>
      </trkpt>
      <trkpt lat="48.89811" lon="5.96738">
        <ele>345.2506104</ele>
        <time>2012-06-28T08:43:55Z</time>
      </trkpt>
      <trkpt lat="48.89851" lon="5.96629">
        <ele>342.3666992</ele>
        <time>2012-06-28T08:44:03Z</time>
      </trkpt>
      <trkpt lat="48.89855" lon="5.96616">
        <ele>345.7313232</ele>
        <time>2012-06-28T08:44:04Z</time>
      </trkpt>
      <trkpt lat="48.89859" lon="5.96603">
        <ele>345.2506104</ele>
        <time>2012-06-28T08:44:05Z</time>
      </trkpt>
      <trkpt lat="48.89872" lon="5.96567">
        <ele>342.3666992</ele>
        <time>2012-06-28T08:44:08Z</time>
      </trkpt>
      <trkpt lat="48.89906" lon="5.96475">
        <ele>342.84729</ele>
        <time>2012-06-28T08:44:16Z</time>
      </trkpt>
      <trkpt lat="48.8994" lon="5.96379">
        <ele>341.4052734</ele>
        <time>2012-06-28T08:44:23Z</time>
      </trkpt>
      <trkpt lat="48.89951" lon="5.96349">
        <ele>340.4440918</ele>
        <time>2012-06-28T08:44:25Z</time>
      </trkpt>
      <trkpt lat="48.89991" lon="5.96235">
        <ele>336.598877</ele>
        <time>2012-06-28T08:44:32Z</time>
      </trkpt>
      <trkpt lat="48.90009" lon="5.96182">
        <ele>335.1567383</ele>
        <time>2012-06-28T08:44:35Z</time>
      </trkpt>
      <trkpt lat="48.90045" lon="5.96082">
        <ele>334.6761475</ele>
        <time>2012-06-28T08:44:41Z</time>
      </trkpt>
      <trkpt lat="48.90074" lon="5.96">
        <ele>336.1181641</ele>
        <time>2012-06-28T08:44:47Z</time>
      </trkpt>
      <trkpt lat="48.90099" lon="5.95931">
        <ele>338.5214844</ele>
        <time>2012-06-28T08:44:53Z</time>
      </trkpt>
      <trkpt lat="48.9011" lon="5.95899">
        <ele>340.4440918</ele>
        <time>2012-06-28T08:44:56Z</time>
      </trkpt>
      <trkpt lat="48.90138" lon="5.95821">
        <ele>342.3666992</ele>
        <time>2012-06-28T08:45:04Z</time>
      </trkpt>
      <trkpt lat="48.90163" lon="5.95751">
        <ele>342.3666992</ele>
        <time>2012-06-28T08:45:11Z</time>
      </trkpt>
      <trkpt lat="48.90189" lon="5.95679">
        <ele>340.4440918</ele>
        <time>2012-06-28T08:45:17Z</time>
      </trkpt>
      <trkpt lat="48.90209" lon="5.95623">
        <ele>338.0407715</ele>
        <time>2012-06-28T08:45:21Z</time>
      </trkpt>
      <trkpt lat="48.90237" lon="5.95545">
        <ele>335.1567383</ele>
        <time>2012-06-28T08:45:26Z</time>
      </trkpt>
      <trkpt lat="48.90255" lon="5.95495">
        <ele>331.7921143</ele>
        <time>2012-06-28T08:45:29Z</time>
      </trkpt>
      <trkpt lat="48.90261" lon="5.95478">
        <ele>331.7921143</ele>
        <time>2012-06-28T08:45:30Z</time>
      </trkpt>
      <trkpt lat="48.90304" lon="5.95354">
        <ele>326.9855957</ele>
        <time>2012-06-28T08:45:37Z</time>
      </trkpt>
      <trkpt lat="48.90337" lon="5.95262">
        <ele>323.6209717</ele>
        <time>2012-06-28T08:45:42Z</time>
      </trkpt>
      <trkpt lat="48.90356" lon="5.95207">
        <ele>320.7370605</ele>
        <time>2012-06-28T08:45:45Z</time>
      </trkpt>
      <trkpt lat="48.90363" lon="5.95188">
        <ele>321.2177734</ele>
        <time>2012-06-28T08:45:46Z</time>
      </trkpt>
      <trkpt lat="48.90413" lon="5.95048">
        <ele>319.2950439</ele>
        <time>2012-06-28T08:45:54Z</time>
      </trkpt>
      <trkpt lat="48.9044" lon="5.94973">
        <ele>321.2177734</ele>
        <time>2012-06-28T08:45:59Z</time>
      </trkpt>
      <trkpt lat="48.90458" lon="5.94922">
        <ele>324.5822754</ele>
        <time>2012-06-28T08:46:03Z</time>
      </trkpt>
      <trkpt lat="48.90482" lon="5.94857">
        <ele>326.9855957</ele>
        <time>2012-06-28T08:46:09Z</time>
      </trkpt>
      <trkpt lat="48.9052" lon="5.94751">
        <ele>326.9855957</ele>
        <time>2012-06-28T08:46:19Z</time>
      </trkpt>
      <trkpt lat="48.90538" lon="5.94696">
        <ele>327.9467773</ele>
        <time>2012-06-28T08:46:25Z</time>
      </trkpt>
      <trkpt lat="48.90558" lon="5.94642">
        <ele>330.3502197</ele>
        <time>2012-06-28T08:46:32Z</time>
      </trkpt>
      <trkpt lat="48.90563" lon="5.94629">
        <ele>331.3115234</ele>
        <time>2012-06-28T08:46:34Z</time>
      </trkpt>
      <trkpt lat="48.90579" lon="5.94587">
        <ele>334.6761475</ele>
        <time>2012-06-28T08:46:40Z</time>
      </trkpt>
      <trkpt lat="48.906" lon="5.9453">
        <ele>336.1181641</ele>
        <time>2012-06-28T08:46:48Z</time>
      </trkpt>
      <trkpt lat="48.9061" lon="5.945">
        <ele>337.0794678</ele>
        <time>2012-06-28T08:46:52Z</time>
      </trkpt>
      <trkpt lat="48.9063" lon="5.94442">
        <ele>334.1954346</ele>
        <time>2012-06-28T08:46:59Z</time>
      </trkpt>
      <trkpt lat="48.9065" lon="5.94386">
        <ele>332.2728271</ele>
        <time>2012-06-28T08:47:04Z</time>
      </trkpt>
      <trkpt lat="48.9067" lon="5.94332">
        <ele>328.9083252</ele>
        <time>2012-06-28T08:47:08Z</time>
      </trkpt>
      <trkpt lat="48.90699" lon="5.94252">
        <ele>325.5435791</ele>
        <time>2012-06-28T08:47:13Z</time>
      </trkpt>
      <trkpt lat="48.90724" lon="5.94182">
        <ele>323.6209717</ele>
        <time>2012-06-28T08:47:17Z</time>
      </trkpt>
      <trkpt lat="48.90767" lon="5.94063">
        <ele>324.1015625</ele>
        <time>2012-06-28T08:47:24Z</time>
      </trkpt>
      <trkpt lat="48.90785" lon="5.9401">
        <ele>325.5435791</ele>
        <time>2012-06-28T08:47:28Z</time>
      </trkpt>
      <trkpt lat="48.90802" lon="5.93961">
        <ele>328.4276123</ele>
        <time>2012-06-28T08:47:33Z</time>
      </trkpt>
      <trkpt lat="48.90829" lon="5.93881">
        <ele>330.8309326</ele>
        <time>2012-06-28T08:47:42Z</time>
      </trkpt>
      <trkpt lat="48.90833" lon="5.93872">
        <ele>330.3502197</ele>
        <time>2012-06-28T08:47:43Z</time>
      </trkpt>
      <trkpt lat="48.9084" lon="5.93818">
        <ele>330.3502197</ele>
        <time>2012-06-28T08:47:48Z</time>
      </trkpt>
      <trkpt lat="48.90843" lon="5.93729">
        <ele>327.4661865</ele>
        <time>2012-06-28T08:47:55Z</time>
      </trkpt>
      <trkpt lat="48.90848" lon="5.93625">
        <ele>324.1015625</ele>
        <time>2012-06-28T08:48:02Z</time>
      </trkpt>
      <trkpt lat="48.90848" lon="5.93609">
        <ele>324.1015625</ele>
        <time>2012-06-28T08:48:03Z</time>
      </trkpt>
      <trkpt lat="48.90852" lon="5.93536">
        <ele>320.2563477</ele>
        <time>2012-06-28T08:48:07Z</time>
      </trkpt>
      <trkpt lat="48.90855" lon="5.93459">
        <ele>315.4498291</ele>
        <time>2012-06-28T08:48:11Z</time>
      </trkpt>
      <trkpt lat="48.90856" lon="5.9344">
        <ele>315.9304199</ele>
        <time>2012-06-28T08:48:12Z</time>
      </trkpt>
      <trkpt lat="48.90858" lon="5.93382">
        <ele>313.5272217</ele>
        <time>2012-06-28T08:48:15Z</time>
      </trkpt>
      <trkpt lat="48.9086" lon="5.93342">
        <ele>312.0852051</ele>
        <time>2012-06-28T08:48:17Z</time>
      </trkpt>
      <trkpt lat="48.90862" lon="5.93281">
        <ele>308.720459</ele>
        <time>2012-06-28T08:48:20Z</time>
      </trkpt>
      <trkpt lat="48.9087" lon="5.93197">
        <ele>306.3172607</ele>
        <time>2012-06-28T08:48:24Z</time>
      </trkpt>
      <trkpt lat="48.90885" lon="5.93119">
        <ele>306.3172607</ele>
        <time>2012-06-28T08:48:28Z</time>
      </trkpt>
      <trkpt lat="48.90903" lon="5.93035">
        <ele>306.7978516</ele>
        <time>2012-06-28T08:48:33Z</time>
      </trkpt>
      <trkpt lat="48.90921" lon="5.92969">
        <ele>308.720459</ele>
        <time>2012-06-28T08:48:38Z</time>
      </trkpt>
      <trkpt lat="48.90943" lon="5.92922">
        <ele>311.6044922</ele>
        <time>2012-06-28T08:48:43Z</time>
      </trkpt>
      <trkpt lat="48.90948" lon="5.92915">
        <ele>311.6044922</ele>
        <time>2012-06-28T08:48:44Z</time>
      </trkpt>
      <trkpt lat="48.90982" lon="5.92866">
        <ele>313.5272217</ele>
        <time>2012-06-28T08:48:51Z</time>
      </trkpt>
      <trkpt lat="48.91022" lon="5.9281">
        <ele>316.4110107</ele>
        <time>2012-06-28T08:49:00Z</time>
      </trkpt>
      <trkpt lat="48.9103" lon="5.928">
        <ele>317.3724365</ele>
        <time>2012-06-28T08:49:02Z</time>
      </trkpt>
      <trkpt lat="48.91061" lon="5.92757">
        <ele>318.3336182</ele>
        <time>2012-06-28T08:49:10Z</time>
      </trkpt>
      <trkpt lat="48.91095" lon="5.92711">
        <ele>320.2563477</ele>
        <time>2012-06-28T08:49:19Z</time>
      </trkpt>
      <trkpt lat="48.91128" lon="5.92666">
        <ele>320.2563477</ele>
        <time>2012-06-28T08:49:27Z</time>
      </trkpt>
      <trkpt lat="48.9117" lon="5.9261">
        <ele>319.7756348</ele>
        <time>2012-06-28T08:49:36Z</time>
      </trkpt>
      <trkpt lat="48.91203" lon="5.92564">
        <ele>319.7756348</ele>
        <time>2012-06-28T08:49:43Z</time>
      </trkpt>
      <trkpt lat="48.91233" lon="5.92521">
        <ele>322.659668</ele>
        <time>2012-06-28T08:49:50Z</time>
      </trkpt>
      <trkpt lat="48.91252" lon="5.92496">
        <ele>324.5822754</ele>
        <time>2012-06-28T08:49:55Z</time>
      </trkpt>
      <trkpt lat="48.91276" lon="5.92462">
        <ele>326.0241699</ele>
        <time>2012-06-28T08:50:02Z</time>
      </trkpt>
      <trkpt lat="48.91304" lon="5.92422">
        <ele>327.9467773</ele>
        <time>2012-06-28T08:50:11Z</time>
      </trkpt>
      <trkpt lat="48.9134" lon="5.92374">
        <ele>330.3502197</ele>
        <time>2012-06-28T08:50:22Z</time>
      </trkpt>
      <trkpt lat="48.91378" lon="5.92323">
        <ele>331.3115234</ele>
        <time>2012-06-28T08:50:33Z</time>
      </trkpt>
      <trkpt lat="48.91407" lon="5.92284">
        <ele>332.75354</ele>
        <time>2012-06-28T08:50:41Z</time>
      </trkpt>
      <trkpt lat="48.91441" lon="5.92236">
        <ele>333.2341309</ele>
        <time>2012-06-28T08:50:50Z</time>
      </trkpt>
      <trkpt lat="48.91477" lon="5.92184">
        <ele>332.75354</ele>
        <time>2012-06-28T08:50:58Z</time>
      </trkpt>
      <trkpt lat="48.9152" lon="5.92124">
        <ele>332.2728271</ele>
        <time>2012-06-28T08:51:07Z</time>
      </trkpt>
      <trkpt lat="48.91553" lon="5.92077">
        <ele>335.1567383</ele>
        <time>2012-06-28T08:51:15Z</time>
      </trkpt>
      <trkpt lat="48.91582" lon="5.92035">
        <ele>336.598877</ele>
        <time>2012-06-28T08:51:23Z</time>
      </trkpt>
      <trkpt lat="48.91589" lon="5.92025">
        <ele>337.5600586</ele>
        <time>2012-06-28T08:51:25Z</time>
      </trkpt>
      <trkpt lat="48.91627" lon="5.91975">
        <ele>340.4440918</ele>
        <time>2012-06-28T08:51:35Z</time>
      </trkpt>
      <trkpt lat="48.91653" lon="5.91941">
        <ele>342.84729</ele>
        <time>2012-06-28T08:51:42Z</time>
      </trkpt>
      <trkpt lat="48.91678" lon="5.91905">
        <ele>343.8085938</ele>
        <time>2012-06-28T08:51:49Z</time>
      </trkpt>
      <trkpt lat="48.91707" lon="5.91865">
        <ele>344.7700195</ele>
        <time>2012-06-28T08:51:57Z</time>
      </trkpt>
      <trkpt lat="48.91735" lon="5.91825">
        <ele>344.2894287</ele>
        <time>2012-06-28T08:52:04Z</time>
      </trkpt>
      <trkpt lat="48.91772" lon="5.91774">
        <ele>344.7700195</ele>
        <time>2012-06-28T08:52:12Z</time>
      </trkpt>
      <trkpt lat="48.91804" lon="5.91728">
        <ele>344.2894287</ele>
        <time>2012-06-28T08:52:19Z</time>
      </trkpt>
      <trkpt lat="48.91841" lon="5.91675">
        <ele>345.7313232</ele>
        <time>2012-06-28T08:52:27Z</time>
      </trkpt>
      <trkpt lat="48.91877" lon="5.91628">
        <ele>344.2894287</ele>
        <time>2012-06-28T08:52:34Z</time>
      </trkpt>
      <trkpt lat="48.91912" lon="5.9158">
        <ele>344.2894287</ele>
        <time>2012-06-28T08:52:40Z</time>
      </trkpt>
      <trkpt lat="48.91952" lon="5.91524">
        <ele>344.7700195</ele>
        <time>2012-06-28T08:52:46Z</time>
      </trkpt>
      <trkpt lat="48.91998" lon="5.91459">
        <ele>342.3666992</ele>
        <time>2012-06-28T08:52:52Z</time>
      </trkpt>
      <trkpt lat="48.92022" lon="5.91425">
        <ele>340.4440918</ele>
        <time>2012-06-28T08:52:55Z</time>
      </trkpt>
      <trkpt lat="48.92052" lon="5.91381">
        <ele>339.9633789</ele>
        <time>2012-06-28T08:52:59Z</time>
      </trkpt>
      <trkpt lat="48.9209" lon="5.91329">
        <ele>339.482666</ele>
        <time>2012-06-28T08:53:04Z</time>
      </trkpt>
      <trkpt lat="48.9215" lon="5.91247">
        <ele>339.9633789</ele>
        <time>2012-06-28T08:53:12Z</time>
      </trkpt>
      <trkpt lat="48.92209" lon="5.91164">
        <ele>339.482666</ele>
        <time>2012-06-28T08:53:20Z</time>
      </trkpt>
      <trkpt lat="48.92257" lon="5.91098">
        <ele>341.4052734</ele>
        <time>2012-06-28T08:53:27Z</time>
      </trkpt>
      <trkpt lat="48.92317" lon="5.91015">
        <ele>339.9633789</ele>
        <time>2012-06-28T08:53:36Z</time>
      </trkpt>
      <trkpt lat="48.92376" lon="5.90933">
        <ele>337.5600586</ele>
        <time>2012-06-28T08:53:44Z</time>
      </trkpt>
      <trkpt lat="48.9243" lon="5.90859">
        <ele>337.0794678</ele>
        <time>2012-06-28T08:53:51Z</time>
      </trkpt>
      <trkpt lat="48.92487" lon="5.90779">
        <ele>336.598877</ele>
        <time>2012-06-28T08:53:59Z</time>
      </trkpt>
      <trkpt lat="48.92526" lon="5.90726">
        <ele>339.482666</ele>
        <time>2012-06-28T08:54:05Z</time>
      </trkpt>
      <trkpt lat="48.92581" lon="5.90651">
        <ele>338.5214844</ele>
        <time>2012-06-28T08:54:14Z</time>
      </trkpt>
      <trkpt lat="48.9263" lon="5.90585">
        <ele>336.1181641</ele>
        <time>2012-06-28T08:54:21Z</time>
      </trkpt>
      <trkpt lat="48.92644" lon="5.90565">
        <ele>335.1567383</ele>
        <time>2012-06-28T08:54:23Z</time>
      </trkpt>
      <trkpt lat="48.92691" lon="5.90501">
        <ele>331.3115234</ele>
        <time>2012-06-28T08:54:29Z</time>
      </trkpt>
      <trkpt lat="48.92699" lon="5.9049">
        <ele>331.3115234</ele>
        <time>2012-06-28T08:54:30Z</time>
      </trkpt>
      <trkpt lat="48.92758" lon="5.9041">
        <ele>327.9467773</ele>
        <time>2012-06-28T08:54:37Z</time>
      </trkpt>
      <trkpt lat="48.92767" lon="5.90398">
        <ele>327.9467773</ele>
        <time>2012-06-28T08:54:38Z</time>
      </trkpt>
      <trkpt lat="48.92845" lon="5.90291">
        <ele>325.5435791</ele>
        <time>2012-06-28T08:54:47Z</time>
      </trkpt>
      <trkpt lat="48.92892" lon="5.90227">
        <ele>326.9855957</ele>
        <time>2012-06-28T08:54:53Z</time>
      </trkpt>
      <trkpt lat="48.9294" lon="5.9016">
        <ele>327.4661865</ele>
        <time>2012-06-28T08:55:00Z</time>
      </trkpt>
      <trkpt lat="48.92976" lon="5.901">
        <ele>325.5435791</ele>
        <time>2012-06-28T08:55:06Z</time>
      </trkpt>
      <trkpt lat="48.93003" lon="5.90053">
        <ele>323.6209717</ele>
        <time>2012-06-28T08:55:11Z</time>
      </trkpt>
      <trkpt lat="48.93012" lon="5.90039">
        <ele>323.1403809</ele>
        <time>2012-06-28T08:55:13Z</time>
      </trkpt>
      <trkpt lat="48.93024" lon="5.90033">
        <ele>322.659668</ele>
        <time>2012-06-28T08:55:17Z</time>
      </trkpt>
      <trkpt lat="48.93031" lon="5.90042">
        <ele>322.659668</ele>
        <time>2012-06-28T08:55:22Z</time>
      </trkpt>
      <trkpt lat="48.93033" lon="5.90042">
        <ele>322.659668</ele>
        <time>2012-06-28T08:55:24Z</time>
      </trkpt>
      <trkpt lat="48.9303" lon="5.90036">
        <ele>322.659668</ele>
        <time>2012-06-28T08:55:30Z</time>
      </trkpt>
      <trkpt lat="48.9303" lon="5.90036">
        <ele>322.659668</ele>
        <time>2012-06-28T08:55:38Z</time>
      </trkpt>
      <trkpt lat="48.93027" lon="5.90041">
        <ele>322.659668</ele>
        <time>2012-06-28T08:55:41Z</time>
      </trkpt>
      <trkpt lat="48.93029" lon="5.90044">
        <ele>323.1403809</ele>
        <time>2012-06-28T08:55:42Z</time>
      </trkpt>
      <trkpt lat="48.93042" lon="5.90072">
        <ele>323.1403809</ele>
        <time>2012-06-28T08:55:49Z</time>
      </trkpt>
      <trkpt lat="48.93056" lon="5.90115">
        <ele>324.1015625</ele>
        <time>2012-06-28T08:55:56Z</time>
      </trkpt>
      <trkpt lat="48.93075" lon="5.90181">
        <ele>325.0629883</ele>
        <time>2012-06-28T08:56:05Z</time>
      </trkpt>
      <trkpt lat="48.93099" lon="5.90257">
        <ele>326.9855957</ele>
        <time>2012-06-28T08:56:15Z</time>
      </trkpt>
      <trkpt lat="48.93125" lon="5.90332">
        <ele>327.9467773</ele>
        <time>2012-06-28T08:56:25Z</time>
      </trkpt>
      <trkpt lat="48.93154" lon="5.90398">
        <ele>327.9467773</ele>
        <time>2012-06-28T08:56:34Z</time>
      </trkpt>
      <trkpt lat="48.93186" lon="5.90452">
        <ele>327.9467773</ele>
        <time>2012-06-28T08:56:42Z</time>
      </trkpt>
      <trkpt lat="48.93214" lon="5.90487">
        <ele>328.4276123</ele>
        <time>2012-06-28T08:56:48Z</time>
      </trkpt>
      <trkpt lat="48.93248" lon="5.90526">
        <ele>329.8695068</ele>
        <time>2012-06-28T08:56:55Z</time>
      </trkpt>
      <trkpt lat="48.93287" lon="5.90571">
        <ele>329.388916</ele>
        <time>2012-06-28T08:57:03Z</time>
      </trkpt>
      <trkpt lat="48.93324" lon="5.90617">
        <ele>328.9083252</ele>
        <time>2012-06-28T08:57:10Z</time>
      </trkpt>
      <trkpt lat="48.9335" lon="5.90667">
        <ele>328.9083252</ele>
        <time>2012-06-28T08:57:16Z</time>
      </trkpt>
      <trkpt lat="48.93377" lon="5.90746">
        <ele>327.9467773</ele>
        <time>2012-06-28T08:57:24Z</time>
      </trkpt>
      <trkpt lat="48.93401" lon="5.90819">
        <ele>327.9467773</ele>
        <time>2012-06-28T08:57:31Z</time>
      </trkpt>
      <trkpt lat="48.9342" lon="5.90874">
        <ele>328.9083252</ele>
        <time>2012-06-28T08:57:36Z</time>
      </trkpt>
      <trkpt lat="48.93449" lon="5.90956">
        <ele>328.9083252</ele>
        <time>2012-06-28T08:57:44Z</time>
      </trkpt>
      <trkpt lat="48.93477" lon="5.9103">
        <ele>329.8695068</ele>
        <time>2012-06-28T08:57:52Z</time>
      </trkpt>
      <trkpt lat="48.93504" lon="5.91105">
        <ele>329.388916</ele>
        <time>2012-06-28T08:58:00Z</time>
      </trkpt>
      <trkpt lat="48.93538" lon="5.91199">
        <ele>329.388916</ele>
        <time>2012-06-28T08:58:10Z</time>
      </trkpt>
      <trkpt lat="48.93568" lon="5.91285">
        <ele>330.3502197</ele>
        <time>2012-06-28T08:58:19Z</time>
      </trkpt>
      <trkpt lat="48.93599" lon="5.9137">
        <ele>331.3115234</ele>
        <time>2012-06-28T08:58:28Z</time>
      </trkpt>
      <trkpt lat="48.93631" lon="5.91449">
        <ele>332.2728271</ele>
        <time>2012-06-28T08:58:37Z</time>
      </trkpt>
      <trkpt lat="48.93659" lon="5.91514">
        <ele>333.7147217</ele>
        <time>2012-06-28T08:58:45Z</time>
      </trkpt>
      <trkpt lat="48.93697" lon="5.91596">
        <ele>333.2341309</ele>
        <time>2012-06-28T08:58:55Z</time>
      </trkpt>
      <trkpt lat="48.93728" lon="5.91658">
        <ele>334.6761475</ele>
        <time>2012-06-28T08:59:03Z</time>
      </trkpt>
      <trkpt lat="48.93768" lon="5.91733">
        <ele>335.6373291</ele>
        <time>2012-06-28T08:59:13Z</time>
      </trkpt>
      <trkpt lat="48.93801" lon="5.91793">
        <ele>338.0407715</ele>
        <time>2012-06-28T08:59:21Z</time>
      </trkpt>
      <trkpt lat="48.93826" lon="5.9184">
        <ele>338.5214844</ele>
        <time>2012-06-28T08:59:27Z</time>
      </trkpt>
      <trkpt lat="48.93865" lon="5.91909">
        <ele>339.0020752</ele>
        <time>2012-06-28T08:59:36Z</time>
      </trkpt>
      <trkpt lat="48.93909" lon="5.91979">
        <ele>339.0020752</ele>
        <time>2012-06-28T08:59:46Z</time>
      </trkpt>
      <trkpt lat="48.93944" lon="5.9203">
        <ele>340.4440918</ele>
        <time>2012-06-28T08:59:54Z</time>
      </trkpt>
      <trkpt lat="48.93975" lon="5.92079">
        <ele>340.4440918</ele>
        <time>2012-06-28T09:00:02Z</time>
      </trkpt>
      <trkpt lat="48.93994" lon="5.92107">
        <ele>340.9246826</ele>
        <time>2012-06-28T09:00:09Z</time>
      </trkpt>
      <trkpt lat="48.94008" lon="5.92125">
        <ele>340.4440918</ele>
        <time>2012-06-28T09:00:15Z</time>
      </trkpt>
      <trkpt lat="48.94013" lon="5.9213">
        <ele>340.4440918</ele>
        <time>2012-06-28T09:00:20Z</time>
      </trkpt>
      <trkpt lat="48.9401" lon="5.92127">
        <ele>340.9246826</ele>
        <time>2012-06-28T09:02:31Z</time>
      </trkpt>
      <trkpt lat="48.94009" lon="5.92128">
        <ele>340.9246826</ele>
        <time>2012-06-28T09:02:32Z</time>
      </trkpt>
      <trkpt lat="48.94009" lon="5.92134">
        <ele>340.4440918</ele>
        <time>2012-06-28T09:02:37Z</time>
      </trkpt>
      <trkpt lat="48.94012" lon="5.92144">
        <ele>340.9246826</ele>
        <time>2012-06-28T09:02:45Z</time>
      </trkpt>
      <trkpt lat="48.94022" lon="5.92161">
        <ele>340.9246826</ele>
        <time>2012-06-28T09:02:51Z</time>
      </trkpt>
      <trkpt lat="48.94031" lon="5.92182">
        <ele>340.9246826</ele>
        <time>2012-06-28T09:02:56Z</time>
      </trkpt>
      <trkpt lat="48.94048" lon="5.92216">
        <ele>340.9246826</ele>
        <time>2012-06-28T09:03:03Z</time>
      </trkpt>
      <trkpt lat="48.94071" lon="5.92262">
        <ele>340.9246826</ele>
        <time>2012-06-28T09:03:11Z</time>
      </trkpt>
      <trkpt lat="48.94105" lon="5.92321">
        <ele>342.3666992</ele>
        <time>2012-06-28T09:03:22Z</time>
      </trkpt>
      <trkpt lat="48.94123" lon="5.92355">
        <ele>343.3278809</ele>
        <time>2012-06-28T09:03:29Z</time>
      </trkpt>
      <trkpt lat="48.94137" lon="5.92379">
        <ele>345.2506104</ele>
        <time>2012-06-28T09:03:34Z</time>
      </trkpt>
      <trkpt lat="48.94158" lon="5.9242">
        <ele>344.7700195</ele>
        <time>2012-06-28T09:03:42Z</time>
      </trkpt>
      <trkpt lat="48.94181" lon="5.92471">
        <ele>345.7313232</ele>
        <time>2012-06-28T09:03:51Z</time>
      </trkpt>
      <trkpt lat="48.94203" lon="5.92518">
        <ele>345.7313232</ele>
        <time>2012-06-28T09:03:59Z</time>
      </trkpt>
      <trkpt lat="48.94224" lon="5.92564">
        <ele>346.2120361</ele>
        <time>2012-06-28T09:04:07Z</time>
      </trkpt>
      <trkpt lat="48.94245" lon="5.92621">
        <ele>348.6152344</ele>
        <time>2012-06-28T09:04:16Z</time>
      </trkpt>
      <trkpt lat="48.94262" lon="5.92674">
        <ele>349.0958252</ele>
        <time>2012-06-28T09:04:24Z</time>
      </trkpt>
      <trkpt lat="48.9428" lon="5.92731">
        <ele>351.0184326</ele>
        <time>2012-06-28T09:04:33Z</time>
      </trkpt>
      <trkpt lat="48.94292" lon="5.92775">
        <ele>351.4991455</ele>
        <time>2012-06-28T09:04:39Z</time>
      </trkpt>
      <trkpt lat="48.94295" lon="5.92789">
        <ele>351.0184326</ele>
        <time>2012-06-28T09:04:41Z</time>
      </trkpt>
      <trkpt lat="48.94297" lon="5.92796">
        <ele>350.5378418</ele>
        <time>2012-06-28T09:04:42Z</time>
      </trkpt>
      <trkpt lat="48.94299" lon="5.92804">
        <ele>351.0184326</ele>
        <time>2012-06-28T09:04:43Z</time>
      </trkpt>
      <trkpt lat="48.94307" lon="5.92848">
        <ele>350.057251</ele>
        <time>2012-06-28T09:04:49Z</time>
      </trkpt>
      <trkpt lat="48.9431" lon="5.92864">
        <ele>350.057251</ele>
        <time>2012-06-28T09:04:51Z</time>
      </trkpt>
      <trkpt lat="48.94322" lon="5.92926">
        <ele>350.5378418</ele>
        <time>2012-06-28T09:04:59Z</time>
      </trkpt>
      <trkpt lat="48.94334" lon="5.93002">
        <ele>349.0958252</ele>
        <time>2012-06-28T09:05:08Z</time>
      </trkpt>
      <trkpt lat="48.94348" lon="5.93099">
        <ele>348.1346436</ele>
        <time>2012-06-28T09:05:18Z</time>
      </trkpt>
      <trkpt lat="48.94361" lon="5.93193">
        <ele>348.1346436</ele>
        <time>2012-06-28T09:05:27Z</time>
      </trkpt>
      <trkpt lat="48.94377" lon="5.93295">
        <ele>347.1732178</ele>
        <time>2012-06-28T09:05:37Z</time>
      </trkpt>
      <trkpt lat="48.94388" lon="5.93364">
        <ele>346.692627</ele>
        <time>2012-06-28T09:05:44Z</time>
      </trkpt>
      <trkpt lat="48.94399" lon="5.93432">
        <ele>347.6539307</ele>
        <time>2012-06-28T09:05:52Z</time>
      </trkpt>
      <trkpt lat="48.94402" lon="5.93449">
        <ele>348.1346436</ele>
        <time>2012-06-28T09:05:54Z</time>
      </trkpt>
      <trkpt lat="48.94419" lon="5.93541">
        <ele>348.6152344</ele>
        <time>2012-06-28T09:06:05Z</time>
      </trkpt>
      <trkpt lat="48.94432" lon="5.93601">
        <ele>347.6539307</ele>
        <time>2012-06-28T09:06:12Z</time>
      </trkpt>
      <trkpt lat="48.94454" lon="5.93683">
        <ele>345.7313232</ele>
        <time>2012-06-28T09:06:21Z</time>
      </trkpt>
      <trkpt lat="48.94474" lon="5.93746">
        <ele>344.7700195</ele>
        <time>2012-06-28T09:06:27Z</time>
      </trkpt>
      <trkpt lat="48.94492" lon="5.93809">
        <ele>341.8859863</ele>
        <time>2012-06-28T09:06:32Z</time>
      </trkpt>
      <trkpt lat="48.94511" lon="5.93882">
        <ele>339.482666</ele>
        <time>2012-06-28T09:06:37Z</time>
      </trkpt>
      <trkpt lat="48.94528" lon="5.93981">
        <ele>336.598877</ele>
        <time>2012-06-28T09:06:43Z</time>
      </trkpt>
      <trkpt lat="48.94529" lon="5.94012">
        <ele>337.0794678</ele>
        <time>2012-06-28T09:06:45Z</time>
      </trkpt>
      <trkpt lat="48.9452" lon="5.94064">
        <ele>338.0407715</ele>
        <time>2012-06-28T09:06:49Z</time>
      </trkpt>
      <trkpt lat="48.94496" lon="5.94101">
        <ele>337.5600586</ele>
        <time>2012-06-28T09:06:53Z</time>
      </trkpt>
      <trkpt lat="48.94422" lon="5.94179">
        <ele>334.6761475</ele>
        <time>2012-06-28T09:07:03Z</time>
      </trkpt>
      <trkpt lat="48.94364" lon="5.94249">
        <ele>331.3115234</ele>
        <time>2012-06-28T09:07:11Z</time>
      </trkpt>
      <trkpt lat="48.94357" lon="5.9426">
        <ele>331.3115234</ele>
        <time>2012-06-28T09:07:12Z</time>
      </trkpt>
      <trkpt lat="48.94318" lon="5.94316">
        <ele>327.9467773</ele>
        <time>2012-06-28T09:07:17Z</time>
      </trkpt>
      <trkpt lat="48.94256" lon="5.94403">
        <ele>326.0241699</ele>
        <time>2012-06-28T09:07:25Z</time>
      </trkpt>
      <trkpt lat="48.94222" lon="5.94457">
        <ele>324.1015625</ele>
        <time>2012-06-28T09:07:30Z</time>
      </trkpt>
      <trkpt lat="48.94213" lon="5.94481">
        <ele>323.1403809</ele>
        <time>2012-06-28T09:07:32Z</time>
      </trkpt>
      <trkpt lat="48.94209" lon="5.94521">
        <ele>322.1789551</ele>
        <time>2012-06-28T09:07:35Z</time>
      </trkpt>
      <trkpt lat="48.94201" lon="5.94607">
        <ele>321.2177734</ele>
        <time>2012-06-28T09:07:41Z</time>
      </trkpt>
      <trkpt lat="48.94201" lon="5.94696">
        <ele>317.3724365</ele>
        <time>2012-06-28T09:07:47Z</time>
      </trkpt>
      <trkpt lat="48.94193" lon="5.94803">
        <ele>317.3724365</ele>
        <time>2012-06-28T09:07:54Z</time>
      </trkpt>
      <trkpt lat="48.94187" lon="5.94849">
        <ele>315.9304199</ele>
        <time>2012-06-28T09:07:57Z</time>
      </trkpt>
      <trkpt lat="48.94184" lon="5.94897">
        <ele>314.9691162</ele>
        <time>2012-06-28T09:08:00Z</time>
      </trkpt>
      <trkpt lat="48.94181" lon="5.94928">
        <ele>313.5272217</ele>
        <time>2012-06-28T09:08:02Z</time>
      </trkpt>
      <trkpt lat="48.9418" lon="5.94943">
        <ele>312.5657959</ele>
        <time>2012-06-28T09:08:03Z</time>
      </trkpt>
      <trkpt lat="48.94191" lon="5.95008">
        <ele>310.6430664</ele>
        <time>2012-06-28T09:08:07Z</time>
      </trkpt>
      <trkpt lat="48.94202" lon="5.95075">
        <ele>310.6430664</ele>
        <time>2012-06-28T09:08:11Z</time>
      </trkpt>
      <trkpt lat="48.94192" lon="5.95139">
        <ele>307.7592773</ele>
        <time>2012-06-28T09:08:15Z</time>
      </trkpt>
      <trkpt lat="48.94182" lon="5.95188">
        <ele>305.355957</ele>
        <time>2012-06-28T09:08:18Z</time>
      </trkpt>
      <trkpt lat="48.9416" lon="5.95248">
        <ele>304.8752441</ele>
        <time>2012-06-28T09:08:22Z</time>
      </trkpt>
      <trkpt lat="48.94154" lon="5.95263">
        <ele>304.3946533</ele>
        <time>2012-06-28T09:08:23Z</time>
      </trkpt>
      <trkpt lat="48.9414" lon="5.95291">
        <ele>302.4719238</ele>
        <time>2012-06-28T09:08:25Z</time>
      </trkpt>
      <trkpt lat="48.94095" lon="5.95322">
        <ele>300.5493164</ele>
        <time>2012-06-28T09:08:29Z</time>
      </trkpt>
      <trkpt lat="48.94084" lon="5.95326">
        <ele>300.0687256</ele>
        <time>2012-06-28T09:08:30Z</time>
      </trkpt>
      <trkpt lat="48.94049" lon="5.95334">
        <ele>298.626709</ele>
        <time>2012-06-28T09:08:33Z</time>
      </trkpt>
      <trkpt lat="48.94015" lon="5.95345">
        <ele>298.1461182</ele>
        <time>2012-06-28T09:08:36Z</time>
      </trkpt>
      <trkpt lat="48.93982" lon="5.9537">
        <ele>296.2235107</ele>
        <time>2012-06-28T09:08:39Z</time>
      </trkpt>
      <trkpt lat="48.93972" lon="5.9538">
        <ele>296.2235107</ele>
        <time>2012-06-28T09:08:40Z</time>
      </trkpt>
      <trkpt lat="48.93957" lon="5.954">
        <ele>294.3007813</ele>
        <time>2012-06-28T09:08:42Z</time>
      </trkpt>
      <trkpt lat="48.93921" lon="5.95456">
        <ele>298.1461182</ele>
        <time>2012-06-28T09:08:47Z</time>
      </trkpt>
      <trkpt lat="48.93914" lon="5.95465">
        <ele>298.1461182</ele>
        <time>2012-06-28T09:08:48Z</time>
      </trkpt>
      <trkpt lat="48.93886" lon="5.955">
        <ele>298.626709</ele>
        <time>2012-06-28T09:08:53Z</time>
      </trkpt>
      <trkpt lat="48.93859" lon="5.95532">
        <ele>296.7041016</ele>
        <time>2012-06-28T09:08:58Z</time>
      </trkpt>
      <trkpt lat="48.93816" lon="5.9557">
        <ele>296.7041016</ele>
        <time>2012-06-28T09:09:04Z</time>
      </trkpt>
      <trkpt lat="48.93786" lon="5.95599">
        <ele>296.2235107</ele>
        <time>2012-06-28T09:09:08Z</time>
      </trkpt>
      <trkpt lat="48.93733" lon="5.95666">
        <ele>295.2619629</ele>
        <time>2012-06-28T09:09:16Z</time>
      </trkpt>
      <trkpt lat="48.93702" lon="5.95709">
        <ele>295.2619629</ele>
        <time>2012-06-28T09:09:21Z</time>
      </trkpt>
      <trkpt lat="48.93673" lon="5.95759">
        <ele>296.2235107</ele>
        <time>2012-06-28T09:09:27Z</time>
      </trkpt>
      <trkpt lat="48.93658" lon="5.95782">
        <ele>294.7813721</ele>
        <time>2012-06-28T09:09:30Z</time>
      </trkpt>
      <trkpt lat="48.93635" lon="5.95819">
        <ele>293.8200684</ele>
        <time>2012-06-28T09:09:34Z</time>
      </trkpt>
      <trkpt lat="48.93602" lon="5.95869">
        <ele>292.3781738</ele>
        <time>2012-06-28T09:09:39Z</time>
      </trkpt>
      <trkpt lat="48.93582" lon="5.95897">
        <ele>290.9361572</ele>
        <time>2012-06-28T09:09:42Z</time>
      </trkpt>
      <trkpt lat="48.93547" lon="5.95957">
        <ele>289.9748535</ele>
        <time>2012-06-28T09:09:48Z</time>
      </trkpt>
      <trkpt lat="48.93512" lon="5.96016">
        <ele>289.9748535</ele>
        <time>2012-06-28T09:09:54Z</time>
      </trkpt>
      <trkpt lat="48.93454" lon="5.96084">
        <ele>288.532959</ele>
        <time>2012-06-28T09:10:02Z</time>
      </trkpt>
      <trkpt lat="48.93439" lon="5.96102">
        <ele>287.0908203</ele>
        <time>2012-06-28T09:10:04Z</time>
      </trkpt>
      <trkpt lat="48.93413" lon="5.96147">
        <ele>284.2069092</ele>
        <time>2012-06-28T09:10:08Z</time>
      </trkpt>
      <trkpt lat="48.93395" lon="5.96185">
        <ele>282.2843018</ele>
        <time>2012-06-28T09:10:11Z</time>
      </trkpt>
      <trkpt lat="48.93383" lon="5.9621">
        <ele>279.8808594</ele>
        <time>2012-06-28T09:10:13Z</time>
      </trkpt>
      <trkpt lat="48.93367" lon="5.96249">
        <ele>277.958252</ele>
        <time>2012-06-28T09:10:16Z</time>
      </trkpt>
      <trkpt lat="48.93349" lon="5.96309">
        <ele>274.1130371</ele>
        <time>2012-06-28T09:10:20Z</time>
      </trkpt>
      <trkpt lat="48.93346" lon="5.96325">
        <ele>272.6711426</ele>
        <time>2012-06-28T09:10:21Z</time>
      </trkpt>
      <trkpt lat="48.93342" lon="5.96375">
        <ele>270.7484131</ele>
        <time>2012-06-28T09:10:24Z</time>
      </trkpt>
      <trkpt lat="48.93345" lon="5.96445">
        <ele>267.864502</ele>
        <time>2012-06-28T09:10:28Z</time>
      </trkpt>
      <trkpt lat="48.93347" lon="5.96462">
        <ele>267.3839111</ele>
        <time>2012-06-28T09:10:29Z</time>
      </trkpt>
      <trkpt lat="48.93363" lon="5.96548">
        <ele>264.9805908</ele>
        <time>2012-06-28T09:10:34Z</time>
      </trkpt>
      <trkpt lat="48.9338" lon="5.96641">
        <ele>265.4613037</ele>
        <time>2012-06-28T09:10:39Z</time>
      </trkpt>
      <trkpt lat="48.93383" lon="5.9668">
        <ele>260.654541</ele>
        <time>2012-06-28T09:10:41Z</time>
      </trkpt>
      <trkpt lat="48.93384" lon="5.96718">
        <ele>260.1739502</ele>
        <time>2012-06-28T09:10:43Z</time>
      </trkpt>
      <trkpt lat="48.93387" lon="5.96791">
        <ele>259.2126465</ele>
        <time>2012-06-28T09:10:47Z</time>
      </trkpt>
      <trkpt lat="48.934" lon="5.96854">
        <ele>262.0965576</ele>
        <time>2012-06-28T09:10:51Z</time>
      </trkpt>
      <trkpt lat="48.93416" lon="5.96939">
        <ele>260.1739502</ele>
        <time>2012-06-28T09:10:57Z</time>
      </trkpt>
      <trkpt lat="48.93419" lon="5.97011">
        <ele>258.7319336</ele>
        <time>2012-06-28T09:11:02Z</time>
      </trkpt>
      <trkpt lat="48.93419" lon="5.97025">
        <ele>258.2513428</ele>
        <time>2012-06-28T09:11:03Z</time>
      </trkpt>
      <trkpt lat="48.93434" lon="5.97095">
        <ele>258.2513428</ele>
        <time>2012-06-28T09:11:08Z</time>
      </trkpt>
      <trkpt lat="48.93439" lon="5.97108">
        <ele>257.770752</ele>
        <time>2012-06-28T09:11:09Z</time>
      </trkpt>
      <trkpt lat="48.93446" lon="5.97119">
        <ele>257.2900391</ele>
        <time>2012-06-28T09:11:10Z</time>
      </trkpt>
      <trkpt lat="48.93467" lon="5.97155">
        <ele>254.8865967</ele>
        <time>2012-06-28T09:11:13Z</time>
      </trkpt>
      <trkpt lat="48.93487" lon="5.97193">
        <ele>253.4447021</ele>
        <time>2012-06-28T09:11:16Z</time>
      </trkpt>
      <trkpt lat="48.93497" lon="5.97233">
        <ele>251.0413818</ele>
        <time>2012-06-28T09:11:19Z</time>
      </trkpt>
      <trkpt lat="48.93492" lon="5.97275">
        <ele>249.1187744</ele>
        <time>2012-06-28T09:11:22Z</time>
      </trkpt>
      <trkpt lat="48.93482" lon="5.97318">
        <ele>249.1187744</ele>
        <time>2012-06-28T09:11:25Z</time>
      </trkpt>
      <trkpt lat="48.9348" lon="5.97332">
        <ele>248.6381836</ele>
        <time>2012-06-28T09:11:26Z</time>
      </trkpt>
      <trkpt lat="48.93485" lon="5.97387">
        <ele>248.6381836</ele>
        <time>2012-06-28T09:11:30Z</time>
      </trkpt>
      <trkpt lat="48.93489" lon="5.974">
        <ele>247.6767578</ele>
        <time>2012-06-28T09:11:31Z</time>
      </trkpt>
      <trkpt lat="48.93527" lon="5.97515">
        <ele>243.831543</ele>
        <time>2012-06-28T09:11:39Z</time>
      </trkpt>
      <trkpt lat="48.93533" lon="5.97529">
        <ele>243.831543</ele>
        <time>2012-06-28T09:11:40Z</time>
      </trkpt>
      <trkpt lat="48.93565" lon="5.97613">
        <ele>240.9476318</ele>
        <time>2012-06-28T09:11:46Z</time>
      </trkpt>
      <trkpt lat="48.93607" lon="5.97719">
        <ele>238.5443115</ele>
        <time>2012-06-28T09:11:53Z</time>
      </trkpt>
      <trkpt lat="48.93657" lon="5.97825">
        <ele>236.6217041</ele>
        <time>2012-06-28T09:12:00Z</time>
      </trkpt>
      <trkpt lat="48.93665" lon="5.97838">
        <ele>236.1409912</ele>
        <time>2012-06-28T09:12:01Z</time>
      </trkpt>
      <trkpt lat="48.93684" lon="5.97859">
        <ele>236.1409912</ele>
        <time>2012-06-28T09:12:03Z</time>
      </trkpt>
      <trkpt lat="48.93704" lon="5.97874">
        <ele>236.1409912</ele>
        <time>2012-06-28T09:12:05Z</time>
      </trkpt>
      <trkpt lat="48.93784" lon="5.97921">
        <ele>234.6990967</ele>
        <time>2012-06-28T09:12:13Z</time>
      </trkpt>
      <trkpt lat="48.93831" lon="5.9796">
        <ele>235.6602783</ele>
        <time>2012-06-28T09:12:18Z</time>
      </trkpt>
      <trkpt lat="48.93881" lon="5.98019">
        <ele>234.2183838</ele>
        <time>2012-06-28T09:12:24Z</time>
      </trkpt>
      <trkpt lat="48.93928" lon="5.98061">
        <ele>233.7376709</ele>
        <time>2012-06-28T09:12:29Z</time>
      </trkpt>
      <trkpt lat="48.93961" lon="5.98104">
        <ele>231.8149414</ele>
        <time>2012-06-28T09:12:33Z</time>
      </trkpt>
      <trkpt lat="48.9398" lon="5.98143">
        <ele>230.8537598</ele>
        <time>2012-06-28T09:12:36Z</time>
      </trkpt>
      <trkpt lat="48.9401" lon="5.98214">
        <ele>228.9311523</ele>
        <time>2012-06-28T09:12:41Z</time>
      </trkpt>
      <trkpt lat="48.94032" lon="5.98273">
        <ele>226.0471191</ele>
        <time>2012-06-28T09:12:45Z</time>
      </trkpt>
      <trkpt lat="48.94046" lon="5.98337">
        <ele>225.0859375</ele>
        <time>2012-06-28T09:12:49Z</time>
      </trkpt>
      <trkpt lat="48.94047" lon="5.98354">
        <ele>226.0471191</ele>
        <time>2012-06-28T09:12:50Z</time>
      </trkpt>
      <trkpt lat="48.94041" lon="5.9845">
        <ele>225.5665283</ele>
        <time>2012-06-28T09:12:56Z</time>
      </trkpt>
      <trkpt lat="48.94037" lon="5.98543">
        <ele>225.5665283</ele>
        <time>2012-06-28T09:13:02Z</time>
      </trkpt>
      <trkpt lat="48.94047" lon="5.98602">
        <ele>224.6052246</ele>
        <time>2012-06-28T09:13:06Z</time>
      </trkpt>
      <trkpt lat="48.94093" lon="5.98741">
        <ele>224.6052246</ele>
        <time>2012-06-28T09:13:16Z</time>
      </trkpt>
      <trkpt lat="48.94126" lon="5.98851">
        <ele>223.163208</ele>
        <time>2012-06-28T09:13:24Z</time>
      </trkpt>
      <trkpt lat="48.94145" lon="5.98933">
        <ele>223.163208</ele>
        <time>2012-06-28T09:13:30Z</time>
      </trkpt>
      <trkpt lat="48.94169" lon="5.99042">
        <ele>223.163208</ele>
        <time>2012-06-28T09:13:38Z</time>
      </trkpt>
      <trkpt lat="48.94198" lon="5.99133">
        <ele>222.2017822</ele>
        <time>2012-06-28T09:13:45Z</time>
      </trkpt>
      <trkpt lat="48.94218" lon="5.99213">
        <ele>221.7211914</ele>
        <time>2012-06-28T09:13:51Z</time>
      </trkpt>
      <trkpt lat="48.94243" lon="5.99292">
        <ele>219.798584</ele>
        <time>2012-06-28T09:13:57Z</time>
      </trkpt>
      <trkpt lat="48.94276" lon="5.99369">
        <ele>218.8372803</ele>
        <time>2012-06-28T09:14:03Z</time>
      </trkpt>
      <trkpt lat="48.94285" lon="5.99397">
        <ele>217.8759766</ele>
        <time>2012-06-28T09:14:05Z</time>
      </trkpt>
      <trkpt lat="48.94296" lon="5.99472">
        <ele>217.3953857</ele>
        <time>2012-06-28T09:14:10Z</time>
      </trkpt>
      <trkpt lat="48.94301" lon="5.99575">
        <ele>215.9532471</ele>
        <time>2012-06-28T09:14:17Z</time>
      </trkpt>
      <trkpt lat="48.9431" lon="5.99682">
        <ele>214.0306396</ele>
        <time>2012-06-28T09:14:25Z</time>
      </trkpt>
      <trkpt lat="48.94316" lon="5.9976">
        <ele>213.0693359</ele>
        <time>2012-06-28T09:14:31Z</time>
      </trkpt>
      <trkpt lat="48.94325" lon="5.99836">
        <ele>211.6274414</ele>
        <time>2012-06-28T09:14:37Z</time>
      </trkpt>
      <trkpt lat="48.94343" lon="5.99905">
        <ele>212.1080322</ele>
        <time>2012-06-28T09:14:43Z</time>
      </trkpt>
      <trkpt lat="48.94371" lon="5.9998">
        <ele>213.0693359</ele>
        <time>2012-06-28T09:14:50Z</time>
      </trkpt>
      <trkpt lat="48.94393" lon="6.00042">
        <ele>212.588623</ele>
        <time>2012-06-28T09:14:56Z</time>
      </trkpt>
      <trkpt lat="48.94412" lon="6.00089">
        <ele>212.1080322</ele>
        <time>2012-06-28T09:15:01Z</time>
      </trkpt>
      <trkpt lat="48.94451" lon="6.00165">
        <ele>212.1080322</ele>
        <time>2012-06-28T09:15:09Z</time>
      </trkpt>
      <trkpt lat="48.94481" lon="6.00221">
        <ele>211.1467285</ele>
        <time>2012-06-28T09:15:15Z</time>
      </trkpt>
      <trkpt lat="48.94502" lon="6.0026">
        <ele>213.5500488</ele>
        <time>2012-06-28T09:15:19Z</time>
      </trkpt>
      <trkpt lat="48.94518" lon="6.0029">
        <ele>211.1467285</ele>
        <time>2012-06-28T09:15:22Z</time>
      </trkpt>
      <trkpt lat="48.94528" lon="6.00325">
        <ele>213.0693359</ele>
        <time>2012-06-28T09:15:25Z</time>
      </trkpt>
      <trkpt lat="48.94535" lon="6.00361">
        <ele>211.1467285</ele>
        <time>2012-06-28T09:15:28Z</time>
      </trkpt>
      <trkpt lat="48.94552" lon="6.00443">
        <ele>211.1467285</ele>
        <time>2012-06-28T09:15:35Z</time>
      </trkpt>
      <trkpt lat="48.94572" lon="6.00538">
        <ele>208.2628174</ele>
        <time>2012-06-28T09:15:43Z</time>
      </trkpt>
      <trkpt lat="48.94593" lon="6.00636">
        <ele>207.3013916</ele>
        <time>2012-06-28T09:15:51Z</time>
      </trkpt>
      <trkpt lat="48.94617" lon="6.00744">
        <ele>208.2628174</ele>
        <time>2012-06-28T09:16:00Z</time>
      </trkpt>
      <trkpt lat="48.94639" lon="6.0082">
        <ele>209.2241211</ele>
        <time>2012-06-28T09:16:07Z</time>
      </trkpt>
      <trkpt lat="48.94667" lon="6.00906">
        <ele>208.2628174</ele>
        <time>2012-06-28T09:16:15Z</time>
      </trkpt>
      <trkpt lat="48.94696" lon="6.00987">
        <ele>208.2628174</ele>
        <time>2012-06-28T09:16:22Z</time>
      </trkpt>
      <trkpt lat="48.94735" lon="6.01088">
        <ele>208.7434082</ele>
        <time>2012-06-28T09:16:31Z</time>
      </trkpt>
      <trkpt lat="48.94779" lon="6.01197">
        <ele>209.2241211</ele>
        <time>2012-06-28T09:16:41Z</time>
      </trkpt>
      <trkpt lat="48.94818" lon="6.01278">
        <ele>206.8206787</ele>
        <time>2012-06-28T09:16:49Z</time>
      </trkpt>
      <trkpt lat="48.9486" lon="6.01355">
        <ele>206.3400879</ele>
        <time>2012-06-28T09:16:57Z</time>
      </trkpt>
      <trkpt lat="48.94881" lon="6.01382">
        <ele>206.8206787</ele>
        <time>2012-06-28T09:17:00Z</time>
      </trkpt>
      <trkpt lat="48.94908" lon="6.01404">
        <ele>203.4561768</ele>
        <time>2012-06-28T09:17:03Z</time>
      </trkpt>
      <trkpt lat="48.94918" lon="6.01412">
        <ele>203.4561768</ele>
        <time>2012-06-28T09:17:04Z</time>
      </trkpt>
      <trkpt lat="48.9495" lon="6.01459">
        <ele>203.4561768</ele>
        <time>2012-06-28T09:17:08Z</time>
      </trkpt>
      <trkpt lat="48.94993" lon="6.01561">
        <ele>201.5335693</ele>
        <time>2012-06-28T09:17:16Z</time>
      </trkpt>
      <trkpt lat="48.95019" lon="6.01638">
        <ele>201.5335693</ele>
        <time>2012-06-28T09:17:22Z</time>
      </trkpt>
      <trkpt lat="48.95065" lon="6.01783">
        <ele>199.6108398</ele>
        <time>2012-06-28T09:17:33Z</time>
      </trkpt>
      <trkpt lat="48.95092" lon="6.01878">
        <ele>199.130127</ele>
        <time>2012-06-28T09:17:40Z</time>
      </trkpt>
      <trkpt lat="48.95107" lon="6.01956">
        <ele>199.130127</ele>
        <time>2012-06-28T09:17:46Z</time>
      </trkpt>
      <trkpt lat="48.95121" lon="6.02079">
        <ele>199.6108398</ele>
        <time>2012-06-28T09:17:55Z</time>
      </trkpt>
      <trkpt lat="48.9514" lon="6.02174">
        <ele>198.1689453</ele>
        <time>2012-06-28T09:18:02Z</time>
      </trkpt>
      <trkpt lat="48.95153" lon="6.02224">
        <ele>196.7269287</ele>
        <time>2012-06-28T09:18:06Z</time>
      </trkpt>
      <trkpt lat="48.9518" lon="6.02304">
        <ele>198.1689453</ele>
        <time>2012-06-28T09:18:13Z</time>
      </trkpt>
      <trkpt lat="48.95207" lon="6.0237">
        <ele>195.765625</ele>
        <time>2012-06-28T09:18:20Z</time>
      </trkpt>
      <trkpt lat="48.95211" lon="6.02379">
        <ele>196.2463379</ele>
        <time>2012-06-28T09:18:21Z</time>
      </trkpt>
      <trkpt lat="48.95246" lon="6.02454">
        <ele>197.2075195</ele>
        <time>2012-06-28T09:18:29Z</time>
      </trkpt>
      <trkpt lat="48.95273" lon="6.02513">
        <ele>195.765625</ele>
        <time>2012-06-28T09:18:35Z</time>
      </trkpt>
      <trkpt lat="48.95306" lon="6.02598">
        <ele>193.8430176</ele>
        <time>2012-06-28T09:18:43Z</time>
      </trkpt>
      <trkpt lat="48.95343" lon="6.02685">
        <ele>195.765625</ele>
        <time>2012-06-28T09:18:51Z</time>
      </trkpt>
      <trkpt lat="48.95389" lon="6.02794">
        <ele>195.2849121</ele>
        <time>2012-06-28T09:19:01Z</time>
      </trkpt>
      <trkpt lat="48.95404" lon="6.02855">
        <ele>193.8430176</ele>
        <time>2012-06-28T09:19:06Z</time>
      </trkpt>
      <trkpt lat="48.95415" lon="6.02914">
        <ele>192.401123</ele>
        <time>2012-06-28T09:19:11Z</time>
      </trkpt>
      <trkpt lat="48.95422" lon="6.02967">
        <ele>191.4395752</ele>
        <time>2012-06-28T09:19:16Z</time>
      </trkpt>
      <trkpt lat="48.95434" lon="6.03038">
        <ele>191.9202881</ele>
        <time>2012-06-28T09:19:24Z</time>
      </trkpt>
      <trkpt lat="48.95442" lon="6.03081">
        <ele>192.8817139</ele>
        <time>2012-06-28T09:19:30Z</time>
      </trkpt>
      <trkpt lat="48.95445" lon="6.03101">
        <ele>191.4395752</ele>
        <time>2012-06-28T09:19:33Z</time>
      </trkpt>
      <trkpt lat="48.95446" lon="6.03108">
        <ele>191.9202881</ele>
        <time>2012-06-28T09:19:34Z</time>
      </trkpt>
      <trkpt lat="48.95442" lon="6.0315">
        <ele>190.9589844</ele>
        <time>2012-06-28T09:19:39Z</time>
      </trkpt>
      <trkpt lat="48.95427" lon="6.03181">
        <ele>191.4395752</ele>
        <time>2012-06-28T09:19:43Z</time>
      </trkpt>
      <trkpt lat="48.95411" lon="6.03212">
        <ele>189.9976807</ele>
        <time>2012-06-28T09:19:47Z</time>
      </trkpt>
      <trkpt lat="48.95412" lon="6.03222">
        <ele>190.9589844</ele>
        <time>2012-06-28T09:19:48Z</time>
      </trkpt>
      <trkpt lat="48.95417" lon="6.03305">
        <ele>189.9976807</ele>
        <time>2012-06-28T09:19:55Z</time>
      </trkpt>
      <trkpt lat="48.9542" lon="6.03368">
        <ele>188.5557861</ele>
        <time>2012-06-28T09:20:01Z</time>
      </trkpt>
      <trkpt lat="48.9542" lon="6.03442">
        <ele>187.5943604</ele>
        <time>2012-06-28T09:20:08Z</time>
      </trkpt>
      <trkpt lat="48.9542" lon="6.03495">
        <ele>187.5943604</ele>
        <time>2012-06-28T09:20:13Z</time>
      </trkpt>
      <trkpt lat="48.9543" lon="6.03546">
        <ele>187.5943604</ele>
        <time>2012-06-28T09:20:18Z</time>
      </trkpt>
      <trkpt lat="48.95451" lon="6.03607">
        <ele>186.6331787</ele>
        <time>2012-06-28T09:20:25Z</time>
      </trkpt>
      <trkpt lat="48.95464" lon="6.03655">
        <ele>186.1524658</ele>
        <time>2012-06-28T09:20:32Z</time>
      </trkpt>
      <trkpt lat="48.95466" lon="6.03667">
        <ele>186.1524658</ele>
        <time>2012-06-28T09:20:36Z</time>
      </trkpt>
      <trkpt lat="48.95466" lon="6.03667">
        <ele>185.6717529</ele>
        <time>2012-06-28T09:20:38Z</time>
      </trkpt>
      <trkpt lat="48.95467" lon="6.03668">
        <ele>185.6717529</ele>
        <time>2012-06-28T09:20:42Z</time>
      </trkpt>
      <trkpt lat="48.9547" lon="6.03678">
        <ele>185.6717529</ele>
        <time>2012-06-28T09:20:45Z</time>
      </trkpt>
      <trkpt lat="48.95473" lon="6.03679">
        <ele>185.6717529</ele>
        <time>2012-06-28T09:20:49Z</time>
      </trkpt>
      <trkpt lat="48.95473" lon="6.03679">
        <ele>185.6717529</ele>
        <time>2012-06-28T09:20:51Z</time>
      </trkpt>
      <trkpt lat="48.95471" lon="6.03677">
        <ele>185.6717529</ele>
        <time>2012-06-28T09:21:42Z</time>
      </trkpt>
      <trkpt lat="48.95474" lon="6.03671">
        <ele>185.6717529</ele>
        <time>2012-06-28T09:21:45Z</time>
      </trkpt>
      <trkpt lat="48.95494" lon="6.03666">
        <ele>186.6331787</ele>
        <time>2012-06-28T09:21:52Z</time>
      </trkpt>
      <trkpt lat="48.95525" lon="6.03658">
        <ele>186.6331787</ele>
        <time>2012-06-28T09:21:59Z</time>
      </trkpt>
      <trkpt lat="48.95558" lon="6.0365">
        <ele>187.5943604</ele>
        <time>2012-06-28T09:22:05Z</time>
      </trkpt>
      <trkpt lat="48.95601" lon="6.03644">
        <ele>187.1137695</ele>
        <time>2012-06-28T09:22:12Z</time>
      </trkpt>
      <trkpt lat="48.95613" lon="6.03642">
        <ele>188.0750732</ele>
        <time>2012-06-28T09:22:14Z</time>
      </trkpt>
      <trkpt lat="48.95619" lon="6.03641">
        <ele>187.5943604</ele>
        <time>2012-06-28T09:22:15Z</time>
      </trkpt>
      <trkpt lat="48.95661" lon="6.03634">
        <ele>187.5943604</ele>
        <time>2012-06-28T09:22:21Z</time>
      </trkpt>
      <trkpt lat="48.95706" lon="6.03615">
        <ele>188.5557861</ele>
        <time>2012-06-28T09:22:27Z</time>
      </trkpt>
      <trkpt lat="48.95776" lon="6.03584">
        <ele>188.0750732</ele>
        <time>2012-06-28T09:22:36Z</time>
      </trkpt>
      <trkpt lat="48.95827" lon="6.0356">
        <ele>187.1137695</ele>
        <time>2012-06-28T09:22:42Z</time>
      </trkpt>
      <trkpt lat="48.9589" lon="6.03531">
        <ele>185.6717529</ele>
        <time>2012-06-28T09:22:49Z</time>
      </trkpt>
      <trkpt lat="48.95969" lon="6.03494">
        <ele>184.2298584</ele>
        <time>2012-06-28T09:22:58Z</time>
      </trkpt>
      <trkpt lat="48.96044" lon="6.0346">
        <ele>184.7105713</ele>
        <time>2012-06-28T09:23:07Z</time>
      </trkpt>
      <trkpt lat="48.96103" lon="6.03433">
        <ele>184.2298584</ele>
        <time>2012-06-28T09:23:15Z</time>
      </trkpt>
      <trkpt lat="48.96196" lon="6.03391">
        <ele>184.2298584</ele>
        <time>2012-06-28T09:23:27Z</time>
      </trkpt>
      <trkpt lat="48.96222" lon="6.03356">
        <ele>184.2298584</ele>
        <time>2012-06-28T09:23:34Z</time>
      </trkpt>
      <trkpt lat="48.9623" lon="6.03354">
        <ele>183.2684326</ele>
        <time>2012-06-28T09:23:35Z</time>
      </trkpt>
      <trkpt lat="48.96283" lon="6.03341">
        <ele>183.7490234</ele>
        <time>2012-06-28T09:23:39Z</time>
      </trkpt>
      <trkpt lat="48.963" lon="6.03335">
        <ele>183.2684326</ele>
        <time>2012-06-28T09:23:41Z</time>
      </trkpt>
      <trkpt lat="48.96318" lon="6.03328">
        <ele>183.2684326</ele>
        <time>2012-06-28T09:23:43Z</time>
      </trkpt>
      <trkpt lat="48.96327" lon="6.03324">
        <ele>183.2684326</ele>
        <time>2012-06-28T09:23:44Z</time>
      </trkpt>
      <trkpt lat="48.96336" lon="6.0332">
        <ele>183.2684326</ele>
        <time>2012-06-28T09:23:45Z</time>
      </trkpt>
      <trkpt lat="48.96352" lon="6.03312">
        <ele>183.7490234</ele>
        <time>2012-06-28T09:23:47Z</time>
      </trkpt>
      <trkpt lat="48.96376" lon="6.03302">
        <ele>183.2684326</ele>
        <time>2012-06-28T09:23:50Z</time>
      </trkpt>
      <trkpt lat="48.96463" lon="6.03264">
        <ele>183.2684326</ele>
        <time>2012-06-28T09:24:01Z</time>
      </trkpt>
      <trkpt lat="48.96535" lon="6.03232">
        <ele>182.7878418</ele>
        <time>2012-06-28T09:24:10Z</time>
      </trkpt>
      <trkpt lat="48.96599" lon="6.03203">
        <ele>184.2298584</ele>
        <time>2012-06-28T09:24:18Z</time>
      </trkpt>
      <trkpt lat="48.96672" lon="6.0317">
        <ele>183.2684326</ele>
        <time>2012-06-28T09:24:27Z</time>
      </trkpt>
      <trkpt lat="48.96743" lon="6.03138">
        <ele>182.3071289</ele>
        <time>2012-06-28T09:24:36Z</time>
      </trkpt>
      <trkpt lat="48.96822" lon="6.03102">
        <ele>182.7878418</ele>
        <time>2012-06-28T09:24:46Z</time>
      </trkpt>
      <trkpt lat="48.96902" lon="6.03067">
        <ele>183.2684326</ele>
        <time>2012-06-28T09:24:56Z</time>
      </trkpt>
      <trkpt lat="48.96981" lon="6.03032">
        <ele>182.7878418</ele>
        <time>2012-06-28T09:25:06Z</time>
      </trkpt>
      <trkpt lat="48.9702" lon="6.03014">
        <ele>182.7878418</ele>
        <time>2012-06-28T09:25:11Z</time>
      </trkpt>
      <trkpt lat="48.97028" lon="6.03011">
        <ele>183.2684326</ele>
        <time>2012-06-28T09:25:12Z</time>
      </trkpt>
      <trkpt lat="48.97097" lon="6.0298">
        <ele>183.7490234</ele>
        <time>2012-06-28T09:25:21Z</time>
      </trkpt>
      <trkpt lat="48.97108" lon="6.02973">
        <ele>183.7490234</ele>
        <time>2012-06-28T09:25:24Z</time>
      </trkpt>
      <trkpt lat="48.97127" lon="6.02958">
        <ele>183.7490234</ele>
        <time>2012-06-28T09:25:26Z</time>
      </trkpt>
      <trkpt lat="48.97237" lon="6.02915">
        <ele>184.7105713</ele>
        <time>2012-06-28T09:25:40Z</time>
      </trkpt>
      <trkpt lat="48.97314" lon="6.0288">
        <ele>185.1911621</ele>
        <time>2012-06-28T09:25:50Z</time>
      </trkpt>
      <trkpt lat="48.97386" lon="6.0285">
        <ele>184.7105713</ele>
        <time>2012-06-28T09:25:59Z</time>
      </trkpt>
      <trkpt lat="48.9744" lon="6.02823">
        <ele>184.7105713</ele>
        <time>2012-06-28T09:26:06Z</time>
      </trkpt>
      <trkpt lat="48.97491" lon="6.0279">
        <ele>187.5943604</ele>
        <time>2012-06-28T09:26:13Z</time>
      </trkpt>
      <trkpt lat="48.97505" lon="6.02779">
        <ele>184.7105713</ele>
        <time>2012-06-28T09:26:15Z</time>
      </trkpt>
      <trkpt lat="48.97551" lon="6.02749">
        <ele>185.6717529</ele>
        <time>2012-06-28T09:26:21Z</time>
      </trkpt>
      <trkpt lat="48.97627" lon="6.027">
        <ele>186.1524658</ele>
        <time>2012-06-28T09:26:31Z</time>
      </trkpt>
      <trkpt lat="48.97662" lon="6.02677">
        <ele>185.6717529</ele>
        <time>2012-06-28T09:26:36Z</time>
      </trkpt>
      <trkpt lat="48.97689" lon="6.02675">
        <ele>185.6717529</ele>
        <time>2012-06-28T09:26:40Z</time>
      </trkpt>
      <trkpt lat="48.97709" lon="6.02682">
        <ele>185.1911621</ele>
        <time>2012-06-28T09:26:43Z</time>
      </trkpt>
      <trkpt lat="48.97718" lon="6.0267">
        <ele>185.1911621</ele>
        <time>2012-06-28T09:26:45Z</time>
      </trkpt>
      <trkpt lat="48.9773" lon="6.02643">
        <ele>186.1524658</ele>
        <time>2012-06-28T09:26:48Z</time>
      </trkpt>
      <trkpt lat="48.97736" lon="6.02635">
        <ele>185.6717529</ele>
        <time>2012-06-28T09:26:49Z</time>
      </trkpt>
      <trkpt lat="48.97778" lon="6.026">
        <ele>184.7105713</ele>
        <time>2012-06-28T09:26:55Z</time>
      </trkpt>
      <trkpt lat="48.97793" lon="6.0259">
        <ele>185.6717529</ele>
        <time>2012-06-28T09:26:57Z</time>
      </trkpt>
      <trkpt lat="48.97881" lon="6.0253">
        <ele>186.6331787</ele>
        <time>2012-06-28T09:27:09Z</time>
      </trkpt>
      <trkpt lat="48.9795" lon="6.02484">
        <ele>186.6331787</ele>
        <time>2012-06-28T09:27:19Z</time>
      </trkpt>
      <trkpt lat="48.98032" lon="6.02429">
        <ele>188.0750732</ele>
        <time>2012-06-28T09:27:31Z</time>
      </trkpt>
      <trkpt lat="48.98108" lon="6.02379">
        <ele>189.9976807</ele>
        <time>2012-06-28T09:27:42Z</time>
      </trkpt>
      <trkpt lat="48.9816" lon="6.02344">
        <ele>190.4783936</ele>
        <time>2012-06-28T09:27:50Z</time>
      </trkpt>
      <trkpt lat="48.98218" lon="6.02307">
        <ele>189.5169678</ele>
        <time>2012-06-28T09:27:59Z</time>
      </trkpt>
      <trkpt lat="48.98251" lon="6.02296">
        <ele>189.036377</ele>
        <time>2012-06-28T09:28:04Z</time>
      </trkpt>
      <trkpt lat="48.98265" lon="6.02295">
        <ele>189.036377</ele>
        <time>2012-06-28T09:28:07Z</time>
      </trkpt>
      <trkpt lat="48.98274" lon="6.02296">
        <ele>188.5557861</ele>
        <time>2012-06-28T09:28:12Z</time>
      </trkpt>
      <trkpt lat="48.98273" lon="6.02295">
        <ele>189.036377</ele>
        <time>2012-06-28T09:28:14Z</time>
      </trkpt>
      <trkpt lat="48.98269" lon="6.02293">
        <ele>188.0750732</ele>
        <time>2012-06-28T09:28:33Z</time>
      </trkpt>
      <trkpt lat="48.9827" lon="6.02293">
        <ele>187.5943604</ele>
        <time>2012-06-28T09:28:34Z</time>
      </trkpt>
      <trkpt lat="48.98284" lon="6.02295">
        <ele>188.0750732</ele>
        <time>2012-06-28T09:28:38Z</time>
      </trkpt>
      <trkpt lat="48.98291" lon="6.02291">
        <ele>187.5943604</ele>
        <time>2012-06-28T09:28:40Z</time>
      </trkpt>
      <trkpt lat="48.98301" lon="6.02268">
        <ele>188.0750732</ele>
        <time>2012-06-28T09:28:44Z</time>
      </trkpt>
      <trkpt lat="48.98308" lon="6.02243">
        <ele>188.0750732</ele>
        <time>2012-06-28T09:28:47Z</time>
      </trkpt>
      <trkpt lat="48.9832" lon="6.02204">
        <ele>188.5557861</ele>
        <time>2012-06-28T09:28:52Z</time>
      </trkpt>
      <trkpt lat="48.98342" lon="6.02149">
        <ele>189.9976807</ele>
        <time>2012-06-28T09:28:59Z</time>
      </trkpt>
      <trkpt lat="48.9836" lon="6.02091">
        <ele>189.5169678</ele>
        <time>2012-06-28T09:29:06Z</time>
      </trkpt>
      <trkpt lat="48.98375" lon="6.02027">
        <ele>190.9589844</ele>
        <time>2012-06-28T09:29:14Z</time>
      </trkpt>
      <trkpt lat="48.98393" lon="6.02007">
        <ele>190.4783936</ele>
        <time>2012-06-28T09:29:18Z</time>
      </trkpt>
      <trkpt lat="48.98407" lon="6.02008">
        <ele>190.4783936</ele>
        <time>2012-06-28T09:29:20Z</time>
      </trkpt>
      <trkpt lat="48.9847" lon="6.0203">
        <ele>192.401123</ele>
        <time>2012-06-28T09:29:29Z</time>
      </trkpt>
      <trkpt lat="48.98523" lon="6.0204">
        <ele>192.401123</ele>
        <time>2012-06-28T09:29:37Z</time>
      </trkpt>
      <trkpt lat="48.98571" lon="6.02047">
        <ele>193.8430176</ele>
        <time>2012-06-28T09:29:45Z</time>
      </trkpt>
      <trkpt lat="48.98577" lon="6.0205">
        <ele>194.8043213</ele>
        <time>2012-06-28T09:29:46Z</time>
      </trkpt>
      <trkpt lat="48.98593" lon="6.02066">
        <ele>195.765625</ele>
        <time>2012-06-28T09:29:49Z</time>
      </trkpt>
      <trkpt lat="48.98622" lon="6.02108">
        <ele>196.7269287</ele>
        <time>2012-06-28T09:29:56Z</time>
      </trkpt>
      <trkpt lat="48.98653" lon="6.02158">
        <ele>198.6495361</ele>
        <time>2012-06-28T09:30:04Z</time>
      </trkpt>
      <trkpt lat="48.98689" lon="6.02213">
        <ele>201.0528564</ele>
        <time>2012-06-28T09:30:13Z</time>
      </trkpt>
      <trkpt lat="48.98729" lon="6.02274">
        <ele>200.5722656</ele>
        <time>2012-06-28T09:30:22Z</time>
      </trkpt>
      <trkpt lat="48.98765" lon="6.02318">
        <ele>199.130127</ele>
        <time>2012-06-28T09:30:29Z</time>
      </trkpt>
      <trkpt lat="48.98819" lon="6.02379">
        <ele>198.6495361</ele>
        <time>2012-06-28T09:30:38Z</time>
      </trkpt>
      <trkpt lat="48.98879" lon="6.02445">
        <ele>197.2075195</ele>
        <time>2012-06-28T09:30:47Z</time>
      </trkpt>
      <trkpt lat="48.98922" lon="6.02493">
        <ele>194.8043213</ele>
        <time>2012-06-28T09:30:53Z</time>
      </trkpt>
      <trkpt lat="48.9893" lon="6.02502">
        <ele>194.8043213</ele>
        <time>2012-06-28T09:30:54Z</time>
      </trkpt>
      <trkpt lat="48.98979" lon="6.02556">
        <ele>193.3623047</ele>
        <time>2012-06-28T09:31:00Z</time>
      </trkpt>
      <trkpt lat="48.99027" lon="6.02611">
        <ele>192.401123</ele>
        <time>2012-06-28T09:31:06Z</time>
      </trkpt>
      <trkpt lat="48.99079" lon="6.02671">
        <ele>191.4395752</ele>
        <time>2012-06-28T09:31:13Z</time>
      </trkpt>
      <trkpt lat="48.99148" lon="6.02753">
        <ele>190.9589844</ele>
        <time>2012-06-28T09:31:22Z</time>
      </trkpt>
      <trkpt lat="48.99203" lon="6.02815">
        <ele>189.9976807</ele>
        <time>2012-06-28T09:31:29Z</time>
      </trkpt>
      <trkpt lat="48.9926" lon="6.02876">
        <ele>189.9976807</ele>
        <time>2012-06-28T09:31:36Z</time>
      </trkpt>
      <trkpt lat="48.99332" lon="6.02958">
        <ele>189.036377</ele>
        <time>2012-06-28T09:31:45Z</time>
      </trkpt>
      <trkpt lat="48.99348" lon="6.02976">
        <ele>187.5943604</ele>
        <time>2012-06-28T09:31:47Z</time>
      </trkpt>
      <trkpt lat="48.9938" lon="6.03011">
        <ele>186.6331787</ele>
        <time>2012-06-28T09:31:51Z</time>
      </trkpt>
      <trkpt lat="48.99419" lon="6.03056">
        <ele>185.6717529</ele>
        <time>2012-06-28T09:31:56Z</time>
      </trkpt>
      <trkpt lat="48.99457" lon="6.031">
        <ele>185.6717529</ele>
        <time>2012-06-28T09:32:01Z</time>
      </trkpt>
      <trkpt lat="48.99489" lon="6.03134">
        <ele>184.7105713</ele>
        <time>2012-06-28T09:32:05Z</time>
      </trkpt>
      <trkpt lat="48.99538" lon="6.03188">
        <ele>184.2298584</ele>
        <time>2012-06-28T09:32:11Z</time>
      </trkpt>
      <trkpt lat="48.99595" lon="6.0325">
        <ele>182.7878418</ele>
        <time>2012-06-28T09:32:18Z</time>
      </trkpt>
      <trkpt lat="48.99649" lon="6.03307">
        <ele>183.2684326</ele>
        <time>2012-06-28T09:32:25Z</time>
      </trkpt>
      <trkpt lat="48.997" lon="6.03363">
        <ele>184.7105713</ele>
        <time>2012-06-28T09:32:32Z</time>
      </trkpt>
      <trkpt lat="48.99763" lon="6.03427">
        <ele>185.1911621</ele>
        <time>2012-06-28T09:32:41Z</time>
      </trkpt>
      <trkpt lat="48.99812" lon="6.03475">
        <ele>185.6717529</ele>
        <time>2012-06-28T09:32:48Z</time>
      </trkpt>
      <trkpt lat="48.99873" lon="6.03535">
        <ele>185.6717529</ele>
        <time>2012-06-28T09:32:57Z</time>
      </trkpt>
      <trkpt lat="48.99929" lon="6.03591">
        <ele>185.1911621</ele>
        <time>2012-06-28T09:33:05Z</time>
      </trkpt>
      <trkpt lat="48.99978" lon="6.03638">
        <ele>185.1911621</ele>
        <time>2012-06-28T09:33:12Z</time>
      </trkpt>
      <trkpt lat="49.00037" lon="6.03694">
        <ele>185.6717529</ele>
        <time>2012-06-28T09:33:21Z</time>
      </trkpt>
      <trkpt lat="49.00087" lon="6.03734">
        <ele>185.6717529</ele>
        <time>2012-06-28T09:33:28Z</time>
      </trkpt>
      <trkpt lat="49.00153" lon="6.03782">
        <ele>184.7105713</ele>
        <time>2012-06-28T09:33:37Z</time>
      </trkpt>
      <trkpt lat="49.00207" lon="6.0381">
        <ele>186.1524658</ele>
        <time>2012-06-28T09:33:44Z</time>
      </trkpt>
      <trkpt lat="49.00265" lon="6.03832">
        <ele>187.1137695</ele>
        <time>2012-06-28T09:33:52Z</time>
      </trkpt>
      <trkpt lat="49.00325" lon="6.03855">
        <ele>187.1137695</ele>
        <time>2012-06-28T09:34:00Z</time>
      </trkpt>
      <trkpt lat="49.0037" lon="6.03871">
        <ele>185.6717529</ele>
        <time>2012-06-28T09:34:06Z</time>
      </trkpt>
      <trkpt lat="49.0042" lon="6.03887">
        <ele>185.1911621</ele>
        <time>2012-06-28T09:34:12Z</time>
      </trkpt>
      <trkpt lat="49.00478" lon="6.03901">
        <ele>185.1911621</ele>
        <time>2012-06-28T09:34:19Z</time>
      </trkpt>
      <trkpt lat="49.00516" lon="6.03906">
        <ele>185.1911621</ele>
        <time>2012-06-28T09:34:24Z</time>
      </trkpt>
      <trkpt lat="49.00561" lon="6.03902">
        <ele>185.6717529</ele>
        <time>2012-06-28T09:34:30Z</time>
      </trkpt>
      <trkpt lat="49.00577" lon="6.03898">
        <ele>186.1524658</ele>
        <time>2012-06-28T09:34:32Z</time>
      </trkpt>
      <trkpt lat="49.00632" lon="6.03864">
        <ele>185.6717529</ele>
        <time>2012-06-28T09:34:39Z</time>
      </trkpt>
      <trkpt lat="49.00688" lon="6.03825">
        <ele>184.2298584</ele>
        <time>2012-06-28T09:34:46Z</time>
      </trkpt>
      <trkpt lat="49.00724" lon="6.03814">
        <ele>182.7878418</ele>
        <time>2012-06-28T09:34:50Z</time>
      </trkpt>
      <trkpt lat="49.00774" lon="6.03813">
        <ele>183.7490234</ele>
        <time>2012-06-28T09:34:55Z</time>
      </trkpt>
      <trkpt lat="49.00783" lon="6.03812">
        <ele>183.2684326</ele>
        <time>2012-06-28T09:34:56Z</time>
      </trkpt>
      <trkpt lat="49.00814" lon="6.03797">
        <ele>183.2684326</ele>
        <time>2012-06-28T09:35:00Z</time>
      </trkpt>
      <trkpt lat="49.00837" lon="6.03764">
        <ele>183.2684326</ele>
        <time>2012-06-28T09:35:04Z</time>
      </trkpt>
      <trkpt lat="49.00845" lon="6.03744">
        <ele>183.7490234</ele>
        <time>2012-06-28T09:35:06Z</time>
      </trkpt>
      <trkpt lat="49.00875" lon="6.03644">
        <ele>183.2684326</ele>
        <time>2012-06-28T09:35:15Z</time>
      </trkpt>
      <trkpt lat="49.00883" lon="6.03624">
        <ele>183.2684326</ele>
        <time>2012-06-28T09:35:17Z</time>
      </trkpt>
      <trkpt lat="49.00918" lon="6.03575">
        <ele>183.2684326</ele>
        <time>2012-06-28T09:35:23Z</time>
      </trkpt>
      <trkpt lat="49.0093" lon="6.0356">
        <ele>182.7878418</ele>
        <time>2012-06-28T09:35:25Z</time>
      </trkpt>
      <trkpt lat="49.00959" lon="6.03538">
        <ele>182.3071289</ele>
        <time>2012-06-28T09:35:29Z</time>
      </trkpt>
      <trkpt lat="49.0099" lon="6.03533">
        <ele>181.826416</ele>
        <time>2012-06-28T09:35:33Z</time>
      </trkpt>
      <trkpt lat="49.01012" lon="6.03536">
        <ele>181.826416</ele>
        <time>2012-06-28T09:35:36Z</time>
      </trkpt>
      <trkpt lat="49.01033" lon="6.0356">
        <ele>180.8652344</ele>
        <time>2012-06-28T09:35:40Z</time>
      </trkpt>
      <trkpt lat="49.01034" lon="6.03582">
        <ele>181.3458252</ele>
        <time>2012-06-28T09:35:42Z</time>
      </trkpt>
      <trkpt lat="49.01035" lon="6.03643">
        <ele>180.8652344</ele>
        <time>2012-06-28T09:35:47Z</time>
      </trkpt>
      <trkpt lat="49.01048" lon="6.03715">
        <ele>181.826416</ele>
        <time>2012-06-28T09:35:53Z</time>
      </trkpt>
      <trkpt lat="49.01076" lon="6.03812">
        <ele>182.7878418</ele>
        <time>2012-06-28T09:36:02Z</time>
      </trkpt>
      <trkpt lat="49.01104" lon="6.03861">
        <ele>181.826416</ele>
        <time>2012-06-28T09:36:08Z</time>
      </trkpt>
      <trkpt lat="49.01147" lon="6.03922">
        <ele>181.826416</ele>
        <time>2012-06-28T09:36:16Z</time>
      </trkpt>
      <trkpt lat="49.01184" lon="6.03971">
        <ele>182.7878418</ele>
        <time>2012-06-28T09:36:23Z</time>
      </trkpt>
      <trkpt lat="49.01236" lon="6.04037">
        <ele>182.7878418</ele>
        <time>2012-06-28T09:36:33Z</time>
      </trkpt>
      <trkpt lat="49.01279" lon="6.04087">
        <ele>183.7490234</ele>
        <time>2012-06-28T09:36:41Z</time>
      </trkpt>
      <trkpt lat="49.01318" lon="6.04134">
        <ele>186.1524658</ele>
        <time>2012-06-28T09:36:49Z</time>
      </trkpt>
      <trkpt lat="49.0135" lon="6.04186">
        <ele>189.036377</ele>
        <time>2012-06-28T09:36:56Z</time>
      </trkpt>
      <trkpt lat="49.01394" lon="6.04265">
        <ele>190.9589844</ele>
        <time>2012-06-28T09:37:06Z</time>
      </trkpt>
      <trkpt lat="49.01416" lon="6.04302">
        <ele>193.3623047</ele>
        <time>2012-06-28T09:37:11Z</time>
      </trkpt>
      <trkpt lat="49.01443" lon="6.04352">
        <ele>192.8817139</ele>
        <time>2012-06-28T09:37:17Z</time>
      </trkpt>
      <trkpt lat="49.01488" lon="6.04426">
        <ele>191.9202881</ele>
        <time>2012-06-28T09:37:26Z</time>
      </trkpt>
      <trkpt lat="49.01531" lon="6.04482">
        <ele>191.4395752</ele>
        <time>2012-06-28T09:37:33Z</time>
      </trkpt>
      <trkpt lat="49.01583" lon="6.04533">
        <ele>189.036377</ele>
        <time>2012-06-28T09:37:40Z</time>
      </trkpt>
      <trkpt lat="49.01627" lon="6.04565">
        <ele>187.5943604</ele>
        <time>2012-06-28T09:37:45Z</time>
      </trkpt>
      <trkpt lat="49.01677" lon="6.04593">
        <ele>184.7105713</ele>
        <time>2012-06-28T09:37:50Z</time>
      </trkpt>
      <trkpt lat="49.01749" lon="6.04639">
        <ele>183.7490234</ele>
        <time>2012-06-28T09:37:57Z</time>
      </trkpt>
      <trkpt lat="49.01816" lon="6.0469">
        <ele>182.3071289</ele>
        <time>2012-06-28T09:38:04Z</time>
      </trkpt>
      <trkpt lat="49.01875" lon="6.04739">
        <ele>180.8652344</ele>
        <time>2012-06-28T09:38:11Z</time>
      </trkpt>
      <trkpt lat="49.01932" lon="6.04785">
        <ele>180.8652344</ele>
        <time>2012-06-28T09:38:18Z</time>
      </trkpt>
      <trkpt lat="49.02005" lon="6.04844">
        <ele>179.9038086</ele>
        <time>2012-06-28T09:38:27Z</time>
      </trkpt>
      <trkpt lat="49.0207" lon="6.04891">
        <ele>180.8652344</ele>
        <time>2012-06-28T09:38:35Z</time>
      </trkpt>
      <trkpt lat="49.0214" lon="6.04939">
        <ele>182.3071289</ele>
        <time>2012-06-28T09:38:44Z</time>
      </trkpt>
      <trkpt lat="49.02199" lon="6.04978">
        <ele>182.3071289</ele>
        <time>2012-06-28T09:38:51Z</time>
      </trkpt>
      <trkpt lat="49.02251" lon="6.04998">
        <ele>180.8652344</ele>
        <time>2012-06-28T09:38:57Z</time>
      </trkpt>
      <trkpt lat="49.02309" lon="6.05018">
        <ele>181.3458252</ele>
        <time>2012-06-28T09:39:04Z</time>
      </trkpt>
      <trkpt lat="49.0236" lon="6.05037">
        <ele>179.4232178</ele>
        <time>2012-06-28T09:39:11Z</time>
      </trkpt>
      <trkpt lat="49.02384" lon="6.05041">
        <ele>179.9038086</ele>
        <time>2012-06-28T09:39:15Z</time>
      </trkpt>
      <trkpt lat="49.02427" lon="6.05049">
        <ele>179.9038086</ele>
        <time>2012-06-28T09:39:21Z</time>
      </trkpt>
      <trkpt lat="49.02476" lon="6.05063">
        <ele>179.9038086</ele>
        <time>2012-06-28T09:39:28Z</time>
      </trkpt>
      <trkpt lat="49.02523" lon="6.05076">
        <ele>179.9038086</ele>
        <time>2012-06-28T09:39:35Z</time>
      </trkpt>
      <trkpt lat="49.0258" lon="6.05086">
        <ele>179.4232178</ele>
        <time>2012-06-28T09:39:43Z</time>
      </trkpt>
      <trkpt lat="49.02621" lon="6.05091">
        <ele>179.9038086</ele>
        <time>2012-06-28T09:39:49Z</time>
      </trkpt>
      <trkpt lat="49.02666" lon="6.05097">
        <ele>179.4232178</ele>
        <time>2012-06-28T09:39:55Z</time>
      </trkpt>
      <trkpt lat="49.02717" lon="6.05105">
        <ele>178.942627</ele>
        <time>2012-06-28T09:40:02Z</time>
      </trkpt>
      <trkpt lat="49.02766" lon="6.05118">
        <ele>179.9038086</ele>
        <time>2012-06-28T09:40:09Z</time>
      </trkpt>
      <trkpt lat="49.02819" lon="6.05132">
        <ele>179.4232178</ele>
        <time>2012-06-28T09:40:16Z</time>
      </trkpt>
      <trkpt lat="49.02882" lon="6.05142">
        <ele>179.4232178</ele>
        <time>2012-06-28T09:40:24Z</time>
      </trkpt>
      <trkpt lat="49.02906" lon="6.05142">
        <ele>178.942627</ele>
        <time>2012-06-28T09:40:27Z</time>
      </trkpt>
      <trkpt lat="49.02961" lon="6.05133">
        <ele>178.4619141</ele>
        <time>2012-06-28T09:40:34Z</time>
      </trkpt>
      <trkpt lat="49.03028" lon="6.05119">
        <ele>177.9812012</ele>
        <time>2012-06-28T09:40:43Z</time>
      </trkpt>
      <trkpt lat="49.03081" lon="6.05111">
        <ele>177.9812012</ele>
        <time>2012-06-28T09:40:50Z</time>
      </trkpt>
      <trkpt lat="49.03141" lon="6.05112">
        <ele>177.9812012</ele>
        <time>2012-06-28T09:40:58Z</time>
      </trkpt>
      <trkpt lat="49.03194" lon="6.05117">
        <ele>179.9038086</ele>
        <time>2012-06-28T09:41:05Z</time>
      </trkpt>
      <trkpt lat="49.03258" lon="6.05132">
        <ele>178.942627</ele>
        <time>2012-06-28T09:41:13Z</time>
      </trkpt>
      <trkpt lat="49.0331" lon="6.0515">
        <ele>178.942627</ele>
        <time>2012-06-28T09:41:20Z</time>
      </trkpt>
      <trkpt lat="49.03375" lon="6.05177">
        <ele>178.942627</ele>
        <time>2012-06-28T09:41:29Z</time>
      </trkpt>
      <trkpt lat="49.03446" lon="6.05204">
        <ele>179.9038086</ele>
        <time>2012-06-28T09:41:38Z</time>
      </trkpt>
      <trkpt lat="49.03497" lon="6.05224">
        <ele>179.9038086</ele>
        <time>2012-06-28T09:41:45Z</time>
      </trkpt>
      <trkpt lat="49.0355" lon="6.05245">
        <ele>180.3845215</ele>
        <time>2012-06-28T09:41:52Z</time>
      </trkpt>
      <trkpt lat="49.03612" lon="6.05272">
        <ele>179.9038086</ele>
        <time>2012-06-28T09:42:00Z</time>
      </trkpt>
      <trkpt lat="49.03674" lon="6.05304">
        <ele>180.3845215</ele>
        <time>2012-06-28T09:42:08Z</time>
      </trkpt>
      <trkpt lat="49.03743" lon="6.05348">
        <ele>180.8652344</ele>
        <time>2012-06-28T09:42:17Z</time>
      </trkpt>
      <trkpt lat="49.03814" lon="6.05399">
        <ele>180.8652344</ele>
        <time>2012-06-28T09:42:26Z</time>
      </trkpt>
      <trkpt lat="49.03873" lon="6.05439">
        <ele>181.3458252</ele>
        <time>2012-06-28T09:42:34Z</time>
      </trkpt>
      <trkpt lat="49.03943" lon="6.05484">
        <ele>179.9038086</ele>
        <time>2012-06-28T09:42:43Z</time>
      </trkpt>
      <trkpt lat="49.04008" lon="6.05523">
        <ele>180.3845215</ele>
        <time>2012-06-28T09:42:51Z</time>
      </trkpt>
      <trkpt lat="49.04024" lon="6.05533">
        <ele>180.8652344</ele>
        <time>2012-06-28T09:42:53Z</time>
      </trkpt>
      <trkpt lat="49.04056" lon="6.05553">
        <ele>180.8652344</ele>
        <time>2012-06-28T09:42:57Z</time>
      </trkpt>
      <trkpt lat="49.0412" lon="6.05592">
        <ele>179.9038086</ele>
        <time>2012-06-28T09:43:05Z</time>
      </trkpt>
      <trkpt lat="49.04183" lon="6.05632">
        <ele>179.4232178</ele>
        <time>2012-06-28T09:43:13Z</time>
      </trkpt>
      <trkpt lat="49.04252" lon="6.05674">
        <ele>180.8652344</ele>
        <time>2012-06-28T09:43:21Z</time>
      </trkpt>
      <trkpt lat="49.04294" lon="6.057">
        <ele>177.5006104</ele>
        <time>2012-06-28T09:43:26Z</time>
      </trkpt>
      <trkpt lat="49.04372" lon="6.05747">
        <ele>178.4619141</ele>
        <time>2012-06-28T09:43:35Z</time>
      </trkpt>
      <trkpt lat="49.04441" lon="6.05784">
        <ele>177.9812012</ele>
        <time>2012-06-28T09:43:42Z</time>
      </trkpt>
      <trkpt lat="49.04509" lon="6.05815">
        <ele>177.5006104</ele>
        <time>2012-06-28T09:43:49Z</time>
      </trkpt>
      <trkpt lat="49.04592" lon="6.05842">
        <ele>177.0200195</ele>
        <time>2012-06-28T09:43:58Z</time>
      </trkpt>
      <trkpt lat="49.0468" lon="6.05874">
        <ele>177.5006104</ele>
        <time>2012-06-28T09:44:08Z</time>
      </trkpt>
      <trkpt lat="49.04766" lon="6.05898">
        <ele>177.5006104</ele>
        <time>2012-06-28T09:44:18Z</time>
      </trkpt>
      <trkpt lat="49.04838" lon="6.05917">
        <ele>177.5006104</ele>
        <time>2012-06-28T09:44:26Z</time>
      </trkpt>
      <trkpt lat="49.0492" lon="6.0594">
        <ele>177.0200195</ele>
        <time>2012-06-28T09:44:35Z</time>
      </trkpt>
      <trkpt lat="49.05" lon="6.05962">
        <ele>177.5006104</ele>
        <time>2012-06-28T09:44:44Z</time>
      </trkpt>
      <trkpt lat="49.05067" lon="6.05981">
        <ele>178.4619141</ele>
        <time>2012-06-28T09:44:52Z</time>
      </trkpt>
      <trkpt lat="49.0513" lon="6.05999">
        <ele>177.5006104</ele>
        <time>2012-06-28T09:45:00Z</time>
      </trkpt>
      <trkpt lat="49.0519" lon="6.06022">
        <ele>177.9812012</ele>
        <time>2012-06-28T09:45:08Z</time>
      </trkpt>
      <trkpt lat="49.05244" lon="6.06039">
        <ele>177.0200195</ele>
        <time>2012-06-28T09:45:15Z</time>
      </trkpt>
      <trkpt lat="49.05294" lon="6.06047">
        <ele>177.0200195</ele>
        <time>2012-06-28T09:45:21Z</time>
      </trkpt>
      <trkpt lat="49.0531" lon="6.06052">
        <ele>177.9812012</ele>
        <time>2012-06-28T09:45:23Z</time>
      </trkpt>
      <trkpt lat="49.05326" lon="6.06057">
        <ele>177.5006104</ele>
        <time>2012-06-28T09:45:25Z</time>
      </trkpt>
      <trkpt lat="49.05387" lon="6.06082">
        <ele>177.5006104</ele>
        <time>2012-06-28T09:45:32Z</time>
      </trkpt>
      <trkpt lat="49.05457" lon="6.06119">
        <ele>177.5006104</ele>
        <time>2012-06-28T09:45:40Z</time>
      </trkpt>
      <trkpt lat="49.05516" lon="6.06149">
        <ele>177.0200195</ele>
        <time>2012-06-28T09:45:47Z</time>
      </trkpt>
      <trkpt lat="49.05565" lon="6.06165">
        <ele>177.5006104</ele>
        <time>2012-06-28T09:45:53Z</time>
      </trkpt>
      <trkpt lat="49.05621" lon="6.06183">
        <ele>177.5006104</ele>
        <time>2012-06-28T09:46:00Z</time>
      </trkpt>
      <trkpt lat="49.05662" lon="6.06195">
        <ele>177.9812012</ele>
        <time>2012-06-28T09:46:05Z</time>
      </trkpt>
      <trkpt lat="49.05709" lon="6.06208">
        <ele>177.9812012</ele>
        <time>2012-06-28T09:46:11Z</time>
      </trkpt>
      <trkpt lat="49.05733" lon="6.06212">
        <ele>177.9812012</ele>
        <time>2012-06-28T09:46:14Z</time>
      </trkpt>
      <trkpt lat="49.05762" lon="6.06234">
        <ele>177.9812012</ele>
        <time>2012-06-28T09:46:18Z</time>
      </trkpt>
      <trkpt lat="49.0583" lon="6.06285">
        <ele>177.5006104</ele>
        <time>2012-06-28T09:46:27Z</time>
      </trkpt>
      <trkpt lat="49.05866" lon="6.06321">
        <ele>178.4619141</ele>
        <time>2012-06-28T09:46:32Z</time>
      </trkpt>
      <trkpt lat="49.05915" lon="6.06367">
        <ele>177.9812012</ele>
        <time>2012-06-28T09:46:39Z</time>
      </trkpt>
      <trkpt lat="49.05965" lon="6.06412">
        <ele>177.5006104</ele>
        <time>2012-06-28T09:46:46Z</time>
      </trkpt>
      <trkpt lat="49.06023" lon="6.06464">
        <ele>177.5006104</ele>
        <time>2012-06-28T09:46:54Z</time>
      </trkpt>
      <trkpt lat="49.06078" lon="6.06517">
        <ele>177.5006104</ele>
        <time>2012-06-28T09:47:02Z</time>
      </trkpt>
      <trkpt lat="49.06119" lon="6.06559">
        <ele>177.5006104</ele>
        <time>2012-06-28T09:47:08Z</time>
      </trkpt>
      <trkpt lat="49.06168" lon="6.06606">
        <ele>177.5006104</ele>
        <time>2012-06-28T09:47:15Z</time>
      </trkpt>
      <trkpt lat="49.06228" lon="6.0666">
        <ele>177.9812012</ele>
        <time>2012-06-28T09:47:23Z</time>
      </trkpt>
      <trkpt lat="49.06297" lon="6.06718">
        <ele>177.5006104</ele>
        <time>2012-06-28T09:47:32Z</time>
      </trkpt>
      <trkpt lat="49.06363" lon="6.06773">
        <ele>177.5006104</ele>
        <time>2012-06-28T09:47:40Z</time>
      </trkpt>
      <trkpt lat="49.06422" lon="6.06822">
        <ele>176.5393066</ele>
        <time>2012-06-28T09:47:47Z</time>
      </trkpt>
      <trkpt lat="49.06447" lon="6.06843">
        <ele>177.5006104</ele>
        <time>2012-06-28T09:47:50Z</time>
      </trkpt>
      <trkpt lat="49.06455" lon="6.06849">
        <ele>176.5393066</ele>
        <time>2012-06-28T09:47:51Z</time>
      </trkpt>
      <trkpt lat="49.06532" lon="6.06911">
        <ele>176.5393066</ele>
        <time>2012-06-28T09:48:00Z</time>
      </trkpt>
      <trkpt lat="49.06608" lon="6.06973">
        <ele>176.5393066</ele>
        <time>2012-06-28T09:48:09Z</time>
      </trkpt>
      <trkpt lat="49.06694" lon="6.07045">
        <ele>177.0200195</ele>
        <time>2012-06-28T09:48:19Z</time>
      </trkpt>
      <trkpt lat="49.06748" lon="6.0709">
        <ele>177.0200195</ele>
        <time>2012-06-28T09:48:26Z</time>
      </trkpt>
      <trkpt lat="49.06797" lon="6.07127">
        <ele>177.5006104</ele>
        <time>2012-06-28T09:48:32Z</time>
      </trkpt>
      <trkpt lat="49.06873" lon="6.07185">
        <ele>176.0585938</ele>
        <time>2012-06-28T09:48:41Z</time>
      </trkpt>
      <trkpt lat="49.06959" lon="6.07248">
        <ele>177.0200195</ele>
        <time>2012-06-28T09:48:51Z</time>
      </trkpt>
      <trkpt lat="49.07037" lon="6.07303">
        <ele>176.5393066</ele>
        <time>2012-06-28T09:49:00Z</time>
      </trkpt>
      <trkpt lat="49.07097" lon="6.07336">
        <ele>176.5393066</ele>
        <time>2012-06-28T09:49:07Z</time>
      </trkpt>
      <trkpt lat="49.07159" lon="6.07368">
        <ele>176.5393066</ele>
        <time>2012-06-28T09:49:14Z</time>
      </trkpt>
      <trkpt lat="49.07217" lon="6.07392">
        <ele>175.5778809</ele>
        <time>2012-06-28T09:49:21Z</time>
      </trkpt>
      <trkpt lat="49.07261" lon="6.07398">
        <ele>177.5006104</ele>
        <time>2012-06-28T09:49:26Z</time>
      </trkpt>
      <trkpt lat="49.07279" lon="6.07399">
        <ele>177.0200195</ele>
        <time>2012-06-28T09:49:28Z</time>
      </trkpt>
      <trkpt lat="49.07329" lon="6.07405">
        <ele>177.0200195</ele>
        <time>2012-06-28T09:49:34Z</time>
      </trkpt>
      <trkpt lat="49.07387" lon="6.07413">
        <ele>177.9812012</ele>
        <time>2012-06-28T09:49:41Z</time>
      </trkpt>
      <trkpt lat="49.07431" lon="6.07433">
        <ele>178.4619141</ele>
        <time>2012-06-28T09:49:47Z</time>
      </trkpt>
      <trkpt lat="49.07467" lon="6.07465">
        <ele>179.9038086</ele>
        <time>2012-06-28T09:49:53Z</time>
      </trkpt>
      <trkpt lat="49.07495" lon="6.075">
        <ele>178.942627</ele>
        <time>2012-06-28T09:49:59Z</time>
      </trkpt>
      <trkpt lat="49.07507" lon="6.07516">
        <ele>179.4232178</ele>
        <time>2012-06-28T09:50:02Z</time>
      </trkpt>
      <trkpt lat="49.07513" lon="6.07538">
        <ele>178.942627</ele>
        <time>2012-06-28T09:50:07Z</time>
      </trkpt>
      <trkpt lat="49.07512" lon="6.07542">
        <ele>178.942627</ele>
        <time>2012-06-28T09:50:11Z</time>
      </trkpt>
      <trkpt lat="49.07508" lon="6.07558">
        <ele>178.4619141</ele>
        <time>2012-06-28T09:50:15Z</time>
      </trkpt>
      <trkpt lat="49.07522" lon="6.07576">
        <ele>178.942627</ele>
        <time>2012-06-28T09:50:19Z</time>
      </trkpt>
      <trkpt lat="49.07543" lon="6.07593">
        <ele>178.4619141</ele>
        <time>2012-06-28T09:50:23Z</time>
      </trkpt>
      <trkpt lat="49.07548" lon="6.076">
        <ele>179.9038086</ele>
        <time>2012-06-28T09:50:24Z</time>
      </trkpt>
      <trkpt lat="49.0758" lon="6.0766">
        <ele>178.942627</ele>
        <time>2012-06-28T09:50:32Z</time>
      </trkpt>
      <trkpt lat="49.07597" lon="6.07694">
        <ele>177.9812012</ele>
        <time>2012-06-28T09:50:37Z</time>
      </trkpt>
      <trkpt lat="49.07612" lon="6.07722">
        <ele>177.9812012</ele>
        <time>2012-06-28T09:50:43Z</time>
      </trkpt>
      <trkpt lat="49.07629" lon="6.07754">
        <ele>177.0200195</ele>
        <time>2012-06-28T09:50:48Z</time>
      </trkpt>
      <trkpt lat="49.07654" lon="6.07805">
        <ele>177.0200195</ele>
        <time>2012-06-28T09:50:54Z</time>
      </trkpt>
      <trkpt lat="49.07675" lon="6.07859">
        <ele>176.5393066</ele>
        <time>2012-06-28T09:51:00Z</time>
      </trkpt>
      <trkpt lat="49.07701" lon="6.07942">
        <ele>176.5393066</ele>
        <time>2012-06-28T09:51:08Z</time>
      </trkpt>
      <trkpt lat="49.07732" lon="6.08034">
        <ele>177.5006104</ele>
        <time>2012-06-28T09:51:17Z</time>
      </trkpt>
      <trkpt lat="49.07767" lon="6.08094">
        <ele>176.0585938</ele>
        <time>2012-06-28T09:51:24Z</time>
      </trkpt>
      <trkpt lat="49.07806" lon="6.08152">
        <ele>176.0585938</ele>
        <time>2012-06-28T09:51:31Z</time>
      </trkpt>
      <trkpt lat="49.07833" lon="6.08192">
        <ele>176.0585938</ele>
        <time>2012-06-28T09:51:36Z</time>
      </trkpt>
      <trkpt lat="49.07874" lon="6.08247">
        <ele>176.0585938</ele>
        <time>2012-06-28T09:51:43Z</time>
      </trkpt>
      <trkpt lat="49.07912" lon="6.0829">
        <ele>177.0200195</ele>
        <time>2012-06-28T09:51:49Z</time>
      </trkpt>
      <trkpt lat="49.0797" lon="6.0835">
        <ele>177.0200195</ele>
        <time>2012-06-28T09:51:58Z</time>
      </trkpt>
      <trkpt lat="49.0801" lon="6.08388">
        <ele>177.9812012</ele>
        <time>2012-06-28T09:52:04Z</time>
      </trkpt>
      <trkpt lat="49.08083" lon="6.08458">
        <ele>177.5006104</ele>
        <time>2012-06-28T09:52:15Z</time>
      </trkpt>
      <trkpt lat="49.08152" lon="6.08524">
        <ele>175.5778809</ele>
        <time>2012-06-28T09:52:25Z</time>
      </trkpt>
      <trkpt lat="49.08203" lon="6.08572">
        <ele>177.5006104</ele>
        <time>2012-06-28T09:52:32Z</time>
      </trkpt>
      <trkpt lat="49.08261" lon="6.08629">
        <ele>177.0200195</ele>
        <time>2012-06-28T09:52:40Z</time>
      </trkpt>
      <trkpt lat="49.08277" lon="6.08643">
        <ele>176.0585938</ele>
        <time>2012-06-28T09:52:42Z</time>
      </trkpt>
      <trkpt lat="49.08335" lon="6.08697">
        <ele>176.5393066</ele>
        <time>2012-06-28T09:52:50Z</time>
      </trkpt>
      <trkpt lat="49.08394" lon="6.08752">
        <ele>177.0200195</ele>
        <time>2012-06-28T09:52:58Z</time>
      </trkpt>
      <trkpt lat="49.08451" lon="6.0881">
        <ele>177.0200195</ele>
        <time>2012-06-28T09:53:06Z</time>
      </trkpt>
      <trkpt lat="49.08504" lon="6.08856">
        <ele>177.0200195</ele>
        <time>2012-06-28T09:53:13Z</time>
      </trkpt>
      <trkpt lat="49.08548" lon="6.08896">
        <ele>177.5006104</ele>
        <time>2012-06-28T09:53:19Z</time>
      </trkpt>
      <trkpt lat="49.08606" lon="6.0895">
        <ele>177.0200195</ele>
        <time>2012-06-28T09:53:27Z</time>
      </trkpt>
      <trkpt lat="49.08662" lon="6.09001">
        <ele>176.5393066</ele>
        <time>2012-06-28T09:53:35Z</time>
      </trkpt>
      <trkpt lat="49.0871" lon="6.09045">
        <ele>176.5393066</ele>
        <time>2012-06-28T09:53:42Z</time>
      </trkpt>
      <trkpt lat="49.08761" lon="6.09089">
        <ele>177.0200195</ele>
        <time>2012-06-28T09:53:49Z</time>
      </trkpt>
      <trkpt lat="49.08835" lon="6.09147">
        <ele>177.0200195</ele>
        <time>2012-06-28T09:53:58Z</time>
      </trkpt>
      <trkpt lat="49.08908" lon="6.09203">
        <ele>176.5393066</ele>
        <time>2012-06-28T09:54:07Z</time>
      </trkpt>
      <trkpt lat="49.08953" lon="6.09239">
        <ele>177.0200195</ele>
        <time>2012-06-28T09:54:13Z</time>
      </trkpt>
      <trkpt lat="49.09026" lon="6.09297">
        <ele>176.5393066</ele>
        <time>2012-06-28T09:54:22Z</time>
      </trkpt>
      <trkpt lat="49.09083" lon="6.09343">
        <ele>176.0585938</ele>
        <time>2012-06-28T09:54:29Z</time>
      </trkpt>
      <trkpt lat="49.09121" lon="6.09373">
        <ele>175.5778809</ele>
        <time>2012-06-28T09:54:34Z</time>
      </trkpt>
      <trkpt lat="49.0916" lon="6.09402">
        <ele>177.5006104</ele>
        <time>2012-06-28T09:54:39Z</time>
      </trkpt>
      <trkpt lat="49.09223" lon="6.09442">
        <ele>175.5778809</ele>
        <time>2012-06-28T09:54:47Z</time>
      </trkpt>
      <trkpt lat="49.09271" lon="6.09472">
        <ele>176.0585938</ele>
        <time>2012-06-28T09:54:53Z</time>
      </trkpt>
      <trkpt lat="49.09323" lon="6.09506">
        <ele>176.0585938</ele>
        <time>2012-06-28T09:55:00Z</time>
      </trkpt>
      <trkpt lat="49.09375" lon="6.09546">
        <ele>176.0585938</ele>
        <time>2012-06-28T09:55:07Z</time>
      </trkpt>
      <trkpt lat="49.09416" lon="6.09589">
        <ele>176.0585938</ele>
        <time>2012-06-28T09:55:13Z</time>
      </trkpt>
      <trkpt lat="49.09465" lon="6.09658">
        <ele>176.5393066</ele>
        <time>2012-06-28T09:55:21Z</time>
      </trkpt>
      <trkpt lat="49.09517" lon="6.09746">
        <ele>176.5393066</ele>
        <time>2012-06-28T09:55:30Z</time>
      </trkpt>
      <trkpt lat="49.09564" lon="6.09825">
        <ele>177.0200195</ele>
        <time>2012-06-28T09:55:38Z</time>
      </trkpt>
      <trkpt lat="49.0961" lon="6.09903">
        <ele>176.5393066</ele>
        <time>2012-06-28T09:55:46Z</time>
      </trkpt>
      <trkpt lat="49.09664" lon="6.09994">
        <ele>177.0200195</ele>
        <time>2012-06-28T09:55:55Z</time>
      </trkpt>
      <trkpt lat="49.09701" lon="6.10072">
        <ele>176.5393066</ele>
        <time>2012-06-28T09:56:02Z</time>
      </trkpt>
      <trkpt lat="49.0973" lon="6.10159">
        <ele>176.0585938</ele>
        <time>2012-06-28T09:56:09Z</time>
      </trkpt>
      <trkpt lat="49.09761" lon="6.10257">
        <ele>176.0585938</ele>
        <time>2012-06-28T09:56:17Z</time>
      </trkpt>
      <trkpt lat="49.09769" lon="6.10284">
        <ele>176.5393066</ele>
        <time>2012-06-28T09:56:19Z</time>
      </trkpt>
      <trkpt lat="49.09773" lon="6.10297">
        <ele>176.0585938</ele>
        <time>2012-06-28T09:56:20Z</time>
      </trkpt>
      <trkpt lat="49.09777" lon="6.10311">
        <ele>176.0585938</ele>
        <time>2012-06-28T09:56:21Z</time>
      </trkpt>
      <trkpt lat="49.09805" lon="6.10401">
        <ele>176.0585938</ele>
        <time>2012-06-28T09:56:28Z</time>
      </trkpt>
      <trkpt lat="49.09833" lon="6.10473">
        <ele>175.5778809</ele>
        <time>2012-06-28T09:56:34Z</time>
      </trkpt>
      <trkpt lat="49.09869" lon="6.10539">
        <ele>175.5778809</ele>
        <time>2012-06-28T09:56:40Z</time>
      </trkpt>
      <trkpt lat="49.09913" lon="6.10603">
        <ele>175.09729</ele>
        <time>2012-06-28T09:56:47Z</time>
      </trkpt>
      <trkpt lat="49.09965" lon="6.1066">
        <ele>175.09729</ele>
        <time>2012-06-28T09:56:54Z</time>
      </trkpt>
      <trkpt lat="49.10046" lon="6.1074">
        <ele>175.5778809</ele>
        <time>2012-06-28T09:57:04Z</time>
      </trkpt>
      <trkpt lat="49.10098" lon="6.108">
        <ele>175.09729</ele>
        <time>2012-06-28T09:57:11Z</time>
      </trkpt>
      <trkpt lat="49.10123" lon="6.10843">
        <ele>175.09729</ele>
        <time>2012-06-28T09:57:15Z</time>
      </trkpt>
      <trkpt lat="49.10165" lon="6.1093">
        <ele>175.5778809</ele>
        <time>2012-06-28T09:57:23Z</time>
      </trkpt>
      <trkpt lat="49.10187" lon="6.10963">
        <ele>176.5393066</ele>
        <time>2012-06-28T09:57:27Z</time>
      </trkpt>
      <trkpt lat="49.1023" lon="6.11006">
        <ele>177.5006104</ele>
        <time>2012-06-28T09:57:35Z</time>
      </trkpt>
      <trkpt lat="49.10259" lon="6.1103">
        <ele>177.5006104</ele>
        <time>2012-06-28T09:57:42Z</time>
      </trkpt>
      <trkpt lat="49.10264" lon="6.11034">
        <ele>177.0200195</ele>
        <time>2012-06-28T09:57:46Z</time>
      </trkpt>
      <trkpt lat="49.10263" lon="6.11034">
        <ele>177.0200195</ele>
        <time>2012-06-28T09:58:02Z</time>
      </trkpt>
      <trkpt lat="49.10274" lon="6.11041">
        <ele>177.5006104</ele>
        <time>2012-06-28T09:58:06Z</time>
      </trkpt>
      <trkpt lat="49.10294" lon="6.11054">
        <ele>176.5393066</ele>
        <time>2012-06-28T09:58:11Z</time>
      </trkpt>
      <trkpt lat="49.10329" lon="6.11074">
        <ele>177.0200195</ele>
        <time>2012-06-28T09:58:18Z</time>
      </trkpt>
      <trkpt lat="49.10371" lon="6.1109">
        <ele>176.5393066</ele>
        <time>2012-06-28T09:58:25Z</time>
      </trkpt>
      <trkpt lat="49.10404" lon="6.11094">
        <ele>175.5778809</ele>
        <time>2012-06-28T09:58:30Z</time>
      </trkpt>
      <trkpt lat="49.10459" lon="6.11088">
        <ele>175.5778809</ele>
        <time>2012-06-28T09:58:37Z</time>
      </trkpt>
      <trkpt lat="49.10518" lon="6.11078">
        <ele>174.6165771</ele>
        <time>2012-06-28T09:58:45Z</time>
      </trkpt>
      <trkpt lat="49.10576" lon="6.11068">
        <ele>175.09729</ele>
        <time>2012-06-28T09:58:54Z</time>
      </trkpt>
      <trkpt lat="49.10609" lon="6.11061">
        <ele>174.6165771</ele>
        <time>2012-06-28T09:59:00Z</time>
      </trkpt>
      <trkpt lat="49.10627" lon="6.1106">
        <ele>174.1358643</ele>
        <time>2012-06-28T09:59:05Z</time>
      </trkpt>
      <trkpt lat="49.10628" lon="6.11061">
        <ele>174.6165771</ele>
        <time>2012-06-28T09:59:08Z</time>
      </trkpt>
      <trkpt lat="49.10627" lon="6.11062">
        <ele>174.6165771</ele>
        <time>2012-06-28T09:59:25Z</time>
      </trkpt>
      <trkpt lat="49.10634" lon="6.11071">
        <ele>174.6165771</ele>
        <time>2012-06-28T09:59:29Z</time>
      </trkpt>
      <trkpt lat="49.1064" lon="6.11093">
        <ele>175.09729</ele>
        <time>2012-06-28T09:59:34Z</time>
      </trkpt>
      <trkpt lat="49.10646" lon="6.11136">
        <ele>176.5393066</ele>
        <time>2012-06-28T09:59:40Z</time>
      </trkpt>
      <trkpt lat="49.10656" lon="6.11196">
        <ele>176.0585938</ele>
        <time>2012-06-28T09:59:47Z</time>
      </trkpt>
      <trkpt lat="49.10676" lon="6.11291">
        <ele>175.5778809</ele>
        <time>2012-06-28T09:59:58Z</time>
      </trkpt>
      <trkpt lat="49.10687" lon="6.11351">
        <ele>177.0200195</ele>
        <time>2012-06-28T10:00:05Z</time>
      </trkpt>
      <trkpt lat="49.10694" lon="6.11383">
        <ele>174.1358643</ele>
        <time>2012-06-28T10:00:09Z</time>
      </trkpt>
      <trkpt lat="49.10707" lon="6.11453">
        <ele>174.6165771</ele>
        <time>2012-06-28T10:00:17Z</time>
      </trkpt>
      <trkpt lat="49.10723" lon="6.1153">
        <ele>175.5778809</ele>
        <time>2012-06-28T10:00:25Z</time>
      </trkpt>
      <trkpt lat="49.1074" lon="6.11614">
        <ele>175.5778809</ele>
        <time>2012-06-28T10:00:34Z</time>
      </trkpt>
      <trkpt lat="49.10757" lon="6.11693">
        <ele>175.5778809</ele>
        <time>2012-06-28T10:00:43Z</time>
      </trkpt>
      <trkpt lat="49.10775" lon="6.11781">
        <ele>175.09729</ele>
        <time>2012-06-28T10:00:53Z</time>
      </trkpt>
      <trkpt lat="49.10792" lon="6.11865">
        <ele>174.1358643</ele>
        <time>2012-06-28T10:01:02Z</time>
      </trkpt>
      <trkpt lat="49.10807" lon="6.11938">
        <ele>174.6165771</ele>
        <time>2012-06-28T10:01:10Z</time>
      </trkpt>
      <trkpt lat="49.10818" lon="6.11989">
        <ele>174.6165771</ele>
        <time>2012-06-28T10:01:16Z</time>
      </trkpt>
      <trkpt lat="49.10833" lon="6.12061">
        <ele>174.6165771</ele>
        <time>2012-06-28T10:01:25Z</time>
      </trkpt>
      <trkpt lat="49.10845" lon="6.12117">
        <ele>174.6165771</ele>
        <time>2012-06-28T10:01:33Z</time>
      </trkpt>
      <trkpt lat="49.10857" lon="6.12182">
        <ele>175.09729</ele>
        <time>2012-06-28T10:01:41Z</time>
      </trkpt>
      <trkpt lat="49.10869" lon="6.12239">
        <ele>175.5778809</ele>
        <time>2012-06-28T10:01:48Z</time>
      </trkpt>
      <trkpt lat="49.10884" lon="6.12307">
        <ele>174.6165771</ele>
        <time>2012-06-28T10:01:56Z</time>
      </trkpt>
      <trkpt lat="49.10899" lon="6.12374">
        <ele>175.5778809</ele>
        <time>2012-06-28T10:02:04Z</time>
      </trkpt>
      <trkpt lat="49.10906" lon="6.12401">
        <ele>174.6165771</ele>
        <time>2012-06-28T10:02:07Z</time>
      </trkpt>
      <trkpt lat="49.10908" lon="6.12411">
        <ele>174.1358643</ele>
        <time>2012-06-28T10:02:08Z</time>
      </trkpt>
      <trkpt lat="49.10926" lon="6.12487">
        <ele>174.6165771</ele>
        <time>2012-06-28T10:02:16Z</time>
      </trkpt>
      <trkpt lat="49.1095" lon="6.12581">
        <ele>174.6165771</ele>
        <time>2012-06-28T10:02:26Z</time>
      </trkpt>
      <trkpt lat="49.10969" lon="6.12642">
        <ele>174.6165771</ele>
        <time>2012-06-28T10:02:33Z</time>
      </trkpt>
      <trkpt lat="49.11001" lon="6.12738">
        <ele>175.09729</ele>
        <time>2012-06-28T10:02:44Z</time>
      </trkpt>
      <trkpt lat="49.11021" lon="6.12803">
        <ele>175.09729</ele>
        <time>2012-06-28T10:02:52Z</time>
      </trkpt>
      <trkpt lat="49.11045" lon="6.12878">
        <ele>174.1358643</ele>
        <time>2012-06-28T10:03:01Z</time>
      </trkpt>
      <trkpt lat="49.11075" lon="6.12963">
        <ele>174.6165771</ele>
        <time>2012-06-28T10:03:11Z</time>
      </trkpt>
      <trkpt lat="49.11107" lon="6.13052">
        <ele>174.1358643</ele>
        <time>2012-06-28T10:03:21Z</time>
      </trkpt>
      <trkpt lat="49.11138" lon="6.13139">
        <ele>173.1746826</ele>
        <time>2012-06-28T10:03:31Z</time>
      </trkpt>
      <trkpt lat="49.11151" lon="6.13173">
        <ele>176.0585938</ele>
        <time>2012-06-28T10:03:35Z</time>
      </trkpt>
      <trkpt lat="49.11179" lon="6.1325">
        <ele>173.6552734</ele>
        <time>2012-06-28T10:03:44Z</time>
      </trkpt>
      <trkpt lat="49.11201" lon="6.13317">
        <ele>174.1358643</ele>
        <time>2012-06-28T10:03:52Z</time>
      </trkpt>
      <trkpt lat="49.11219" lon="6.13376">
        <ele>174.1358643</ele>
        <time>2012-06-28T10:03:59Z</time>
      </trkpt>
      <trkpt lat="49.11237" lon="6.13422">
        <ele>174.1358643</ele>
        <time>2012-06-28T10:04:05Z</time>
      </trkpt>
      <trkpt lat="49.11239" lon="6.13429">
        <ele>174.1358643</ele>
        <time>2012-06-28T10:04:08Z</time>
      </trkpt>
      <trkpt lat="49.11239" lon="6.13429">
        <ele>173.6552734</ele>
        <time>2012-06-28T10:04:09Z</time>
      </trkpt>
      <trkpt lat="49.11238" lon="6.13428">
        <ele>173.6552734</ele>
        <time>2012-06-28T10:04:36Z</time>
      </trkpt>
      <trkpt lat="49.11241" lon="6.1344">
        <ele>174.6165771</ele>
        <time>2012-06-28T10:04:39Z</time>
      </trkpt>
      <trkpt lat="49.11251" lon="6.1347">
        <ele>174.1358643</ele>
        <time>2012-06-28T10:04:44Z</time>
      </trkpt>
      <trkpt lat="49.1126" lon="6.13494">
        <ele>174.6165771</ele>
        <time>2012-06-28T10:04:47Z</time>
      </trkpt>
      <trkpt lat="49.11279" lon="6.13546">
        <ele>175.09729</ele>
        <time>2012-06-28T10:04:53Z</time>
      </trkpt>
      <trkpt lat="49.1131" lon="6.1363">
        <ele>175.09729</ele>
        <time>2012-06-28T10:05:03Z</time>
      </trkpt>
      <trkpt lat="49.11322" lon="6.13659">
        <ele>175.09729</ele>
        <time>2012-06-28T10:05:07Z</time>
      </trkpt>
      <trkpt lat="49.11339" lon="6.13709">
        <ele>175.09729</ele>
        <time>2012-06-28T10:05:13Z</time>
      </trkpt>
      <trkpt lat="49.11356" lon="6.13751">
        <ele>175.09729</ele>
        <time>2012-06-28T10:05:18Z</time>
      </trkpt>
      <trkpt lat="49.11379" lon="6.13807">
        <ele>175.09729</ele>
        <time>2012-06-28T10:05:25Z</time>
      </trkpt>
      <trkpt lat="49.11384" lon="6.13823">
        <ele>174.1358643</ele>
        <time>2012-06-28T10:05:27Z</time>
      </trkpt>
      <trkpt lat="49.11397" lon="6.13855">
        <ele>174.6165771</ele>
        <time>2012-06-28T10:05:32Z</time>
      </trkpt>
      <trkpt lat="49.11399" lon="6.13859">
        <ele>173.6552734</ele>
        <time>2012-06-28T10:05:33Z</time>
      </trkpt>
      <trkpt lat="49.11408" lon="6.13856">
        <ele>173.1746826</ele>
        <time>2012-06-28T10:05:38Z</time>
      </trkpt>
      <trkpt lat="49.11415" lon="6.13848">
        <ele>172.6939697</ele>
        <time>2012-06-28T10:05:44Z</time>
      </trkpt>
      <trkpt lat="49.11415" lon="6.13847">
        <ele>172.6939697</ele>
        <time>2012-06-28T10:05:45Z</time>
      </trkpt>
      <trkpt lat="49.11415" lon="6.13846">
        <ele>172.6939697</ele>
        <time>2012-06-28T10:05:50Z</time>
      </trkpt>
      <trkpt lat="49.11414" lon="6.13846">
        <ele>172.6939697</ele>
        <time>2012-06-28T10:05:51Z</time>
      </trkpt>
      <trkpt lat="49.11413" lon="6.13847">
        <ele>173.1746826</ele>
        <time>2012-06-28T10:05:52Z</time>
      </trkpt>
    </trkseg>
  </trk>
</gpx>